[[{"header":{"parameterUnit":"m.s-1","parameterCategory":1,"la1":30.6,"la2":28.766,"lo1":-90.7593,"lo2":-88.6598,"dy":0.0162,"dx":0.0183,"nx":116,"ny":114,"refTime":"2023-09-05T06:00:00:Z","depth":0,"parameterNumber":2,"parameterNumberName":"U-component_of_WINDS"},"data":[0.0,0.0,0.0,0.0,0.0,0.0,0.0,0.0,0.0,0.0,0.0,0.0,0.0,0.0,0.0,0.0,0.0,0.0,0.0,0.0,0.0,0.0,0.0,0.0,0.0,0.0,0.0,0.0,0.0,0.0,0.0,0.0,0.0,0.0,0.0,0.0,0.0,0.0,0.0,0.0,0.0,0.0,0.0,0.0,0.0,0.0,0.0,0.0,0.0,0.0,0.0,0.0,0.0,0.0,0.0,0.0,0.0,0.0,0.0,0.0,0.0,0.0,0.0,0.0,0.0,0.0,0.0,0.0,0.0,0.0,0.0,0.0,0.0,0.0,0.0,0.0,0.0,0.0,0.0,0.0,0.0,0.0,0.0,0.0,0.0,0.0,0.0,0.0,0.0,0.0,0.0,0.0,0.0,0.0,0.0,0.0,0.0,0.0,0.0,0.0,0.0,0.0,0.0,0.0,0.0,0.0,0.0,0.0,0.0,0.0,0.0,0.0,0.0,0.0,0.0,0.0,0.0,0.0,0.0,0.0,0.0,0.0,0.0,0.0,0.0,0.0,0.0,0.0,0.0,0.0,0.0,0.0,0.0,0.0,0.0,0.0,0.0,0.0,0.0,0.0,0.0,0.0,0.0,0.0,0.0,0.0,0.0,0.0,0.0,0.0,0.0,0.0,0.0,0.0,0.0,0.0,0.0,0.0,0.0,0.0,0.0,0.0,0.0,0.0,0.0,0.0,0.0,0.0,0.0,0.0,0.0,0.0,0.0,0.0,0.0,0.0,0.0,0.0,0.0,0.0,0.0,0.0,0.0,0.0,0.0,0.0,0.0,0.0,0.0,0.0,0.0,0.0,0.0,0.0,0.0,0.0,0.0,0.0,0.0,0.0,0.0,0.0,0.0,0.0,0.0,0.0,0.0,0.0,0.0,0.0,0.0,0.0,0.0,0.0,0.0,0.0,0.0,0.0,0.0,0.0,0.0,0.0,0.0,0.0,0.0,0.0,0.0,0.0,0.0,0.0,0.0,0.0,0.0,0.0,0.0,0.0,0.0,0.0,0.0,0.0,0.0,0.0,0.0,0.0,0.0,0.0,0.0,0.0,0.0,0.0,0.0,0.0,0.0,0.0,0.0,0.0,0.0,0.0,0.0,0.0,0.0,0.0,0.0,0.0,0.0,0.0,0.0,0.0,0.0,0.0,0.0,0.0,0.0,0.0,0.0,0.0,0.0,0.0,0.0,0.0,0.0,0.0,0.0,0.0,0.0,0.0,0.0,0.0,0.0,0.0,0.0,0.0,0.0,0.0,0.0,0.0,0.0,0.0,0.0,0.0,0.0,0.0,0.0,0.0,0.0,0.0,0.0,0.0,0.0,0.0,0.0,0.0,0.0,0.0,0.0,0.0,0.0,0.0,0.0,0.0,0.0,0.0,0.0,0.0,0.0,0.0,0.0,0.0,0.0,0.0,0.0,0.0,0.0,0.0,0.0,0.0,0.0,0.0,0.0,0.0,0.0,0.0,0.0,0.0,0.0,0.0,0.0,0.0,0.0,0.0,0.0,0.0,0.0,0.0,0.0,0.0,0.0,0.0,0.0,0.0,0.0,0.0,0.0,0.0,0.0,0.0,0.0,0.0,0.0,0.0,0.0,0.0,0.0,0.0,0.0,0.0,0.0,0.0,0.0,0.0,0.0,0.0,0.0,0.0,0.0,0.0,0.0,0.0,0.0,0.0,0.0,0.0,0.0,0.0,0.0,0.0,0.0,0.0,0.0,0.0,0.0,0.0,0.0,0.0,0.0,0.0,0.0,0.0,0.0,0.0,0.0,0.0,0.0,0.0,0.0,0.0,0.0,0.0,0.0,0.0,0.0,0.0,0.0,0.0,0.0,0.0,0.0,0.0,0.0,0.0,0.0,0.0,0.0,0.0,0.0,0.0,0.0,0.0,0.0,0.0,0.0,0.0,0.0,0.0,0.0,0.0,0.0,0.0,0.0,0.0,0.0,0.0,0.0,0.0,0.0,0.0,0.0,0.0,0.0,0.0,0.0,0.0,0.0,0.0,0.0,0.0,0.0,0.0,0.0,0.0,0.0,0.0,0.0,0.0,0.0,0.0,0.0,0.0,0.0,0.0,0.0,0.0,0.0,0.0,0.0,0.0,0.0,0.0,0.0,0.0,0.0,0.0,0.0,0.0,0.0,0.0,0.0,0.0,0.0,0.0,0.0,0.0,0.0,0.0,0.0,0.0,0.0,0.0,0.0,0.0,0.0,0.0,0.0,0.0,0.0,0.0,0.0,0.0,0.0,0.0,0.0,0.0,0.0,0.0,0.0,0.0,0.0,0.0,0.0,0.0,0.0,0.0,0.0,0.0,0.0,0.0,0.0,0.0,0.0,0.0,0.0,0.0,0.0,0.0,0.0,0.0,0.0,0.0,0.0,0.0,0.0,0.0,0.0,0.0,0.0,0.0,0.0,0.0,0.0,0.0,0.0,0.0,0.0,0.0,0.0,0.0,0.0,0.0,0.0,0.0,0.0,0.0,0.0,0.0,0.0,0.0,0.0,0.0,0.0,0.0,0.0,0.0,0.0,0.0,0.0,0.0,0.0,0.0,0.0,0.0,0.0,0.0,0.0,0.0,0.0,0.0,0.0,0.0,0.0,0.0,0.0,0.0,0.0,0.0,0.0,0.0,0.0,0.0,0.0,0.0,0.0,0.0,0.0,0.0,0.0,0.0,0.0,0.0,0.0,0.0,0.0,0.0,0.0,0.0,0.0,0.0,0.0,0.0,0.0,0.0,0.0,0.0,0.0,0.0,0.0,0.0,0.0,0.0,0.0,0.0,0.0,0.0,0.0,0.0,0.0,0.0,0.0,0.0,0.0,0.0,0.0,0.0,0.0,0.0,0.0,0.0,0.0,0.0,0.0,0.0,0.0,0.0,0.0,0.0,0.0,0.0,0.0,0.0,0.0,0.0,0.0,0.0,0.0,0.0,0.0,0.0,0.0,0.0,0.0,0.0,0.0,0.0,0.0,0.0,0.0,0.0,0.0,0.0,0.0,0.0,0.0,0.0,0.0,0.0,0.0,0.0,0.0,0.0,0.0,0.0,0.0,0.0,0.0,0.0,0.0,0.0,0.0,0.0,0.0,0.0,0.0,0.0,0.0,0.0,0.0,0.0,0.0,0.0,0.0,0.0,0.0,0.0,0.0,0.0,0.0,0.0,0.0,0.0,0.0,0.0,0.0,0.0,0.0,0.0,0.0,0.0,0.0,0.0,0.0,0.0,0.0,0.0,0.0,0.0,0.0,0.0,0.0,0.0,0.0,0.0,0.0,0.0,0.0,0.0,0.0,0.0,0.0,0.0,0.0,0.0,0.0,0.0,0.0,0.0,0.0,0.0,0.0,0.0,0.0,0.0,0.0,0.0,0.0,0.0,0.0,0.0,0.0,0.0,0.0,0.0,0.0,0.0,0.0,0.0,0.0,0.0,0.0,0.0,0.0,0.0,0.0,0.0,0.0,0.0,0.0,0.0,0.0,0.0,0.0,0.0,0.0,0.0,0.0,0.0,0.0,0.0,0.0,0.0,0.0,0.0,0.0,0.0,0.0,0.0,0.0,0.0,0.0,0.0,0.0,0.0,0.0,0.0,0.0,0.0,0.0,0.0,0.0,0.0,0.0,0.0,0.0,0.0,0.0,0.0,0.0,0.0,0.0,0.0,0.0,0.0,0.0,0.0,0.0,0.0,0.0,0.0,0.0,0.0,0.0,0.0,0.0,0.0,0.0,0.0,0.0,0.0,0.0,0.0,0.0,0.0,0.0,0.0,0.0,0.0,0.0,0.0,0.0,0.0,0.0,0.0,0.0,0.0,0.0,0.0,0.0,0.0,0.0,0.0,0.0,0.0,0.0,0.0,0.0,0.0,0.0,0.0,0.0,0.0,0.0,0.0,0.0,0.0,0.0,0.0,0.0,0.0,0.0,0.0,0.0,0.0,0.0,0.0,0.0,0.0,0.0,0.0,0.0,0.0,0.0,0.0,0.0,0.0,0.0,0.0,0.0,0.0,0.0,0.0,0.0,0.0,0.0,0.0,0.0,0.0,0.0,0.0,0.0,0.0,0.0,0.0,0.0,0.0,0.0,0.0,0.0,0.0,0.0,0.0,0.0,0.0,0.0,0.0,0.0,0.0,0.0,0.0,0.0,0.0,0.0,0.0,0.0,0.0,0.0,0.0,0.0,0.0,0.0,0.0,0.0,0.0,0.0,0.0,0.0,0.0,0.0,0.0,0.0,0.0,0.0,0.0,0.0,0.0,0.0,0.0,0.0,0.0,0.0,0.0,0.0,0.0,0.0,0.0,0.0,0.0,0.0,0.0,0.0,0.0,0.0,0.0,0.0,0.0,0.0,0.0,0.0,0.0,0.0,0.0,0.0,0.0,0.0,0.0,0.0,0.0,0.0,0.0,0.0,0.0,0.0,0.0,0.0,0.0,0.0,0.0,0.0,0.0,0.0,0.0,0.0,0.0,0.0,0.0,0.0,0.0,0.0,0.0,0.0,0.0,0.0,0.0,0.0,0.0,0.0,0.0,0.0,0.0,0.0,0.0,0.0,0.0,0.0,0.0,0.0,0.0,0.0,0.0,0.0,0.0,0.0,0.0,0.0,0.0,0.0,0.0,0.0,0.0,0.0,0.0,0.0,0.0,0.0,0.0,0.0,0.0,0.0,0.0,0.0,0.0,0.0,0.0,0.0,0.0,0.0,0.0,0.0,0.0,0.0,0.0,0.0,0.0,0.0,0.0,0.0,0.0,0.0,0.0,0.0,0.0,0.0,0.0,0.0,0.0,0.0,0.0,0.0,0.0,0.0,0.0,0.0,0.0,0.0,0.0,0.0,0.0,0.0,0.0,0.0,0.0,0.0,0.0,0.0,0.0,0.0,0.0,0.0,0.0,0.0,0.0,0.0,0.0,0.0,0.0,0.0,0.0,0.0,0.0,0.0,0.0,0.0,0.0,0.0,0.0,0.0,0.0,0.0,0.0,0.0,0.0,0.0,0.0,0.0,0.0,0.0,0.0,0.0,0.0,0.0,0.0,0.0,0.0,0.0,0.0,0.0,0.0,0.0,0.0,0.0,0.0,0.0,0.0,0.0,0.0,0.0,0.0,0.0,0.0,0.0,0.0,0.0,0.0,0.0,0.0,0.0,0.0,0.0,0.0,0.0,0.0,0.0,0.0,0.0,0.0,0.0,0.0,0.0,0.0,0.0,0.0,0.0,0.0,0.0,0.0,0.0,0.0,0.0,0.0,0.0,0.0,0.0,0.0,0.0,0.0,0.0,0.0,0.0,0.0,0.0,0.0,0.0,0.0,0.0,0.0,0.0,0.0,0.0,0.0,0.0,0.0,0.0,0.0,0.0,0.0,0.0,0.0,0.0,0.0,0.0,0.0,0.0,0.0,0.0,0.0,0.0,0.0,0.0,0.0,0.0,0.0,0.0,0.0,0.0,0.0,0.0,0.0,0.0,0.0,0.0,0.0,0.0,0.0,0.0,0.0,0.0,0.0,0.0,0.0,0.0,0.0,0.0,0.0,0.0,0.0,0.0,0.0,0.0,0.0,0.0,0.0,0.0,0.0,0.0,0.0,0.0,0.0,0.0,0.0,0.0,0.0,0.0,0.0,0.0,0.0,0.0,0.0,0.0,0.0,0.0,0.0,0.0,0.0,0.0,0.0,0.0,0.0,0.0,0.0,0.0,0.0,0.0,0.0,0.0,0.0,0.0,0.0,0.0,0.0,0.0,0.0,0.0,0.0,0.0,0.0,0.0,0.0,0.0,0.0,0.0,0.0,0.0,0.0,0.0,0.0,0.0,0.0,0.0,0.0,0.0,0.0,0.0,0.0,0.0,0.0,0.0,0.0,0.0,0.0,0.0,0.0,0.0,0.0,0.0,0.0,0.0,0.0,0.0,0.0,0.0,0.0,0.0,0.0,0.0,0.0,0.0,0.0,0.0,0.0,0.0,0.0,0.0,0.0,0.0,0.0,0.0,0.0,0.0,0.0,0.0,0.0,0.0,0.0,0.0,0.0,0.0,0.0,0.0,0.0,0.0,0.0,0.0,0.0,-3.595,0.0,0.0,0.0,0.0,0.0,0.0,0.0,0.0,0.0,0.0,0.0,0.0,0.0,0.0,0.0,0.0,0.0,0.0,0.0,0.0,0.0,0.0,0.0,0.0,0.0,0.0,0.0,0.0,0.0,0.0,0.0,0.0,0.0,0.0,0.0,0.0,0.0,0.0,0.0,-3.319,-3.3512,-3.3947,-3.4321,-3.4754,-3.5219,0.0,0.0,0.0,0.0,0.0,0.0,0.0,0.0,0.0,0.0,0.0,0.0,0.0,0.0,0.0,0.0,0.0,0.0,0.0,0.0,0.0,0.0,0.0,0.0,0.0,0.0,0.0,0.0,0.0,0.0,0.0,0.0,0.0,0.0,0.0,0.0,0.0,0.0,0.0,0.0,0.0,0.0,0.0,0.0,0.0,0.0,0.0,0.0,0.0,0.0,0.0,0.0,0.0,0.0,0.0,0.0,0.0,0.0,0.0,0.0,0.0,0.0,0.0,0.0,0.0,0.0,0.0,0.0,0.0,0.0,0.0,-3.5893,0.0,0.0,0.0,0.0,0.0,0.0,0.0,0.0,0.0,0.0,0.0,0.0,0.0,0.0,0.0,0.0,0.0,0.0,0.0,0.0,0.0,0.0,0.0,0.0,0.0,0.0,0.0,0.0,0.0,0.0,0.0,0.0,0.0,0.0,0.0,-3.2755,-3.2948,-3.3024,-3.3571,-3.4036,-3.4371,-3.4795,-3.5169,-3.5472,-3.5362,0.0,0.0,0.0,0.0,0.0,0.0,0.0,0.0,0.0,0.0,0.0,0.0,0.0,0.0,0.0,0.0,0.0,0.0,0.0,0.0,0.0,0.0,0.0,0.0,0.0,0.0,0.0,0.0,0.0,0.0,0.0,0.0,0.0,0.0,0.0,0.0,0.0,0.0,0.0,0.0,0.0,0.0,0.0,0.0,0.0,0.0,0.0,0.0,0.0,0.0,0.0,0.0,0.0,0.0,0.0,0.0,0.0,0.0,0.0,0.0,0.0,0.0,0.0,0.0,-3.6007,-3.5991,-3.5994,-3.5996,-3.5996,-3.5925,-3.589,-3.5861,0.0,0.0,0.0,0.0,0.0,0.0,0.0,0.0,0.0,0.0,0.0,0.0,0.0,0.0,0.0,0.0,0.0,0.0,0.0,0.0,0.0,0.0,-3.0914,-3.1033,-3.1278,-3.1406,-3.15,0.0,0.0,0.0,0.0,0.0,0.0,-3.2318,-3.277,-3.3011,-3.3086,-3.4329,-3.4971,-3.5098,-3.6112,-3.6712,-3.6871,-3.5837,-3.582,-3.6588,0.0,0.0,0.0,0.0,0.0,0.0,0.0,0.0,0.0,0.0,0.0,0.0,0.0,0.0,0.0,0.0,0.0,0.0,0.0,0.0,0.0,0.0,0.0,0.0,0.0,0.0,0.0,0.0,0.0,0.0,0.0,0.0,0.0,0.0,0.0,0.0,0.0,0.0,0.0,0.0,0.0,-3.7993,-3.7993,0.0,0.0,0.0,0.0,0.0,0.0,0.0,0.0,0.0,0.0,0.0,0.0,0.0,0.0,-3.5908,-3.5908,-3.5934,-3.5991,-3.6001,-3.6007,-3.5991,-3.5994,-3.5996,-3.5996,-3.5925,0.0,-3.5816,-3.5741,0.0,0.0,0.0,0.0,0.0,0.0,0.0,0.0,0.0,0.0,0.0,0.0,0.0,0.0,0.0,0.0,0.0,0.0,0.0,0.0,0.0,-3.1067,-3.1162,-3.16,-3.1466,-3.1445,-3.1579,0.0,0.0,0.0,0.0,-3.242,-3.2705,-3.2884,-3.3363,-3.4109,-3.5248,-3.5951,-3.6224,-3.6863,-3.7249,-3.7353,-3.6982,-3.7036,-3.7442,-3.7572,0.0,0.0,0.0,0.0,0.0,0.0,0.0,0.0,0.0,0.0,0.0,0.0,0.0,0.0,0.0,0.0,0.0,0.0,0.0,0.0,0.0,0.0,0.0,0.0,0.0,0.0,0.0,0.0,0.0,0.0,0.0,0.0,0.0,0.0,0.0,0.0,0.0,0.0,0.0,-3.9461,-3.9369,-3.94,-3.8539,-3.7959,0.0,0.0,0.0,0.0,0.0,0.0,0.0,0.0,0.0,-3.778,-3.6936,-3.654,-3.6692,-3.6204,-3.5978,-3.5991,-3.5996,-3.6001,-3.6007,-3.5992,-3.5994,-3.5996,-3.5974,-3.5923,-3.5849,-3.5774,-3.5718,-3.5698,0.0,0.0,0.0,0.0,0.0,-3.5565,0.0,0.0,0.0,0.0,0.0,0.0,0.0,0.0,0.0,0.0,0.0,0.0,-3.1359,-3.1179,-3.1235,-3.1858,-3.1562,-3.1428,-3.1579,-3.1691,0.0,0.0,-3.2019,-3.2272,-3.2675,-3.3194,-3.4075,-3.5303,-3.6342,-3.7,-3.7337,-3.7821,-3.8097,-3.8137,-3.8343,-3.8377,-3.8309,-3.8419,-3.8276,-3.7995,0.0,0.0,0.0,0.0,0.0,0.0,0.0,0.0,0.0,0.0,0.0,0.0,0.0,0.0,0.0,0.0,0.0,0.0,0.0,0.0,0.0,0.0,0.0,0.0,0.0,0.0,0.0,0.0,0.0,0.0,0.0,0.0,0.0,0.0,0.0,0.0,0.0,-3.9919,-4.0087,-4.0156,-3.9215,-3.8577,0.0,0.0,0.0,0.0,0.0,0.0,-3.8996,-3.8782,-3.8702,-3.8761,-3.7942,-3.7527,-3.7633,-3.6774,-3.6325,-3.6325,-3.6111,-3.5996,-3.6005,-3.6009,-3.5992,-3.5995,-3.5996,-3.5975,-3.5923,-3.5836,-3.5749,-3.5693,-3.5696,-3.5699,-3.5684,-3.5643,-3.5612,-3.5601,0.0,0.0,0.0,0.0,0.0,0.0,0.0,0.0,0.0,0.0,0.0,-3.074,-3.1321,-3.1179,-3.1235,-3.1858,-3.1634,-3.1538,-3.1579,-3.1893,-3.1742,-3.1011,-3.1263,-3.1568,-3.1846,-3.3731,-3.5274,-3.6407,-3.7497,-3.8053,-3.816,-3.9318,-3.9865,-3.9869,-3.9889,-3.9603,-3.915,-3.9352,-3.9896,-4.0479,-3.9004,0.0,0.0,0.0,0.0,0.0,0.0,0.0,0.0,0.0,0.0,0.0,0.0,0.0,0.0,0.0,0.0,0.0,0.0,0.0,0.0,0.0,0.0,0.0,0.0,0.0,0.0,0.0,0.0,0.0,0.0,0.0,0.0,0.0,0.0,0.0,0.0,0.0,0.0,-3.9253,-3.9906,0.0,0.0,0.0,0.0,-4.05,-4.0551,-4.0654,-4.0844,-4.0072,-3.9652,-3.9738,-3.8961,-3.8531,-3.8534,-3.7672,-3.7223,-3.7223,-3.6404,-3.5996,-3.6005,-3.6005,-3.6009,-3.5995,-3.5995,-3.5996,-3.5976,-3.5853,-3.5749,-3.5704,-3.5698,-3.5695,-3.5704,-3.5704,-3.5643,-3.5601,0.0,0.0,0.0,0.0,0.0,0.0,0.0,0.0,0.0,-3.0097,-3.074,-3.1295,-3.1733,-3.1768,-3.1877,-3.2109,-3.1841,-3.1562,-3.1411,-3.1244,-3.1376,-3.1895,-3.1764,-3.2319,-3.3694,-3.5472,-3.6717,-3.7482,-3.849,-3.9171,-3.9501,-4.0005,-4.0234,-4.0196,-4.037,-4.0265,-3.998,-4.0139,-4.013,-3.9985,-3.9447,-3.8603,0.0,0.0,0.0,0.0,0.0,0.0,0.0,0.0,0.0,0.0,0.0,0.0,0.0,0.0,0.0,0.0,0.0,0.0,0.0,0.0,0.0,0.0,0.0,0.0,0.0,0.0,0.0,0.0,0.0,0.0,0.0,0.0,0.0,0.0,0.0,0.0,0.0,-3.9964,-3.9794,0.0,-3.9719,-3.9844,-3.9943,-3.9994,-4.0587,-4.0992,-4.1066,-4.0777,-4.0606,-4.0639,-3.98,-3.937,-3.937,-3.8551,-3.8141,-3.8121,-3.7243,-3.6833,-3.6819,-3.6257,-3.6007,-3.6009,-3.5994,-3.5995,-3.5996,-3.5857,-3.58,-3.5768,-3.5724,-3.5708,-3.5704,-3.5704,-3.5684,-3.5654,0.0,0.0,0.0,0.0,0.0,0.0,0.0,0.0,0.0,-3.0468,-3.0958,-3.1449,-3.1986,-3.1896,-3.1913,-3.2283,-3.186,-3.1442,-3.1148,-3.1072,-3.1289,-3.1898,-3.2301,-3.3419,-3.5271,-3.6714,-3.7794,-3.8527,-3.9196,-3.9762,-4.0196,-4.0308,-4.0362,-4.036,-4.0523,-4.0554,-4.0473,-4.0515,-4.034,-4.0014,-3.9792,-3.8897,-3.7744,0.0,0.0,0.0,0.0,0.0,0.0,0.0,0.0,0.0,0.0,0.0,0.0,0.0,0.0,0.0,0.0,0.0,0.0,0.0,0.0,0.0,0.0,0.0,0.0,0.0,0.0,0.0,0.0,0.0,0.0,0.0,0.0,0.0,0.0,0.0,-3.9257,-3.9953,-3.9742,-3.9586,-3.9688,-3.9844,-3.9926,-3.9994,-4.063,-4.1022,-4.1108,-4.1108,-4.1108,-4.1108,-4.0542,-4.0249,-4.0249,-3.9409,-3.9,-3.898,-3.8141,-3.7731,-3.7711,-3.7131,-3.6726,-3.6433,-3.6441,-3.6269,-3.5956,-3.5853,-3.58,-3.5749,-3.5724,-3.5708,-3.5704,-3.5704,-3.5704,-3.5704,0.0,0.0,0.0,0.0,0.0,0.0,0.0,0.0,-2.9483,-3.0568,-3.0692,-3.1083,-3.1986,-3.1452,-3.1372,-3.2214,-3.1694,-3.1162,-3.0785,-3.1479,-3.1598,-3.0918,-3.2957,-3.4823,-3.6315,-3.7396,-3.8436,-3.9483,-3.9575,-3.9804,-4.0196,-4.0252,-4.0379,-4.0502,-4.043,-4.0479,-4.0592,-4.0454,-4.0596,-4.0839,-4.0057,-3.9252,-3.8448,0.0,0.0,0.0,0.0,0.0,0.0,0.0,0.0,0.0,0.0,0.0,0.0,0.0,0.0,0.0,0.0,0.0,0.0,0.0,0.0,0.0,0.0,0.0,0.0,0.0,0.0,0.0,0.0,0.0,0.0,0.0,0.0,0.0,-3.7617,-3.8476,-3.9029,-3.912,-3.9883,-4.0432,-4.0502,-4.0511,-4.0582,-4.0791,-4.081,-4.0887,-4.1085,-4.1108,-4.1108,-4.1108,-4.1108,-4.1108,-4.1108,-4.0268,-3.9839,-3.9839,-3.9019,-3.8632,-3.8632,-3.8612,-3.8146,-3.7331,-3.7315,-3.6777,-3.5925,-3.5841,-3.5756,-3.5704,-3.5707,-3.5704,-3.5704,-3.5704,-3.5704,-3.5704,0.0,0.0,0.0,0.0,0.0,0.0,0.0,-2.9303,-2.9853,-3.0468,-3.0958,-3.1372,-3.1585,-3.175,-3.1877,-3.186,-3.1694,-3.1219,-3.0426,-3.0959,-3.1803,-3.2848,-3.5275,-3.6842,-3.7387,-3.8238,-3.8906,-3.935,-3.9526,-3.9717,-3.9996,-4.0157,-4.0272,-4.036,-4.0438,-4.0489,-4.0531,-4.0636,-4.0749,-4.081,-4.0643,-4.0081,-3.9357,0.0,0.0,0.0,0.0,0.0,0.0,0.0,0.0,0.0,0.0,0.0,0.0,0.0,0.0,0.0,0.0,0.0,0.0,0.0,0.0,0.0,0.0,0.0,0.0,0.0,0.0,0.0,0.0,0.0,0.0,0.0,0.0,-3.8252,-3.8592,-3.8858,-3.9239,-3.9886,-4.0191,-4.0342,-4.0432,-4.0466,-4.0511,-4.0572,-4.0762,-4.0906,-4.0941,-4.1042,-4.1101,-4.1108,-4.1108,-4.1108,-4.1108,-4.0854,-4.0737,-4.0737,-3.9878,-3.9468,-3.9449,-3.8863,-3.8475,-3.8205,-3.7565,-3.7127,-3.6788,-3.6087,-3.5762,-3.5704,-3.5707,-3.5704,-3.5704,-3.5704,-3.5704,-3.5704,0.0,0.0,0.0,0.0,0.0,0.0,0.0,-2.9028,-2.9617,-3.0113,-3.0781,-3.1218,-3.1359,-3.1582,-3.1711,-3.164,-3.1271,-3.0737,-3.0036,-3.0997,-3.2475,-3.4422,-3.6505,-3.7848,-3.8247,-3.8756,-3.912,-3.9298,-3.9452,-3.9623,-3.987,-4.0057,-4.0177,-4.0252,-4.0372,-4.0441,-4.0511,-4.0629,-4.0723,-4.08,-4.084,-4.0399,-3.9689,-3.9708,-3.9169,-3.8403,-3.839,-3.8354,-3.8228,-3.7667,0.0,0.0,0.0,0.0,0.0,0.0,0.0,0.0,0.0,0.0,0.0,0.0,0.0,0.0,0.0,0.0,0.0,0.0,0.0,0.0,0.0,0.0,0.0,0.0,-3.8251,-3.8956,-3.9452,-3.949,-3.97,-4.0252,-4.0289,-4.0325,-4.0362,-4.0422,-4.0477,-4.0511,-4.071,-4.0846,-4.0894,-4.1028,-4.1097,-4.1101,-4.1108,-4.1108,-4.1108,-4.1108,-4.1108,-4.1088,-4.0581,-4.0346,-4.0327,-3.9858,-3.9449,0.0,-3.8598,-3.7946,-3.7164,-3.6583,-3.6086,0.0,0.0,0.0,0.0,0.0,-3.5704,-3.5704,0.0,0.0,0.0,0.0,0.0,0.0,0.0,-2.8415,-2.9028,-2.9705,-3.0284,-3.0781,-3.1261,-3.11,-3.1117,-3.1507,-3.0649,-3.0009,-2.9899,-3.1542,-3.3452,-3.5553,-3.7014,-3.8143,-3.8862,-3.8968,-3.9092,-3.9272,-3.935,-3.9526,-3.9781,-3.9911,-4.0058,-4.0196,-4.0252,-4.036,-4.0457,-4.0473,-4.0593,-4.0781,-4.0787,-4.0401,-3.9825,-3.9757,-3.9276,-3.8654,-3.8635,-3.854,-3.8431,-3.8394,0.0,0.0,0.0,0.0,0.0,0.0,0.0,0.0,0.0,0.0,0.0,0.0,0.0,0.0,0.0,0.0,0.0,0.0,0.0,0.0,0.0,0.0,0.0,0.0,-3.8363,-3.9219,-4.0062,-4.0176,-4.0234,-4.0291,-4.0309,-4.0289,-4.0289,-4.0344,-4.0408,-4.0482,-4.0609,-4.0752,-4.089,0.0,0.0,0.0,0.0,-4.1108,-4.1108,-4.1108,-4.1108,-4.1108,-4.1108,-4.1108,-4.1108,-4.1108,-4.0678,-3.9937,-3.9903,-3.8961,-3.7458,-3.7211,-3.6546,-3.569,-3.5698,-3.5704,-3.5704,-3.5704,-3.5704,0.0,0.0,0.0,0.0,0.0,0.0,0.0,0.0,-2.7849,-2.848,-2.9496,-2.9924,-3.0326,-3.0797,-3.0895,-3.0952,-3.1015,-3.0364,-3.0253,-3.0946,-3.2773,-3.446,-3.586,-3.7473,-3.8456,-3.8719,-3.891,-3.9007,-3.9064,-3.9219,-3.9427,-3.9623,-3.9717,-3.9892,-4.0118,-4.0138,-4.0177,-4.0272,-4.0375,-4.0492,-4.0648,-4.0642,-4.066,-4.0673,-4.0587,-4.0404,-4.0166,-4.0046,-3.9945,-3.98,-3.915,-3.8788,-3.8479,-3.7755,-3.6765,0.0,0.0,0.0,0.0,0.0,0.0,0.0,0.0,0.0,0.0,0.0,0.0,0.0,0.0,0.0,0.0,0.0,0.0,0.0,-3.8435,-3.9155,-3.9783,-3.9998,-4.0077,-4.0157,-4.0291,-4.0291,-4.0291,-4.0291,-4.031,-4.0381,-4.0485,-4.0623,-4.0757,-4.0885,-4.1019,0.0,-4.1094,-4.1104,-4.1108,-4.1108,-4.1108,-4.1108,-4.1108,0.0,0.0,-4.1108,-4.1108,-4.101,-4.0815,-4.0112,-3.9588,-3.9117,-3.7682,-3.6559,-3.5699,-3.5706,-3.5704,-3.5704,-3.5704,-3.5704,-3.5704,0.0,0.0,0.0,0.0,0.0,0.0,0.0,-2.7449,-2.8079,-2.895,-2.9512,-3.0011,-3.0485,-3.0692,-3.0831,-3.0912,-3.0325,-3.0304,-3.119,-3.2953,-3.4562,-3.5897,-3.7557,-3.8528,-3.8707,-3.881,-3.891,-3.8979,-3.9101,-3.9245,-3.9452,-3.9483,-3.967,-3.9954,-3.9889,-3.9975,-4.0196,-4.0196,-4.0315,-4.0501,-4.0501,-4.0557,-4.0655,-4.0733,-4.072,-4.0681,-4.0427,-4.0309,-4.0177,-3.9681,-3.9373,-3.9131,-3.8717,-3.7867,-3.6925,0.0,0.0,0.0,0.0,0.0,0.0,0.0,0.0,0.0,0.0,0.0,0.0,0.0,0.0,-3.7073,0.0,0.0,-3.8615,-3.8679,-3.938,-3.9933,-3.9996,-4.0036,-4.0098,-4.0234,-4.0272,-4.031,-4.031,-4.031,-4.0328,-4.0396,-4.0593,-4.073,-4.0809,-4.0986,-4.1091,-4.1105,-4.1097,-4.1104,-4.1108,-4.1108,-4.1108,-4.1108,-4.1108,-4.1108,-4.1108,-4.1108,-4.1108,-4.1088,-4.0639,-4.0187,-3.9609,-3.7831,-3.6547,-3.5707,-3.5695,-3.5704,-3.5704,-3.5704,-3.5704,-3.5704,0.0,0.0,0.0,0.0,0.0,0.0,0.0,0.0,-2.77,-2.8255,-2.895,-2.9645,-3.013,-3.0485,-3.0642,-3.063,-3.0415,-3.0458,-3.0992,-3.286,-3.4492,-3.5679,-3.7398,-3.8433,-3.8614,-3.8658,-3.8732,-3.8939,-3.895,-3.9045,-3.9272,-3.9272,-3.9427,-3.9712,-3.9575,-3.9717,-4.0017,-3.9918,-4.0003,-4.0211,-4.0262,-4.026,-4.0293,-4.0466,-4.0593,-4.0626,-4.0336,-4.0081,-3.9897,-3.9857,-3.9566,-3.9301,-3.9476,-3.8852,-3.7941,-3.7349,-3.7103,0.0,0.0,0.0,0.0,0.0,0.0,0.0,0.0,0.0,-3.7017,-3.7318,-3.7416,-3.7558,-3.7759,-3.8304,-3.8776,-3.8883,-3.9453,-3.9911,-3.9975,-3.9996,-4.0038,-4.0176,-4.0234,-4.0291,-4.031,-4.031,-4.031,-4.0346,-4.0564,-4.0706,-4.073,-4.0976,-4.11,-4.1091,-4.1105,-4.1097,-4.1108,-4.1108,-4.1108,-4.1108,-4.1108,-4.1108,-4.1108,-4.1108,-4.1108,-4.1111,-4.1082,-4.0596,-3.9662,-3.8021,-3.6793,-3.595,-3.5775,-3.5695,-3.5695,-3.5704,-3.5704,-3.5704,0.0,0.0,0.0,0.0,0.0,0.0,0.0,0.0,0.0,-2.7565,-2.8288,-2.8996,-2.9451,-3.007,-3.0237,-2.9809,-3.0622,-3.0963,-3.0411,-3.3125,-3.4906,-3.5169,-3.7084,-3.8186,-3.834,-3.8465,-3.859,-3.8719,-3.8792,-3.8921,-3.9129,-3.9129,-3.9192,-3.935,-3.935,-3.935,-3.9383,-3.9452,-3.947,-3.9534,-3.9712,-3.9781,-3.9787,-3.9944,-4.0063,-4.0156,-4.0,-3.9488,-3.8939,-3.9392,-3.8946,-3.8264,-3.8748,-3.8311,-3.7654,-3.7691,-3.7277,-3.6671,-3.5979,-3.5675,-3.556,-3.5653,-3.5925,-3.6435,0.0,0.0,-3.8029,-3.8861,-3.9121,-3.9245,-3.9269,-3.9416,-3.9584,-3.9584,-3.9769,-3.9911,-3.9911,-3.9954,-4.0036,-4.0098,-4.0176,-4.0215,-4.0291,-4.031,-4.0345,-4.0476,-4.0635,-4.0742,-4.0869,-4.1025,-4.11,-4.1091,-4.1105,-4.1097,-4.1108,-4.1108,-4.1108,-4.1108,-4.1108,-4.1108,-4.1108,-4.1108,-4.1108,-4.1091,-4.1033,-4.0552,-3.973,-3.8617,-3.7685,-3.6861,-3.6038,-3.5708,-3.5697,-3.5695,-3.5704,-3.5704,0.0,0.0,0.0,0.0,0.0,0.0,0.0,0.0,0.0,0.0,-2.7715,-2.8192,-2.8717,-2.9512,-2.9811,-2.9313,-3.0212,-3.0751,-3.0577,-3.2527,-3.4091,-3.4942,-3.6448,-3.7446,-3.7809,-3.8135,-3.8267,-3.8216,-3.851,-3.8695,-3.8796,-3.8796,-3.8865,-3.9008,-3.896,-3.8998,-3.9054,-3.9017,-3.8952,-3.8897,-3.8961,-3.9043,-3.9059,-3.9104,-3.9277,-3.9435,-3.9221,-3.8905,0.0,-3.8664,-3.8421,-3.8137,-3.8549,-3.8203,-3.7663,-3.772,-3.7192,-3.6663,-3.6887,-3.657,0.0,0.0,-3.7404,-3.7461,-3.8386,-3.8599,-3.8728,-3.9197,-3.9272,-3.9324,-3.9458,-3.9551,-3.9623,0.0,-3.9804,-3.9889,-3.9889,-3.9933,-3.9954,-4.0017,-4.0098,-4.0176,-4.0291,-4.0381,-4.0413,-4.0398,-4.0642,-4.0818,-4.0776,-4.0976,-4.1109,-4.11,-4.1096,-4.1109,-4.1101,-4.1108,-4.1108,-4.1108,-4.1108,-4.1108,-4.1108,-4.1108,-4.1108,-4.1091,-4.1074,-4.0576,-3.9722,-3.876,-3.7864,-3.7007,-3.6067,-3.5699,-3.5708,-3.5697,-3.5695,-3.5704,0.0,0.0,0.0,0.0,0.0,0.0,0.0,0.0,0.0,0.0,0.0,-2.7615,-2.824,-2.895,-2.9271,-2.8934,-2.9585,-3.0107,-3.0336,-3.1658,-3.3033,-3.4364,-3.5615,-3.6558,-3.7137,-3.7506,-3.7685,-3.7737,-3.8013,-3.8281,-3.846,-3.846,-3.8473,-3.853,-3.8478,-3.8473,-3.8524,-3.84,-3.8255,-3.8122,-3.8186,-3.8168,-3.82,-3.8363,-3.8389,-3.8395,-3.8456,-3.8296,-3.8053,-3.7817,-3.7611,-3.7517,-3.7845,-3.7658,-3.7341,-3.7275,-3.6722,-3.6343,-3.7211,0.0,0.0,-3.8312,-3.8424,-3.8368,-3.8943,-3.9073,-3.9129,-3.9219,-3.9183,-3.9156,-3.935,-3.9427,-3.9477,-3.9556,-3.9717,-3.9826,-3.9826,-3.9889,-3.9933,-3.9996,-4.0057,-4.0117,-4.0234,-4.0394,-4.046,-4.0363,-4.0681,-4.0859,-4.0754,-4.098,-4.1097,-4.1095,-4.1106,-4.1096,-4.1094,-4.1101,-4.1108,-4.1108,-4.1108,-4.1108,-4.1108,-4.1108,-4.1108,-4.1091,-4.1074,-4.0716,-4.0034,-3.887,-3.8035,-3.7346,-3.6182,-3.5727,-3.5737,-3.5737,-3.5718,-3.5706,0.0,0.0,0.0,0.0,0.0,0.0,0.0,0.0,0.0,0.0,0.0,0.0,0.0,-2.8336,-2.8432,-2.8685,-2.8732,-2.895,-2.9406,-3.0582,-3.1855,-3.317,-3.4483,-3.5492,-3.6336,-3.6493,-3.6773,-3.7305,-3.7342,-3.7614,-3.8101,-3.8101,-3.8,-3.7809,-3.7827,-3.7739,-3.7524,-3.747,-3.7361,-3.7248,-3.7362,-3.7307,-3.7214,-3.7737,-3.7473,-3.6962,-3.7819,-3.7654,-3.7023,-3.6894,-3.6405,-3.5904,-3.6196,-3.638,-3.6481,-3.6219,-3.5754,-3.5494,-3.6325,-3.6528,-3.6713,-3.7525,-3.8358,-3.8989,-3.9007,-3.9045,-3.9101,-3.9101,-3.9101,-3.9101,-3.9129,-3.9219,-3.9324,-3.9324,-3.9532,-3.9717,-3.9717,-3.9826,-3.9933,-3.9996,-3.9996,-4.0036,0.0,-4.0341,-4.0489,-4.0489,-4.0742,-4.0907,-4.0888,-4.103,-4.1097,-4.1095,-4.1095,-4.1111,-4.1094,-4.1094,-4.1101,-4.1108,-4.1108,-4.1108,-4.1108,-4.1108,-4.1108,-4.1094,-4.1032,-4.0994,-4.0831,-3.9103,-3.8391,-3.8188,-3.6479,-3.5801,-3.5803,-3.5803,-3.5766,-3.5699,0.0,0.0,0.0,0.0,0.0,0.0,0.0,0.0,0.0,0.0,0.0,0.0,0.0,0.0,0.0,0.0,-2.7819,-2.8432,-2.8432,-2.9579,-3.074,-3.1828,-3.3303,-3.436,-3.4959,-3.5838,-3.6429,-3.6689,-3.6943,-3.7283,-3.7774,-3.7613,-3.7487,-3.7413,-3.7356,-3.7208,-3.6981,-3.6904,-3.6649,-3.634,-3.6388,-3.6134,-3.574,-3.5959,-3.5788,-3.5419,0.0,-3.568,-3.5889,-3.6087,-3.5899,-3.5658,-3.6067,-3.6039,-3.5788,-3.5569,-3.5826,-3.6268,-3.6817,-3.7026,-3.7298,-3.8143,-3.8637,-3.8881,-3.8921,-3.8979,-3.9036,-3.9036,-3.8646,-3.8302,-3.8302,-3.7988,-3.7885,-3.8402,-3.8651,-3.8954,-3.9481,-3.967,-3.9781,-3.9804,-3.9914,0.0,0.0,0.0,0.0,-4.0438,-4.0798,-4.0988,-4.0888,-4.103,-4.1091,-4.1097,-4.1109,-4.1379,-4.1959,-4.1382,-4.139,-4.1967,-4.1381,-4.1108,-4.1108,-4.1108,-4.0787,-4.0232,-4.0207,-3.9848,-3.917,-3.8023,-3.7547,-3.7411,-3.6246,-3.5791,-3.5801,-3.5803,-3.5794,-3.5766,0.0,0.0,0.0,0.0,0.0,0.0,0.0,0.0,0.0,0.0,0.0,0.0,0.0,0.0,0.0,0.0,0.0,-2.7369,-2.765,-2.845,-2.9366,-3.0405,-3.1709,-3.266,-3.3123,-3.4267,-3.4985,-3.5214,-3.5821,-3.6339,-3.6761,-3.6949,-3.6956,-3.6821,-3.6759,-3.6597,-3.6316,-3.6165,-3.5814,-3.527,-3.5254,-3.4813,-3.4278,-3.4494,-3.4332,0.0,-3.41,-3.4232,-3.4486,-3.5001,-3.5156,-3.5163,-3.568,-3.5615,-3.5377,-3.5613,-3.5826,-3.6205,-3.7028,-3.729,-3.7522,-3.8363,-3.864,-3.8713,-3.8792,-3.8881,-3.8847,-3.8598,-3.8174,-3.7792,-3.7495,-3.7117,-3.71,-3.7921,-3.8134,-3.8514,-3.9314,-3.9599,-3.9693,-3.9693,-3.9848,-3.9954,0.0,0.0,0.0,-4.0406,-4.0809,-4.1023,-4.0907,-4.103,-4.1227,-4.152,-4.1526,-4.1953,-4.2851,-4.2002,-4.1679,-4.1927,-4.1361,-4.0932,-4.0639,-4.0639,-4.0164,-3.9336,-3.9346,-3.8982,-3.8324,-3.7471,-3.71,-3.7003,-3.6148,-3.5799,-3.5791,-3.5801,-3.5812,-3.5794,0.0,0.0,0.0,0.0,0.0,0.0,0.0,0.0,0.0,0.0,0.0,0.0,0.0,0.0,0.0,0.0,0.0,0.0,-2.7195,-2.7282,-2.7769,-2.8934,-2.9799,-3.0461,-3.0998,-3.1896,-3.2574,-3.31,-3.4109,-3.4787,-3.51,-3.6145,-3.637,-3.5934,-3.5934,-3.5778,-3.5459,-3.5266,-3.4772,-3.4119,-3.3984,-3.3489,-3.2894,-3.3413,-3.3197,-3.2724,-3.3581,-3.344,-3.2943,-3.3778,-3.4179,-3.4405,-3.5055,-3.5165,-3.5266,-3.6261,-3.5864,-3.5449,-3.6955,-3.7301,-3.7421,-3.8107,-3.8401,-3.851,-3.8658,-3.8713,-3.8545,-3.7829,-3.7692,-3.7451,-3.6673,0.0,-3.6891,-3.7708,-3.7988,-3.8364,-3.9186,-3.9508,-3.9693,0.0,0.0,0.0,0.0,0.0,0.0,-4.0372,0.0,-4.0952,-4.0907,-4.1069,-4.152,-4.2279,-4.2338,-4.2818,-4.3748,-4.2851,-4.1948,-4.103,-4.0991,-4.0542,-3.9741,-3.9741,-3.9268,-3.8437,-3.8426,-3.8374,-3.8201,-3.7374,-3.7023,-3.6945,-3.6129,-3.5799,-3.5799,-3.5799,-3.5801,-3.5794,0.0,0.0,0.0,0.0,0.0,0.0,0.0,0.0,0.0,0.0,0.0,0.0,0.0,0.0,0.0,0.0,0.0,0.0,-2.6525,-2.6916,-2.719,-2.7296,-2.8545,-2.9435,-2.9878,-3.092,-3.1929,-3.2954,-3.3111,-3.3309,-3.3584,-3.4048,-3.4083,-3.3741,-3.3956,-3.3947,-3.3705,-3.3484,-3.3188,-3.2933,-3.2859,-3.2446,-3.1874,-3.2057,-3.18,-3.1444,-3.2007,-3.2525,-3.302,-3.3488,-3.4037,-3.4687,-3.5643,-3.5965,-3.6103,-3.6864,-3.7043,-3.7145,-3.7653,-3.7914,-3.8034,-3.815,-3.8186,-3.8234,-3.8433,-3.8132,-3.7794,-3.7573,-3.675,-3.5932,-3.5729,-3.5769,0.0,-3.6872,-3.753,0.0,-3.9026,-3.9298,0.0,-3.9551,0.0,-3.9804,-3.9889,-4.004,0.0,0.0,-4.0571,-4.084,-4.082,-4.1568,-4.2085,-4.2299,-4.2942,-4.3689,-4.459,-4.3149,-4.164,-4.0112,-3.9527,-3.9117,-3.8902,-3.8902,-3.8395,-3.7528,-3.7521,-3.7128,-3.6452,-3.6215,-3.6129,-3.611,-3.5896,-3.5799,-3.5799,-3.5799,-3.5801,-3.5803,0.0,0.0,0.0,0.0,0.0,0.0,0.0,0.0,0.0,0.0,0.0,0.0,0.0,0.0,0.0,0.0,0.0,0.0,0.0,-2.6472,-2.6689,-2.6684,-2.7483,-2.8202,-2.8812,-2.9451,-3.0267,-3.1218,-3.1602,-3.1884,-3.1957,-3.2744,-3.2971,-3.2663,-3.2988,-3.2988,-3.2829,-3.2455,-3.2092,0.0,0.0,-3.1271,-3.0724,-3.1011,-3.0975,-3.0814,-3.1372,-3.2156,-3.3078,-3.373,-3.4623,-3.5602,-3.6383,-3.6696,-3.689,-3.7728,0.0,-3.7658,-3.8145,-3.8252,-3.8204,-3.8204,-3.8119,-3.8011,-3.7913,-3.7619,-3.7168,-3.656,-3.5837,-3.5343,-3.5369,-3.5428,0.0,0.0,0.0,0.0,-3.899,-3.9219,-3.9324,0.0,-3.958,0.0,-3.9804,-3.9916,-3.9998,0.0,-4.0412,-4.0846,-4.1257,-4.1878,-4.2595,-4.3429,-4.3546,-4.3475,-4.322,-4.192,-4.059,-3.9227,-3.8804,-3.8394,-3.8024,-3.8024,-3.7515,-3.6633,0.0,-3.6333,-3.5845,-3.5815,-3.5799,-3.5799,-3.5799,-3.5799,-3.5799,-3.5799,-3.581,-3.5793,0.0,0.0,0.0,0.0,0.0,0.0,0.0,0.0,0.0,0.0,0.0,0.0,0.0,0.0,0.0,0.0,0.0,0.0,0.0,0.0,-2.6237,-2.6621,-2.6564,-2.6932,-2.78,-2.7936,-2.83,-2.8995,-2.9982,-3.041,-3.0352,-3.1622,-3.2142,-3.1994,-3.222,-3.2265,-3.213,-3.1718,-3.113,-3.0521,-3.0505,-3.0167,-2.9681,0.0,-3.0377,-3.0377,-3.1043,-3.1884,-3.2831,-3.3935,-3.5313,-3.6554,-3.6957,-3.7166,-3.74,-3.8187,-3.7875,-3.7393,-3.809,-3.8054,-3.7827,-3.7914,-3.7796,-3.7546,-3.6976,-3.6783,-3.6352,-3.509,0.0,-3.5051,-3.5254,-3.5421,-3.6017,-3.7634,0.0,-3.8172,-3.899,-3.9192,-3.9272,-3.9298,-3.9526,-3.967,-3.9693,-3.9804,-3.9889,-3.9889,-4.0327,-4.0977,-4.1832,-4.2106,-4.2955,-4.4501,-4.3819,-4.2617,-4.0939,-4.0067,-3.9197,-3.8319,-3.8271,-3.7867,-3.7123,-3.7126,-3.6671,-3.5898,0.0,0.0,-3.5883,-3.583,-3.5799,-3.5799,-3.5799,-3.5799,-3.5799,-3.5799,-3.5799,-3.5791,0.0,0.0,0.0,0.0,0.0,0.0,0.0,0.0,0.0,0.0,-2.169,-2.1901,0.0,0.0,0.0,0.0,0.0,0.0,0.0,0.0,0.0,-2.6194,-2.5827,-2.6046,-2.6904,-2.7107,-2.7541,-2.8268,-2.8886,-2.9061,-2.8888,-2.9451,-2.9761,-2.9838,-3.0182,-3.0359,-3.0435,-3.0186,-2.9881,-2.9526,-2.9434,-2.9354,-2.9396,-2.9766,0.0,0.0,-2.9939,-3.0738,-3.1696,-3.291,-3.4489,-3.6001,-3.6416,-3.6777,-3.6967,-3.6608,-3.649,-3.6476,-3.6456,-3.637,-3.6259,-3.61,-3.6002,-3.5771,-3.5186,-3.4629,0.0,0.0,-3.3566,-3.3666,-3.5058,-3.5421,-3.6017,-3.7634,-3.7894,-3.8172,-3.899,-3.9129,-3.9183,0.0,0.0,0.0,0.0,0.0,0.0,0.0,0.0,0.0,-4.1637,-4.257,-4.2986,-4.276,-4.2611,-4.1721,-4.0042,-3.917,-3.8298,-3.7414,-3.6758,-3.6375,-3.6238,-3.6225,-3.6105,-3.5898,0.0,0.0,-3.5883,-3.583,-3.5799,-3.5799,-3.5799,-3.5799,-3.5799,-3.5799,-3.5799,-3.5791,0.0,0.0,0.0,0.0,0.0,0.0,0.0,-2.382,-2.3539,-2.3182,-2.2786,-2.2506,-2.2396,-2.2111,-2.2408,0.0,0.0,0.0,0.0,0.0,0.0,0.0,0.0,0.0,-2.6688,-2.6326,-2.6614,-2.7642,0.0,-2.8106,-2.8268,-2.8559,-2.8889,-2.9198,-2.9319,-2.9515,-2.9814,-2.935,-2.9121,-2.8967,-2.8936,-2.8793,0.0,0.0,0.0,0.0,0.0,-2.9842,-3.0743,-3.1462,-3.2696,-3.4144,-3.5332,-3.598,-3.6132,-3.549,-3.5743,-3.6117,-3.5695,-3.5702,-3.5828,-3.581,-3.5638,-3.5169,-3.4183,0.0,0.0,0.0,-3.2272,-3.2515,-3.3776,-3.4099,0.0,-3.5776,-3.6352,-3.6779,-3.7169,-3.7949,0.0,0.0,0.0,0.0,0.0,0.0,0.0,0.0,0.0,0.0,-4.1511,-4.2267,-4.2364,-4.1708,-4.0799,-3.9708,-3.8453,-3.7581,-3.6947,-3.6523,-3.6165,-3.5994,-3.5994,-3.6001,-3.5974,-3.5948,-3.5911,0.0,-3.5884,-3.5826,-3.5799,-3.5799,-3.5799,-3.5799,-3.5799,-3.5799,-3.5799,-3.5741,0.0,0.0,0.0,0.0,0.0,0.0,0.0,-2.4878,-2.4765,-2.4323,-2.359,-2.3005,-2.2798,-2.2531,-2.2653,0.0,0.0,0.0,0.0,0.0,0.0,0.0,0.0,0.0,0.0,0.0,0.0,0.0,0.0,0.0,0.0,0.0,0.0,0.0,0.0,0.0,-2.9396,-2.892,-2.8607,0.0,0.0,0.0,0.0,0.0,0.0,0.0,0.0,-2.8807,-2.9617,-2.9822,-3.0697,-3.1969,-3.3526,-3.436,-3.47,-3.4274,-3.4648,-3.513,-3.4936,-3.498,-3.5164,-3.5393,-3.5115,-3.4461,-3.316,-3.2915,0.0,-3.1313,-3.1152,-3.1562,-3.2588,-3.2699,-3.2993,0.0,-3.4624,-3.5089,-3.5442,-3.6575,-3.7503,0.0,0.0,0.0,0.0,0.0,0.0,0.0,0.0,0.0,-4.0935,-4.1299,-4.1112,-4.0279,-3.8916,-3.7792,-3.6921,-3.6231,-3.5904,-3.5904,-3.5958,-3.5981,-3.5981,-3.5994,-3.6001,-3.6004,-3.5934,0.0,0.0,-3.582,-3.5799,-3.5799,-3.5799,-3.5799,-3.5799,-3.5799,-3.5682,-3.543,0.0,0.0,0.0,0.0,0.0,0.0,0.0,-2.4368,-2.4323,-2.3677,-2.3207,-2.303,-2.3271,-2.303,-2.3005,0.0,0.0,0.0,0.0,0.0,0.0,0.0,0.0,0.0,0.0,0.0,0.0,0.0,0.0,0.0,0.0,0.0,0.0,0.0,0.0,0.0,0.0,-2.8685,0.0,0.0,0.0,0.0,0.0,0.0,0.0,0.0,0.0,-2.7226,-2.7973,-2.8219,0.0,-3.0167,-3.0402,-3.1249,-3.2206,-3.2358,0.0,0.0,-3.3542,-3.3382,-3.3016,-3.3521,-3.3301,-3.262,-3.142,0.0,-3.1101,-3.0344,-3.0325,-3.088,-3.2428,-3.2212,-3.2321,-3.3938,-3.3653,-3.3751,-3.5274,-3.5627,0.0,0.0,0.0,0.0,0.0,0.0,0.0,0.0,0.0,0.0,0.0,-3.9398,-3.8837,-3.7513,-3.7306,-3.6833,-3.6025,-3.5947,-3.5889,-3.5894,-3.5904,-3.5909,-3.5909,-3.597,-3.6001,-3.6004,0.0,0.0,0.0,-3.582,-3.5799,-3.5799,-3.5799,-3.5799,-3.5799,-3.5799,-3.5294,-3.4614,0.0,0.0,0.0,0.0,0.0,0.0,-2.4924,-2.4937,-2.4951,-2.4684,-2.4208,-2.3721,-2.345,-2.3943,-2.415,-2.3728,0.0,0.0,0.0,0.0,0.0,0.0,0.0,0.0,0.0,0.0,0.0,-2.5304,0.0,0.0,0.0,0.0,0.0,0.0,0.0,0.0,0.0,0.0,0.0,0.0,0.0,0.0,0.0,0.0,0.0,0.0,0.0,0.0,-2.7148,0.0,0.0,0.0,-2.8752,-2.92,0.0,0.0,-3.1193,-3.1757,-3.1916,-3.2222,-3.257,-3.3011,-3.2866,-3.2311,-3.1099,0.0,-3.0659,-2.9557,-2.9405,-2.9682,-3.0396,-3.0314,-3.0383,-3.1135,-3.138,-3.1904,-3.3101,0.0,0.0,0.0,0.0,0.0,0.0,0.0,0.0,0.0,0.0,0.0,0.0,-3.729,-3.7418,-3.6987,-3.6589,-3.6216,-3.5905,-3.5903,-3.5908,-3.5908,-3.5894,-3.5899,-3.5899,-3.5934,-3.5966,-3.5997,0.0,0.0,0.0,-3.582,-3.5799,-3.5799,-3.5799,-3.5799,-3.5741,-3.5216,-3.4808,-3.4361,0.0,0.0,0.0,0.0,0.0,-2.577,-2.5687,-2.5508,-2.5453,-2.5618,-2.5119,-2.4624,-2.4176,-2.4894,-2.5106,-2.431,-2.4908,0.0,0.0,0.0,0.0,0.0,0.0,0.0,0.0,0.0,-2.4236,-2.4732,-2.5198,0.0,0.0,0.0,0.0,0.0,0.0,0.0,0.0,0.0,0.0,0.0,0.0,0.0,0.0,0.0,0.0,0.0,0.0,0.0,0.0,0.0,0.0,-2.7836,-2.7968,-2.8164,-2.8515,-2.9413,-3.0309,-3.1035,-3.1103,-3.1555,-3.2155,-3.2749,-3.2545,-3.1933,0.0,0.0,-3.0216,-2.9028,-2.8834,-2.8929,-2.9021,-2.9067,-2.913,-2.9237,-2.9721,-3.0413,-3.1296,-3.2595,0.0,0.0,0.0,0.0,0.0,0.0,0.0,0.0,0.0,0.0,0.0,-3.5736,-3.6252,-3.648,-3.6082,-3.5891,-3.5905,-3.5897,-3.5908,-3.5908,-3.5908,-3.5908,-3.5908,-3.5904,-3.5934,-3.5966,0.0,0.0,0.0,-3.5827,-3.5799,-3.5779,-3.5527,-3.543,-3.5313,-3.4459,-3.3973,-3.3584,0.0,0.0,0.0,0.0,0.0,0.0,-2.6229,-2.5783,-2.5618,-2.6229,-2.5783,-2.5508,-2.5728,-2.5918,-2.5809,-2.5398,-2.5837,0.0,0.0,0.0,0.0,0.0,0.0,0.0,0.0,0.0,-2.4126,-2.4582,-2.4582,-2.53,-2.6587,-2.6308,0.0,0.0,0.0,0.0,0.0,0.0,0.0,0.0,0.0,0.0,0.0,0.0,0.0,0.0,0.0,0.0,0.0,0.0,0.0,0.0,0.0,-2.8237,-2.8568,-2.9368,-2.952,-2.9776,-3.1422,-3.1497,-3.1386,-3.2606,-3.2057,-3.1135,-3.0861,-3.0242,-2.9538,-2.8851,-2.8791,-2.8905,-2.8905,-2.9021,-2.9089,-2.9089,-2.9175,-2.9536,-3.0394,-3.1209,0.0,0.0,0.0,0.0,0.0,0.0,0.0,0.0,0.0,0.0,0.0,-3.5054,-3.5247,-3.5512,-3.5698,-3.5834,-3.5898,-3.5897,-3.5908,-3.5908,-3.5908,-3.5908,-3.5908,-3.5904,-3.5909,0.0,0.0,0.0,0.0,-3.5833,-3.5799,-3.5721,-3.4847,-3.4517,-3.442,-3.3604,-3.2769,-3.2023,0.0,0.0,0.0,0.0,0.0,0.0,0.0,-2.6418,-2.6563,-2.6336,-2.6269,-2.6201,-2.5972,-2.6505,-2.6715,-2.6308,-2.6162,0.0,0.0,0.0,0.0,0.0,0.0,0.0,0.0,0.0,-2.4923,-2.4582,-2.5076,-2.5463,-2.5771,-2.61,-2.6512,-2.7093,0.0,0.0,0.0,0.0,0.0,0.0,0.0,0.0,0.0,0.0,0.0,0.0,0.0,0.0,0.0,0.0,0.0,0.0,0.0,0.0,0.0,-2.8843,-2.8989,-2.9219,-2.9882,-2.9983,-3.0109,-3.0733,-3.0659,-3.0304,-3.0037,-2.979,-2.9458,-2.8826,-2.8785,-2.8858,-2.8905,-2.8975,-2.9062,-2.9089,-2.913,-2.9451,0.0,0.0,0.0,0.0,0.0,0.0,0.0,0.0,0.0,0.0,0.0,0.0,0.0,0.0,-3.51,-3.5364,-3.5512,-3.565,-3.5754,-3.5815,-3.5852,-3.5898,-3.5898,-3.5911,-3.5908,-3.5894,0.0,0.0,0.0,0.0,0.0,-3.588,-3.5502,-3.4886,-3.4664,-3.4197,-3.3584,-3.273,-3.2244,-3.1914,0.0,0.0,0.0,0.0,0.0,0.0,0.0,-2.687,-2.7053,-2.6698,-2.687,-2.6959,-2.6724,-2.7232,-2.7494,-2.7056,-2.6864,0.0,0.0,0.0,0.0,0.0,0.0,0.0,0.0,-2.6039,-2.5659,-2.5001,-2.5659,-2.5926,-2.5812,-2.6317,-2.6762,-2.7055,-2.7929,0.0,0.0,0.0,0.0,0.0,0.0,0.0,-2.6203,0.0,0.0,0.0,0.0,0.0,0.0,0.0,0.0,0.0,0.0,0.0,0.0,0.0,-2.8658,-2.8694,-2.9089,-2.9228,-2.941,-2.9899,-2.9836,0.0,-2.9561,-2.935,-2.9044,-2.8703,-2.8712,-2.8785,-2.8858,-2.8905,-2.8975,-2.9044,-2.9044,-2.9251,0.0,0.0,0.0,0.0,0.0,0.0,0.0,0.0,0.0,0.0,0.0,0.0,0.0,0.0,-3.4963,-3.5152,-3.538,-3.5568,-3.5708,-3.5773,-3.5842,-3.5905,-3.5905,-3.5898,-3.5908,-3.5908,0.0,0.0,0.0,0.0,0.0,-3.5552,-3.5067,-3.4484,-3.3855,-3.3297,-3.2693,-3.1824,-3.1506,-3.1428,0.0,0.0,0.0,0.0,0.0,0.0,0.0,-2.7174,-2.7287,-2.7307,-2.752,-2.7694,-2.7838,-2.8091,-2.8103,-2.7725,0.0,0.0,0.0,0.0,0.0,0.0,0.0,0.0,-2.6515,-2.6613,-2.6363,-2.5749,-2.6363,-2.6643,-2.6584,-2.7026,-2.7203,-2.7114,-2.7944,-2.7534,-2.6238,-2.5885,-2.5626,-2.5492,-2.6023,-2.6203,0.0,0.0,0.0,0.0,0.0,0.0,0.0,0.0,0.0,0.0,0.0,0.0,0.0,0.0,0.0,0.0,0.0,-2.906,-2.913,-2.9681,-2.944,-2.9089,-2.9336,-2.8892,0.0,-2.8484,-2.8594,-2.8718,-2.8785,-2.8858,-2.8905,-2.8994,-2.8994,0.0,0.0,0.0,0.0,0.0,0.0,0.0,0.0,0.0,0.0,0.0,0.0,0.0,0.0,0.0,-3.4811,-3.4888,-3.5273,-3.5546,-3.5669,-3.5765,-3.5807,-3.5891,-3.5898,-3.5898,-3.5908,-3.5908,0.0,0.0,0.0,0.0,0.0,-3.4862,-3.4486,-3.4241,-3.2641,-3.1968,-3.1806,-3.0996,-3.069,-3.069,0.0,0.0,0.0,0.0,0.0,0.0,0.0,0.0,0.0,0.0,-2.8206,-2.8314,-2.8352,-2.8685,-2.8842,0.0,0.0,0.0,0.0,0.0,0.0,0.0,0.0,0.0,-2.7614,-2.745,-2.726,-2.7111,-2.726,-2.7604,-2.8092,-2.795,-2.7918,-2.7956,-2.8122,-2.7656,-2.6631,-2.607,-2.5917,-2.6007,-2.6132,-2.6364,0.0,0.0,0.0,0.0,-2.7465,-2.7766,0.0,0.0,0.0,0.0,0.0,0.0,0.0,0.0,-2.8482,-2.8119,-2.8497,0.0,-2.7944,-2.8193,-2.8241,-2.8337,0.0,-2.8497,-2.8406,-2.8484,-2.8594,-2.8694,-2.8718,-2.8785,-2.8834,-2.8905,-2.8929,-2.8952,0.0,0.0,0.0,0.0,0.0,0.0,0.0,0.0,0.0,0.0,0.0,0.0,0.0,0.0,-3.4732,-3.4888,-3.5197,-3.5411,-3.5546,-3.5665,-3.5728,-3.5745,-3.5799,-3.5857,-3.5892,-3.5897,0.0,0.0,0.0,0.0,-3.4844,-3.4017,-3.3262,-3.2583,-3.221,-3.1649,-3.0976,-3.0775,-3.069,-3.069,0.0,0.0,0.0,0.0,0.0,0.0,0.0,0.0,0.0,0.0,0.0,0.0,0.0,0.0,0.0,0.0,0.0,0.0,0.0,0.0,0.0,0.0,0.0,-2.7725,-2.8005,-2.8092,-2.8141,-2.8038,-2.8622,-2.8951,-2.9002,-2.9055,-2.8769,-2.8187,-2.7628,-2.745,-2.7365,-2.643,-2.6151,-2.6277,-2.6382,0.0,0.0,0.0,0.0,0.0,-2.7736,-2.7996,0.0,-2.8282,-2.844,-2.8594,0.0,0.0,0.0,0.0,-2.8626,-2.8299,-2.8273,-2.7943,-2.763,-2.7806,-2.7968,-2.8126,-2.8237,-2.8327,-2.8406,-2.8458,-2.8562,-2.8644,-2.8694,-2.8737,-2.8785,-2.8834,-2.915,0.0,0.0,0.0,0.0,0.0,0.0,0.0,0.0,0.0,0.0,0.0,0.0,0.0,0.0,0.0,-3.4564,-3.4674,-3.5034,-3.5296,-3.5502,-3.562,-3.5697,-3.5708,-3.5773,-3.5842,-3.5905,-3.5897,0.0,0.0,0.0,0.0,-3.3984,-3.3144,-3.2504,-3.2006,-3.166,-3.1198,-3.0759,-3.0742,-3.0755,-3.0736,0.0,0.0,0.0,0.0,0.0,0.0,0.0,0.0,0.0,0.0,0.0,0.0,0.0,0.0,0.0,0.0,0.0,0.0,0.0,0.0,0.0,0.0,0.0,-2.8195,-2.8256,-2.8743,-2.8981,-2.8959,-3.0038,-3.0298,-2.9769,-3.0264,-2.9644,-2.8204,-2.7226,-2.7211,-2.7844,-2.6733,-2.6312,-2.6453,-2.6657,0.0,0.0,0.0,0.0,0.0,0.0,0.0,0.0,-2.8484,-2.8594,-2.8694,-2.8718,0.0,0.0,0.0,0.0,0.0,-2.8237,-2.7954,-2.776,-2.794,-2.8071,-2.8182,-2.82,-2.8291,-2.838,-2.8398,-2.8484,-2.8648,-2.8808,-2.8851,0.0,0.0,0.0,0.0,0.0,0.0,0.0,0.0,0.0,0.0,0.0,0.0,0.0,0.0,0.0,0.0,0.0,0.0,0.0,-3.4386,-3.4851,-3.5219,-3.5443,-3.5608,-3.5687,-3.5699,-3.5765,-3.5807,-3.5864,-3.5743,0.0,0.0,0.0,0.0,-3.3119,-3.2265,-3.1909,-3.1833,-3.1097,-3.0798,-3.079,-3.0808,-3.0799,-3.0799,0.0,0.0,0.0,0.0,0.0,0.0,0.0,0.0,0.0,0.0,0.0,0.0,0.0,0.0,0.0,0.0,0.0,0.0,0.0,0.0,0.0,-3.1246,-3.0016,-2.9326,-2.9342,-2.9684,-3.0099,-3.0637,-3.0709,-3.1001,-3.1426,-3.1215,-3.0193,-2.8556,-2.8354,-2.7631,-2.6593,-2.6552,-2.6589,-2.6657,-2.6792,0.0,0.0,0.0,0.0,0.0,0.0,0.0,0.0,-2.8619,-2.8669,-2.8718,-2.8815,0.0,0.0,0.0,0.0,0.0,-2.8396,-2.811,-2.784,-2.776,-2.7893,-2.8071,-2.8182,-2.8264,-2.8327,-2.838,-2.8458,-2.8735,0.0,-2.9582,-2.987,0.0,0.0,0.0,0.0,0.0,0.0,0.0,0.0,0.0,0.0,0.0,0.0,0.0,0.0,0.0,0.0,0.0,0.0,-3.4386,-3.4851,-3.5122,-3.5171,-3.5451,-3.5643,-3.5695,-3.5718,-3.5718,-3.5717,-3.5022,-3.4637,0.0,0.0,-3.2337,-3.2151,-3.1343,-3.0993,-3.0996,-3.0859,-3.0806,-3.0808,-3.0804,-3.0799,-3.0799,0.0,0.0,0.0,0.0,0.0,0.0,0.0,0.0,0.0,0.0,0.0,0.0,0.0,0.0,0.0,0.0,0.0,0.0,0.0,0.0,0.0,-3.2318,-3.1806,-3.1195,-3.0438,-3.0722,-3.0968,-3.1197,-3.1344,-3.1581,-3.1883,-3.1698,-3.084,-2.9563,-2.9119,-2.8279,-2.7128,-2.6945,-2.694,-2.7103,0.0,0.0,0.0,0.0,0.0,0.0,0.0,0.0,0.0,0.0,-2.881,-2.8858,-2.8905,0.0,0.0,0.0,0.0,0.0,-2.8615,-2.8342,-2.8209,-2.8525,-2.8308,-2.8014,-2.8071,-2.8191,-2.83,-2.8327,-2.8406,0.0,0.0,0.0,-3.0152,0.0,0.0,0.0,0.0,0.0,0.0,0.0,0.0,0.0,0.0,0.0,0.0,0.0,0.0,0.0,0.0,0.0,0.0,0.0,-3.463,-3.487,-3.498,-3.5243,-3.547,-3.5639,-3.5213,-3.4991,-3.4972,-3.4162,-3.3561,-3.3109,0.0,-3.1748,-3.1317,-3.0951,-3.08,-3.0791,-3.0791,-3.0807,-3.0798,-3.0798,-3.079,-3.0798,0.0,0.0,0.0,0.0,0.0,0.0,0.0,0.0,0.0,0.0,0.0,0.0,0.0,0.0,0.0,0.0,0.0,0.0,0.0,0.0,-3.4172,-3.3517,-3.369,-3.3095,-3.1593,-3.1887,-3.1986,-3.1896,-3.2097,-3.2206,-3.2079,-3.2257,-3.1575,-3.0172,-2.9872,-2.9005,-2.7709,-2.739,-2.7324,-2.7496,0.0,0.0,0.0,0.0,0.0,0.0,0.0,0.0,0.0,0.0,0.0,0.0,0.0,0.0,0.0,-2.9112,-2.9156,-2.9115,-2.879,-2.8529,-2.846,-2.8953,-2.8632,-2.8287,-2.8521,-2.8699,-2.881,-2.8873,-2.89,0.0,0.0,-3.0322,0.0,0.0,0.0,0.0,0.0,0.0,0.0,0.0,0.0,0.0,0.0,0.0,0.0,0.0,0.0,0.0,0.0,0.0,0.0,0.0,-3.445,-3.4576,-3.4585,-3.4797,-3.5038,-3.5295,-3.4668,-3.4284,-3.4071,-3.3244,-3.2547,-3.1928,-3.1748,-3.133,-3.0771,-3.0792,-3.0801,-3.0823,-3.0823,-3.0801,-3.0801,-3.0801,-3.0794,-3.0801,0.0,0.0,0.0,0.0,0.0,0.0,0.0,0.0,0.0,0.0,0.0,0.0,0.0,0.0,0.0,0.0,0.0,0.0,0.0,0.0,-3.6519,-3.5771,-3.5693,-3.4751,-3.2902,-3.3211,-3.3371,-3.3371,-3.3087,-3.2726,-3.2398,-3.3515,-3.2417,-2.9633,-3.0801,-2.9812,-2.7267,-2.7539,-2.7672,-2.7701,-2.7811,0.0,0.0,0.0,0.0,0.0,0.0,0.0,0.0,0.0,0.0,0.0,0.0,0.0,-2.9178,-2.9178,-2.92,-2.9115,-2.879,-2.859,-2.8414,-2.8182,-2.847,-2.9087,-3.0083,-3.0332,-3.038,-3.051,-3.0539,0.0,0.0,-3.2319,0.0,0.0,0.0,0.0,0.0,0.0,0.0,0.0,0.0,0.0,0.0,0.0,0.0,0.0,0.0,0.0,0.0,0.0,0.0,0.0,0.0,-3.425,-3.3714,-3.3889,-3.4127,-3.4376,-3.4334,-3.3912,-3.3158,-3.23,-3.1865,-3.1777,-3.1019,-3.0691,-3.0712,-3.0768,-3.0837,-3.0888,-3.0888,-3.0845,-3.0801,-3.0801,-3.0799,-3.0796,0.0,0.0,0.0,0.0,0.0,0.0,0.0,0.0,0.0,0.0,0.0,0.0,0.0,0.0,0.0,0.0,0.0,0.0,0.0,-3.7869,-3.7541,-3.6893,-3.6698,-3.622,-3.5454,-3.4492,-3.3949,-3.3848,-3.3697,-3.3527,-3.3423,-3.4528,-3.3373,-3.0517,-3.1548,-3.0349,-2.7582,-2.7876,-2.8035,-2.8091,-2.8264,-2.8533,0.0,0.0,0.0,0.0,0.0,0.0,0.0,0.0,-2.9197,-2.9218,-2.9218,-2.924,-2.9262,-2.9262,-2.9262,-2.924,-2.916,-2.9305,-2.9598,-3.0046,-3.0052,-2.9888,-2.9668,-3.0066,-3.0511,-3.0576,-3.0576,0.0,0.0,0.0,0.0,0.0,0.0,0.0,0.0,0.0,0.0,0.0,0.0,0.0,0.0,0.0,0.0,0.0,0.0,0.0,0.0,0.0,0.0,0.0,0.0,-3.2729,-3.2788,-3.2878,-3.2844,-3.2678,-3.2686,-3.2524,-3.2196,-3.136,-3.1014,-3.1051,-3.074,-3.0652,-3.0762,-3.0791,-3.0835,-3.0892,-3.0909,-3.0886,-3.0864,-3.0821,-3.0801,-3.0799,0.0,0.0,0.0,0.0,0.0,0.0,0.0,0.0,0.0,0.0,0.0,0.0,0.0,0.0,0.0,0.0,0.0,0.0,-3.8887,-3.8736,-3.8401,-3.7803,-3.7629,-3.7399,-3.7049,-3.5865,-3.5136,-3.4878,-3.4719,-3.4559,-3.4463,-3.5161,-3.3928,-3.1232,-3.1847,-3.0543,-2.7989,-2.8299,-2.8482,-2.8558,-2.8803,-2.902,0.0,0.0,0.0,0.0,0.0,0.0,0.0,0.0,-2.939,-2.9326,-2.9349,-2.9328,-2.9344,-2.9344,-2.9344,-2.9344,-2.9386,-2.9747,-3.0296,-3.0962,-3.1136,-3.0941,-3.0219,-3.0267,-3.0582,-3.0832,-3.1021,-3.1271,-3.1678,0.0,0.0,0.0,0.0,0.0,0.0,0.0,0.0,0.0,0.0,0.0,0.0,0.0,0.0,0.0,0.0,0.0,0.0,0.0,0.0,0.0,0.0,0.0,-3.19,-3.19,-3.1689,-3.1263,-3.1291,-3.1284,-3.1264,-3.073,-3.053,-3.0568,-3.0568,-3.0644,-3.0774,-3.0774,-3.0829,-3.0895,-3.0892,-3.0909,-3.0888,-3.0847,-3.0825,-3.0823,0.0,0.0,0.0,0.0,0.0,0.0,0.0,0.0,0.0,0.0,0.0,0.0,0.0,0.0,0.0,0.0,0.0,0.0,-3.9623,-3.9551,-3.9242,-3.8637,-3.8534,-3.8159,-3.7453,-3.7363,-3.7031,-3.6493,-3.6163,-3.5788,-3.5419,-3.5404,-3.399,-3.1502,-3.1653,-3.0409,-2.8353,-2.8808,-2.9042,-2.9129,-2.9379,-2.9551,-2.9604,0.0,0.0,0.0,0.0,0.0,0.0,0.0,-2.9681,-2.9429,-2.957,-2.9512,-2.9407,-2.9407,-2.9407,-2.9425,-2.9425,-2.9806,-3.0252,-3.0323,-3.132,-3.2264,-3.2123,-3.126,-3.0743,-3.151,-3.2186,-3.2423,-3.18,0.0,0.0,0.0,0.0,0.0,0.0,0.0,0.0,0.0,0.0,0.0,0.0,0.0,0.0,0.0,0.0,0.0,0.0,0.0,0.0,0.0,0.0,0.0,-3.0979,-3.0997,-3.075,-3.0304,-3.0367,-3.0402,-3.0398,-3.0469,-3.0499,-3.0499,-3.0499,-3.0574,-3.0706,-3.0706,-3.0771,-3.0897,-3.0895,-3.0892,-3.0909,-3.0894,-3.0892,-3.0909,0.0,0.0,0.0,0.0,0.0,0.0,0.0,0.0,0.0,0.0,0.0,0.0,0.0,0.0,0.0,0.0,0.0,0.0,-3.9899,-3.9873,-3.9721,-3.9445,-3.9301,-3.9107,-3.8897,-3.8626,-3.7905,-3.6716,-3.6528,-3.6323,-3.6104,-3.5339,-3.3949,-3.2039,-3.1506,-3.0366,-2.886,-2.9067,-2.926,-2.9457,-2.9532,-2.9706,-2.9954,0.0,0.0,0.0,0.0,0.0,0.0,0.0,0.0,0.0,-2.9551,-2.9471,-2.9407,-2.9407,-2.9774,-3.0157,-3.0157,-3.1113,-3.2101,-3.2125,-3.2354,0.0,-3.2525,-3.1944,-3.1267,0.0,-3.1845,-3.257,-3.1849,0.0,0.0,0.0,0.0,0.0,0.0,0.0,0.0,0.0,0.0,0.0,0.0,0.0,0.0,0.0,0.0,0.0,0.0,0.0,0.0,0.0,0.0,0.0,-2.9729,-2.9907,-3.0012,-3.0018,-3.0234,-3.0343,-3.0402,-3.0417,-3.0428,-3.0428,-3.0428,-3.0528,-3.0714,-3.0804,-3.0852,-3.0898,-3.0898,-3.0897,-3.0895,-3.0895,-3.0894,-3.0892,0.0,0.0,0.0,0.0,0.0,0.0,0.0,0.0,0.0,0.0,0.0,0.0,0.0,0.0,0.0,0.0,0.0,0.0,0.0,-4.012,-4.0059,-3.9937,-3.9832,-3.9743,-3.9632,-3.9421,-3.8822,-3.7817,-3.7506,-3.7051,-3.6564,-3.5366,-3.3916,-3.2295,-3.1238,-3.0202,-2.9235,-2.9379,-2.9586,-2.9807,-2.9882,-3.0051,-3.026,0.0,0.0,0.0,0.0,0.0,0.0,0.0,0.0,0.0,-2.977,-2.9645,-2.9511,-2.947,-2.9965,-3.055,-3.055,-3.1695,-3.2895,-3.2919,-3.3111,-3.3142,-3.2709,0.0,0.0,0.0,0.0,-3.266,0.0,0.0,0.0,0.0,0.0,0.0,0.0,0.0,0.0,0.0,0.0,0.0,0.0,0.0,0.0,0.0,0.0,0.0,0.0,0.0,0.0,0.0,0.0,0.0,-2.9148,-2.9316,-2.957,-2.9915,-3.0056,-3.0221,-3.0374,-3.0359,-3.0386,-3.043,-3.05,-3.0586,-3.0716,-3.0843,-3.0895,-3.0897,-3.0897,-3.0898,-3.0898,-3.0898,-3.0898,-3.0897,0.0,0.0,0.0,0.0,0.0,0.0,0.0,0.0,0.0,0.0,-4.096,0.0,0.0,0.0,0.0,0.0,0.0,0.0,0.0,0.0,-4.027,-4.0139,-4.0214,-4.012,-3.9865,-3.9844,-3.9712,-3.9464,-3.8715,-3.7804,-3.6779,-3.5314,-3.3769,-3.2246,-3.0943,-3.0033,-2.9476,-2.9823,-3.0026,-3.0158,-3.0337,-3.046,-3.0519,-3.0608,0.0,0.0,0.0,0.0,0.0,0.0,0.0,0.0,-3.009,-2.9918,-2.9681,-2.957,-3.0049,-3.0615,-3.0668,-3.1774,-3.2937,-3.3059,-3.361,0.0,-3.2886,-3.2447,-3.2206,-3.2004,0.0,0.0,0.0,0.0,0.0,0.0,0.0,0.0,0.0,0.0,0.0,0.0,0.0,0.0,0.0,0.0,0.0,0.0,0.0,0.0,0.0,0.0,0.0,0.0,0.0,0.0,-2.906,-2.9082,-2.9339,0.0,-2.9869,-3.003,-3.0279,-3.0279,-3.0364,-3.0511,-3.0633,-3.0696,-3.0704,-3.0845,-3.0894,-3.0894,-3.0894,-3.0895,-3.0897,-3.0897,-3.0898,-3.0898,0.0,0.0,0.0,0.0,0.0,0.0,0.0,0.0,0.0,0.0,0.0,0.0,0.0,0.0,0.0,0.0,0.0,0.0,0.0,0.0,-4.0527,-4.0492,-4.0457,-4.0419,-4.0351,-4.0246,-4.0123,-3.9948,-3.8527,-3.7266,-3.6079,-3.4079,-3.2527,-3.1366,-3.1069,-3.0582,-3.0084,-3.0874,-3.0933,-3.0501,-3.0546,-3.0563,-3.0668,-3.139,-3.167,0.0,0.0,0.0,0.0,0.0,0.0,0.0,-3.0122,-2.9992,-2.9832,-2.9698,-3.0132,-3.0798,-3.1314,-3.2177,0.0,-3.3697,-3.4018,-3.4117,-3.3901,-3.3637,-3.2949,-3.1268,-3.2062,0.0,0.0,0.0,0.0,0.0,0.0,0.0,0.0,0.0,0.0,0.0,0.0,0.0,0.0,0.0,0.0,0.0,0.0,0.0,0.0,0.0,0.0,0.0,0.0,-2.8718,-2.8718,-2.892,-2.9172,0.0,-2.9643,-2.9886,-3.0147,-3.0253,-3.034,-3.0442,-3.0563,-3.0659,-3.0701,-3.0785,-3.0845,-3.0909,-3.0909,-3.0892,-3.0895,-3.0895,-3.0896,-3.0896,0.0,0.0,0.0,0.0,0.0,0.0,0.0,0.0,0.0,0.0,0.0,0.0,0.0,0.0,0.0,0.0,0.0,0.0,0.0,0.0,-4.0655,-4.0696,-4.0671,-4.0634,-4.0635,-4.0604,-4.03,-3.9721,-3.8527,-3.7255,-3.5907,-3.4008,-3.2627,-3.1682,-3.0932,-3.0682,-3.0883,-3.0953,-3.1081,-3.1263,-3.1278,-3.1491,-3.1907,-3.238,-3.2562,-3.2562,-3.2562,0.0,0.0,0.0,0.0,0.0,0.0,0.0,-3.0052,-2.9817,-3.0264,-3.0937,-3.1563,-3.2331,0.0,-3.3895,0.0,-3.4148,-3.4124,-3.3998,-3.3532,-3.2319,0.0,0.0,0.0,0.0,0.0,0.0,0.0,0.0,0.0,0.0,0.0,0.0,0.0,0.0,0.0,0.0,0.0,0.0,0.0,0.0,0.0,0.0,0.0,0.0,-2.844,-2.8562,-2.8562,-2.8651,-2.8902,-2.9256,-2.938,-2.9678,-3.0102,-3.0247,-3.0356,-3.0443,-3.0563,-3.0672,-3.0755,-3.0782,-3.0824,-3.0855,-3.0855,-3.0841,-3.0847,-3.0849,-3.0849,-3.0849,0.0,0.0,0.0,0.0,0.0,0.0,0.0,0.0,0.0,0.0,0.0,0.0,0.0,0.0,0.0,0.0,0.0,0.0,0.0,0.0,0.0,-4.0838,-4.0838,-4.0838,-4.085,-4.0915,-4.0424,-3.9383,-3.8472,-3.732,-3.5928,-3.444,-3.3203,-3.2232,-3.1226,-3.1116,-3.163,-3.1216,-3.1424,-3.2033,-3.2189,-3.2636,-3.3258,-3.3407,-3.3439,-3.3439,-3.3439,-3.3361,-3.3094,-3.2278,0.0,0.0,0.0,0.0,-3.0273,-2.9927,-3.0258,-3.0847,-3.1424,-3.2265,-3.317,-3.392,-3.4099,0.0,-3.4023,-3.3998,-3.391,0.0,0.0,0.0,0.0,0.0,0.0,0.0,0.0,0.0,0.0,0.0,0.0,0.0,0.0,0.0,0.0,0.0,0.0,0.0,0.0,0.0,0.0,0.0,-2.7547,-2.7869,-2.8228,-2.8432,-2.8466,-2.8432,-2.8651,-2.9166,-2.9256,-2.9551,-3.0038,-3.015,-3.0306,-3.0482,-3.0543,-3.0646,-3.0769,-3.0769,-3.0784,-3.0786,-3.0786,-3.0774,-3.0781,-3.0791,-3.0794,-3.0794,0.0,0.0,0.0,0.0,0.0,0.0,0.0,0.0,0.0,0.0,0.0,0.0,0.0,0.0,0.0,0.0,0.0,0.0,-4.09,0.0,0.0,-4.096,-4.0962,-4.1006,-4.1051,-4.1064,-4.0633,-3.9725,-3.8131,-3.6829,-3.5794,-3.4719,-3.3307,-3.178,-3.3234,-3.3174,-3.2039,-3.3429,-3.3278,-3.215,-3.2908,-3.3278,-3.3454,-3.4213,-3.4467,-3.4422,-3.4472,-3.3983,-3.3148,-3.2292,-3.1448,0.0,0.0,0.0,-3.0409,-3.008,-2.9988,-3.0141,-3.0565,0.0,-3.3104,0.0,-3.4099,-3.4074,0.0,0.0,-3.3718,0.0,0.0,0.0,0.0,0.0,0.0,0.0,0.0,0.0,0.0,0.0,0.0,0.0,0.0,0.0,0.0,0.0,0.0,0.0,0.0,0.0,0.0,-2.7083,-2.7457,-2.78,-2.8201,-2.8406,-2.8406,-2.8406,-2.8601,-2.9038,-2.9434,-2.9682,-2.9753,-2.9769,-3.0003,-3.0409,-3.0411,-3.0548,-3.0704,-3.0704,-3.0716,-3.0714,-3.0714,-3.0714,-3.072,-3.0784,-3.0789,-3.0789,0.0,0.0,0.0,0.0,0.0,0.0,0.0,0.0,0.0,0.0,0.0,0.0,0.0,0.0,0.0,-4.1012,-4.0969,-4.0947,-4.0967,-4.0967,-4.0991,-4.1054,-4.1054,-4.1074,-4.1092,-4.0664,-3.9976,-3.9061,-3.7851,-3.6533,-3.5126,-3.5211,-3.4532,-3.3248,-3.3647,-3.3685,-3.3478,-3.374,-3.3738,-3.3539,-3.3919,-3.4077,-3.4173,-3.5045,-3.4776,-3.3988,-3.4462,-3.4096,-3.3223,-3.2347,-3.1754,-3.1292,-3.0804,0.0,0.0,0.0,-3.0061,-3.016,-3.0564,-3.1749,-3.2988,0.0,-3.3691,-3.3972,-3.3895,0.0,0.0,0.0,0.0,0.0,0.0,0.0,0.0,0.0,0.0,0.0,0.0,0.0,0.0,0.0,0.0,0.0,0.0,0.0,0.0,0.0,0.0,0.0,-2.6556,-2.6987,-2.7352,-2.763,-2.8053,-2.8264,-2.8237,-2.8264,-2.8474,-2.8883,-2.9373,-2.9589,-2.9589,-2.9682,-2.9921,-3.0292,-3.0292,-3.0422,-3.0649,-3.0649,-3.0637,-3.0639,-3.0639,-3.0639,-3.0646,-3.073,-3.0736,-3.0736,0.0,0.0,0.0,0.0,0.0,0.0,0.0,0.0,0.0,0.0,0.0,0.0,0.0,0.0,0.0,0.0,-4.0947,-4.0906,-4.0918,-4.0918,-4.0952,-4.0996,-4.0996,-4.1019,-4.1023,-4.0218,-3.9369,-3.8456,-3.7437,-3.625,-3.494,-3.5412,-3.5353,-3.4828,-3.4233,-3.4207,-3.4573,-3.4139,-3.4218,-3.4609,-3.4609,-3.4607,-3.4648,-3.5071,-3.4456,-3.3459,-3.4078,-3.3769,-3.297,-3.2313,-3.1918,-3.1553,-3.0898,-3.0642,0.0,0.0,0.0,-3.0204,0.0,0.0,-3.2423,-3.2705,-3.3184,-3.3629,0.0,0.0,0.0,0.0,0.0,0.0,0.0,0.0,0.0,0.0,0.0,0.0,0.0,0.0,0.0,0.0,0.0,0.0,0.0,0.0,0.0,0.0,0.0,0.0,-2.6454,-2.6873,-2.7181,-2.7434,-2.7882,-2.8126,-2.8071,-2.8246,-2.8466,-2.8737,-2.9188,-2.9412,-2.9412,-2.9531,-2.9771,-3.0052,-3.0128,-3.0297,-3.0501,-3.0539,-3.0565,-3.0563,-3.0563,-3.0563,-3.0582,-3.0661,-3.0668,-3.0668,0.0,0.0,0.0,0.0,0.0,0.0,0.0,0.0,0.0,0.0,0.0,0.0,-4.0921,-4.1052,-4.1071,-4.1007,-4.0947,-4.0848,-4.0732,-4.0722,-4.0722,-4.0712,-4.0712,0.0,-4.0809,-3.9964,-3.9124,-3.8316,-3.6749,-3.5918,-3.582,-3.5036,-3.5092,-3.5833,-3.5781,-3.5331,-3.4643,-3.542,-3.531,-3.4592,-3.4602,-3.4602,-3.4507,-3.3722,-3.3376,-3.332,-3.3414,-3.2899,-3.2168,-3.2112,-3.1509,-3.0755,-3.0704,-3.0642,-3.0557,0.0,0.0,0.0,0.0,-3.0822,0.0,-3.2385,-3.2735,0.0,0.0,0.0,0.0,0.0,0.0,0.0,0.0,0.0,0.0,0.0,0.0,0.0,0.0,0.0,0.0,0.0,0.0,0.0,0.0,0.0,0.0,0.0,0.0,0.0,-2.6295,-2.6624,-2.6939,-2.7213,-2.7719,-2.8014,-2.8014,-2.844,-2.8619,-2.8518,-2.898,-2.9222,-2.9222,-2.9283,-2.9433,-2.9662,-2.9969,-3.0142,-3.0241,-3.0428,-3.0509,-3.0509,-3.0509,-3.0509,-3.05,-3.0577,-3.0604,-3.0604,0.0,0.0,0.0,0.0,0.0,0.0,0.0,0.0,0.0,0.0,0.0,0.0,0.0,-4.0994,-4.1003,-4.0933,-4.0878,-4.0789,-4.0633,-4.0633,-4.0665,-4.071,-4.071,-4.0479,-3.9976,-3.911,-3.8023,-3.6696,-3.6126,-3.5564,-3.5066,-3.5325,-3.5593,-3.589,-3.5899,-3.573,-3.5442,-3.5768,-3.5688,-3.5329,-3.4808,-3.4272,-3.3726,-3.3425,-3.2639,0.0,0.0,0.0,0.0,0.0,0.0,0.0,0.0,0.0,0.0,0.0,0.0,0.0,0.0,0.0,0.0,-3.1229,-3.1621,-3.1923,0.0,0.0,0.0,0.0,0.0,0.0,0.0,0.0,0.0,0.0,0.0,0.0,0.0,0.0,0.0,0.0,0.0,0.0,0.0,0.0,0.0,0.0,0.0,0.0,-2.6521,-2.6725,-2.6989,-2.7386,-2.7491,-2.7624,-2.7806,-2.8335,-2.8518,-2.844,-2.8957,-2.9156,-2.9085,-2.9197,-2.9243,-2.9291,-2.968,-2.9977,-3.0209,-3.0364,-3.0417,-3.0383,-3.0383,-3.0359,-3.0367,-3.0406,-3.0409,-3.0409,0.0,0.0,0.0,0.0,0.0,0.0,0.0,0.0,0.0,-3.779,0.0,0.0,0.0,0.0,-4.0939,-4.0809,-4.0769,-4.0675,-4.0521,-4.0506,-4.0516,-4.0557,-4.0557,-4.0198,-3.9366,-3.8531,-3.7297,-3.5704,-3.545,-3.5071,-3.4545,-3.5147,-3.5583,-3.5878,-3.5869,-3.5875,-3.5877,-3.5866,-3.584,-3.5696,-3.4614,-3.3815,-3.3278,-3.2986,0.0,0.0,0.0,0.0,0.0,0.0,0.0,0.0,0.0,0.0,0.0,0.0,0.0,0.0,-3.0182,0.0,0.0,0.0,0.0,-3.1204,0.0,0.0,0.0,0.0,0.0,0.0,0.0,0.0,0.0,0.0,0.0,0.0,0.0,0.0,0.0,0.0,0.0,0.0,0.0,0.0,0.0,0.0,0.0,0.0,-2.6453,-2.659,-2.6923,-2.7496,-2.74,-2.7444,-2.7612,-2.8073,-2.8317,-2.8299,-2.8773,-2.8998,-2.9017,-2.913,-2.9134,-2.9112,-2.9514,-2.9834,-3.0052,-3.0279,-3.0348,-3.0311,-3.0279,-3.0273,-3.0279,-3.0267,-3.0279,-3.0279,0.0,0.0,0.0,0.0,0.0,0.0,0.0,0.0,-3.5855,-3.6869,0.0,0.0,0.0,0.0,0.0,-4.0629,-4.0588,-4.0504,-4.031,-4.0291,-4.0291,-4.031,-4.0291,-3.9889,-3.908,-3.8246,-3.7026,-3.543,-3.471,-3.4342,-3.433,-3.4445,-3.4944,-3.5755,-3.5752,-3.5754,-3.5752,-3.5752,-3.5752,-3.5624,0.0,-3.3293,-3.3215,0.0,0.0,0.0,-3.3028,-3.3341,0.0,-3.3378,0.0,0.0,0.0,0.0,0.0,0.0,0.0,0.0,0.0,0.0,0.0,0.0,0.0,0.0,0.0,0.0,0.0,0.0,0.0,0.0,0.0,0.0,0.0,0.0,0.0,0.0,0.0,0.0,0.0,0.0,0.0,0.0,0.0,0.0,0.0,0.0,0.0,-2.5974,-2.601,-2.6279,-2.6758,-2.7465,-2.7496,-2.7496,-2.7496,-2.7771,-2.7964,-2.8084,-2.843,-2.8743,-2.9017,-2.9085,-2.9089,-2.9112,-2.9494,-2.9698,-2.9731,-3.0133,-3.0279,-3.0279,-3.0221,-3.0207,-3.0207,-3.0202,-3.0202,-3.0202,0.0,0.0,0.0,0.0,0.0,0.0,-3.5515,-3.5534,-3.5875,0.0,0.0,0.0,-3.9472,-4.0335,-4.0759,-4.0466,-4.0454,-4.0375,-4.0176,-4.0157,-4.0215,-4.0291,-3.9699,-3.8972,-3.8183,-3.6744,-3.5234,-3.3622,-3.3462,-3.3082,-3.2542,-3.3837,-3.4553,-3.4796,-3.4835,-3.4854,-3.4863,-3.4853,0.0,-3.4769,-3.372,-3.3293,0.0,0.0,0.0,0.0,0.0,-3.4205,-3.433,0.0,-3.415,-3.2748,0.0,0.0,0.0,0.0,0.0,0.0,-3.0406,0.0,0.0,0.0,0.0,0.0,0.0,0.0,0.0,0.0,0.0,0.0,0.0,0.0,0.0,0.0,0.0,0.0,0.0,0.0,0.0,0.0,0.0,0.0,0.0,0.0,0.0,0.0,-2.5885,-2.5885,-2.6068,-2.6691,-2.7023,-2.6923,-2.7184,-2.7345,-2.7345,-2.763,-2.7869,-2.8084,-2.843,-2.8743,-2.8994,-2.8975,-2.8952,-2.8975,-2.9188,-2.9358,-2.9514,-2.9965,-3.0157,-3.0161,-3.0128,-3.0128,-3.0128,-3.0128,-3.0128,-3.0113,0.0,0.0,0.0,0.0,0.0,-3.4998,-3.533,-3.5442,-3.5717,0.0,0.0,0.0,-3.9884,-4.039,-4.0577,-4.0302,-4.0267,-4.0196,-4.0036,-4.0015,-3.9925,-3.9681,-3.9166,-3.8365,-3.7288,-3.5914,-3.445,-3.2864,-3.2583,-3.222,-3.1772,-3.2821,-3.3509,-3.3857,-3.3907,-3.3926,-3.3935,0.0,0.0,0.0,-3.3192,0.0,0.0,-3.3269,-3.3269,0.0,0.0,0.0,-3.5172,-3.5639,-3.494,0.0,0.0,0.0,0.0,0.0,0.0,-3.053,-3.051,-3.0394,0.0,0.0,0.0,0.0,-3.0132,-2.9283,0.0,0.0,0.0,0.0,0.0,0.0,0.0,0.0,0.0,0.0,0.0,0.0,0.0,0.0,0.0,0.0,0.0,0.0,0.0,0.0,-2.6101,-2.6137,-2.6314,-2.6759,-2.6942,-2.6825,-2.7087,-2.7233,-2.7233,-2.7434,-2.7713,-2.8102,-2.8255,-2.8576,-2.897,-2.8881,-2.8858,-2.8881,-2.9012,-2.9129,-2.9258,-2.9607,-2.9905,-3.0102,-3.0072,-3.0072,-3.0038,-3.001,-2.9975,-2.9959,0.0,0.0,-3.4563,-3.4584,-3.472,-3.4913,-3.5071,-3.5277,-3.5488,0.0,-3.7254,-3.8922,-4.0392,-4.0525,-4.0377,-4.0062,-4.0022,-3.996,-3.9804,-3.975,-3.9418,-3.8763,-3.8531,-3.7813,-3.6512,-3.5391,-3.4165,-3.279,-3.193,-3.1532,-3.1557,-3.1714,-3.2201,-3.2935,0.0,0.0,-3.2996,0.0,0.0,-3.4068,-3.2635,-3.2566,0.0,0.0,-3.3479,-3.3673,-3.5166,-3.5737,-3.5765,-3.5579,-3.5118,0.0,0.0,0.0,0.0,0.0,-3.0727,-3.0593,-3.0521,-3.051,-3.0479,0.0,0.0,0.0,-2.9809,-2.8723,-2.7915,0.0,0.0,0.0,0.0,0.0,0.0,0.0,0.0,0.0,0.0,0.0,0.0,0.0,0.0,0.0,0.0,0.0,-2.6691,-2.6383,-2.6486,-2.6572,-2.6572,-2.6606,-2.6742,-2.6975,-2.7038,-2.7103,-2.7103,-2.7201,-2.7539,-2.8075,-2.801,-2.8308,-2.8881,-2.881,-2.8785,-2.8785,-2.8897,-2.8948,-2.8975,-2.9169,-2.9551,-3.0041,-2.9975,-2.994,-2.9959,-2.9842,-2.979,-2.9773,-3.4761,-3.4498,-3.4315,-3.441,-3.4526,-3.4699,-3.5051,-3.5355,-3.5588,-3.5689,-3.7178,-3.8603,-3.9546,-4.0108,-4.0192,-3.9645,-3.9618,-3.9481,-3.9197,-3.8727,-3.8442,-3.8411,-3.7291,-3.6538,-3.6255,-3.4182,-3.2956,-3.2641,-3.1202,-3.0522,-3.0585,-3.1357,-3.1804,-3.1981,-3.2034,0.0,0.0,0.0,0.0,-3.2434,-3.2792,0.0,-3.4329,-3.4962,-3.5204,-3.5262,-3.5573,-3.5737,-3.5579,-3.4237,-3.4155,-3.4281,0.0,0.0,0.0,0.0,0.0,0.0,0.0,0.0,0.0,0.0,0.0,0.0,-3.0544,-2.8686,-2.7218,0.0,0.0,0.0,0.0,0.0,0.0,0.0,0.0,0.0,0.0,0.0,0.0,0.0,0.0,0.0,0.0,0.0,-2.621,-2.6175,-2.6279,-2.6365,-2.6435,-2.6759,-2.6909,-2.6926,-2.7055,-2.707,-2.7007,-2.712,-2.7413,-2.7954,-2.7926,-2.8246,-2.881,-2.8761,-2.8687,-2.8637,-2.8619,-2.8658,-2.8772,-2.8795,-2.9129,-2.9626,-2.9608,-2.9645,-2.9756,-2.9719,-2.9719,-2.9701,-3.468,-3.4426,-3.4235,-3.4199,-3.4375,-3.4617,-3.4857,-3.5249,-3.5546,-3.5687,-3.6811,-3.8018,-3.9129,-3.945,-3.9546,-3.9377,-3.9364,-3.9066,-3.8405,-3.8061,-3.7553,-3.6733,-3.6058,-3.5574,-3.5313,-3.3355,-3.2425,-3.2597,-3.0987,-3.0228,-3.0318,-3.0777,-3.0982,-3.097,-3.106,-3.1064,0.0,0.0,-3.1671,-3.2493,-3.2503,0.0,-3.3944,-3.4749,-3.5049,-3.5107,-3.5533,-3.5728,-3.5563,-3.4323,-3.4208,0.0,0.0,-3.2397,-3.2034,0.0,-3.1358,-3.0658,0.0,0.0,0.0,-3.0472,0.0,0.0,0.0,-2.8465,-2.7056,0.0,0.0,0.0,0.0,0.0,0.0,0.0,0.0,0.0,0.0,0.0,0.0,0.0,0.0,0.0,0.0,0.0,-2.6401,-2.6401,-2.6453,-2.6521,-2.6556,-2.6742,-2.6825,-2.6792,-2.6925,-2.6975,-2.6959,-2.7184,-2.7491,-2.7897,-2.8,-2.8264,-2.8687,-2.8612,-2.8536,-2.8484,-2.8458,-2.8492,-2.8558,-2.8558,-2.8755,-2.9075,-2.923,-2.9334,-2.9394,-2.9453,-2.9453,-2.9453,-3.4761,-3.4544,-3.4353,-3.4167,-3.4416,-3.468,-3.4721,-3.5149,-3.5508,-3.5697,-3.6424,-3.7362,-3.844,-3.8473,-3.8414,-3.8507,-3.847,-3.8079,-3.725,-3.7095,-3.6435,-3.5108,-3.5014,-3.4779,-3.4394,-3.2891,-3.2241,-3.2549,-3.0977,-3.0221,-3.0279,-3.0299,-3.0267,-3.0209,-3.0316,-3.0405,0.0,0.0,0.0,-3.3054,0.0,-3.2745,-3.3529,-3.4351,-3.4543,-3.4505,-3.5386,-3.5706,-3.5572,-3.4768,0.0,-3.4671,-3.3626,-3.2851,0.0,0.0,0.0,0.0,0.0,0.0,0.0,0.0,0.0,-3.0032,0.0,0.0,0.0,0.0,0.0,0.0,0.0,0.0,0.0,0.0,0.0,0.0,0.0,0.0,0.0,0.0,0.0,0.0,0.0,0.0,-2.6708,-2.6691,-2.6708,-2.6708,-2.6691,-2.6691,-2.6691,-2.6691,-2.6842,-2.6893,-2.6842,-2.7261,-2.7582,-2.784,-2.8073,-2.8309,-2.8562,-2.845,-2.838,-2.838,-2.838,-2.8353,-2.8371,-2.8371,-2.8424,-2.8562,-2.8874,-2.9016,-2.906,-2.9101,-2.9123,-2.9123,-3.5154,-3.4916,-3.4718,-3.4634,-3.4761,-3.4866,-3.4868,-3.529,-3.5627,-3.5777,-3.6333,-3.6695,0.0,0.0,0.0,0.0,0.0,0.0,-3.5397,0.0,-3.4691,-3.4887,-3.4428,-3.4191,-3.4316,-3.2868,-3.2203,-3.2408,-3.0933,-3.0213,-3.0221,-3.0279,-3.0286,-3.0273,-3.0177,0.0,0.0,0.0,-3.2134,0.0,-3.3837,-3.4177,0.0,-3.5212,-3.5065,-3.4515,-3.5387,-3.5707,-3.5582,0.0,-3.5055,-3.5474,0.0,-3.3281,-3.3093,0.0,0.0,0.0,0.0,0.0,0.0,0.0,-3.0424,0.0,0.0,0.0,0.0,0.0,0.0,0.0,0.0,0.0,0.0,0.0,0.0,0.0,0.0,0.0,0.0,0.0,0.0,0.0,0.0,0.0,0.0,-2.6691,-2.6657,-2.6623,-2.6691,-2.6691,-2.6691,-2.6691,-2.6842,-2.6842,-2.6742,-2.7115,-2.7444,-2.7624,-2.7915,-2.8156,-2.8406,-2.8424,-2.8353,-2.83,-2.83,-2.8291,-2.8209,-2.8209,-2.8237,-2.8264,-2.8562,-2.8743,-2.8845,-2.8845,-2.8845,-2.8821,-3.52,-3.4959,-3.4755,-3.4605,-3.4734,-3.484,-3.484,-3.5345,-3.5734,-3.5781,-3.5892,0.0,0.0,0.0,0.0,0.0,0.0,-3.4918,0.0,0.0,-3.3956,-3.3761,-3.3779,-3.3868,-3.3943,-3.2698,-3.2144,-3.2336,-3.0855,-3.0142,-3.0133,-3.0253,-3.0266,-3.0194,-3.0643,0.0,-3.159,0.0,-3.2948,0.0,0.0,0.0,0.0,-3.5192,-3.5463,-3.5203,-3.557,-3.5697,-3.5649,0.0,-3.5154,0.0,0.0,0.0,0.0,0.0,0.0,0.0,0.0,0.0,0.0,0.0,0.0,0.0,-2.9109,0.0,-2.6359,0.0,0.0,0.0,0.0,0.0,0.0,0.0,0.0,0.0,0.0,0.0,0.0,0.0,0.0,0.0,0.0,0.0,0.0,0.0,0.0,-2.5983,-2.6065,-2.6471,-2.6691,-2.6691,-2.6742,-2.6742,-2.6691,-2.721,-2.7504,-2.7595,-2.7989,-2.8228,-2.8327,-2.8219,-2.8136,-2.8109,-2.8007,-2.795,-2.7922,-2.7922,-2.7922,-2.7922,-2.8045,-2.8183,-2.8335,-2.8326,-2.8352,-2.8334,-3.529,-3.5136,-3.4984,-3.4794,-3.4867,-3.4966,-3.5009,-3.5457,0.0,0.0,0.0,0.0,-3.5718,-3.5044,0.0,0.0,-3.4023,-3.3528,0.0,0.0,-3.3053,0.0,0.0,0.0,0.0,-3.2562,-3.2103,-3.2298,-3.0793,-3.0068,-3.0094,-3.0213,-3.0226,-3.019,0.0,-3.1327,-3.1881,0.0,-3.3626,-3.374,-3.4392,-3.4328,-3.3924,-3.4949,-3.5482,-3.5697,-3.5695,-3.5706,-3.5707,-3.5707,-3.5318,0.0,-3.5327,0.0,0.0,0.0,0.0,0.0,-3.2287,0.0,0.0,0.0,0.0,0.0,0.0,0.0,0.0,0.0,0.0,0.0,0.0,0.0,0.0,0.0,0.0,0.0,0.0,0.0,0.0,0.0,0.0,0.0,0.0,0.0,0.0,0.0,-2.5176,0.0,-2.5592,-2.6083,-2.6455,-2.6674,-2.6674,-2.6708,-2.6791,-2.7321,-2.7612,-2.7672,-2.8091,-2.83,-2.8291,-2.8081,-2.8014,-2.7986,-2.7806,-2.7701,-2.7701,-2.7701,-2.7701,-2.7701,-2.7672,-2.7719,-2.7853,-2.7904,-2.7915,-2.7926,-3.5534,-3.5623,0.0,0.0,0.0,0.0,0.0,0.0,0.0,0.0,0.0,0.0,0.0,0.0,0.0,0.0,0.0,-3.0418,-3.041,0.0,-3.164,0.0,0.0,-3.3382,0.0,0.0,-3.2103,-3.2298,-3.0688,-2.9972,-3.0102,-3.0176,-3.0245,-3.0279,-3.0194,-3.1148,-3.284,-3.2779,-3.378,-3.5438,-3.5519,-3.5585,-3.553,0.0,-3.4969,-3.5704,-3.5704,0.0,0.0,-3.5707,-3.5735,0.0,0.0,0.0,0.0,0.0,0.0,0.0,0.0,0.0,0.0,-3.2093,0.0,0.0,0.0,0.0,-2.6058,0.0,0.0,0.0,0.0,0.0,-2.4284,-2.4209,0.0,0.0,0.0,0.0,0.0,0.0,0.0,0.0,0.0,0.0,0.0,-2.4324,-2.4275,0.0,-2.5542,-2.5578,-2.5866,-2.6589,-2.6606,-2.6725,-2.7006,-2.74,-2.7672,-2.7789,-2.8146,-2.8291,-2.8182,-2.8071,-2.8014,-2.7986,-2.7806,-2.7701,-2.7701,-2.7701,-2.7701,-2.7701,-2.7539,-2.7465,-2.7434,-2.7642,-2.7701,-2.7654,0.0,0.0,0.0,0.0,0.0,0.0,0.0,-3.5778,0.0,0.0,0.0,0.0,0.0,-3.2115,-3.1345,0.0,0.0,-2.9636,-2.988,-3.0261,0.0,0.0,0.0,-3.2937,0.0,0.0,-3.1899,-3.1963,-3.0581,-2.9905,-2.9972,-3.0123,-3.024,-3.0318,0.0,-3.1637,0.0,0.0,0.0,0.0,0.0,-3.4475,-3.4079,0.0,0.0,-3.5698,-3.5695,-3.5697,0.0,-3.5698,-3.5718,-3.5678,-3.5396,-3.4964,-3.4537,-3.4248,-3.3397,0.0,0.0,0.0,-3.2098,-3.2092,0.0,0.0,0.0,0.0,0.0,0.0,0.0,0.0,0.0,0.0,-2.441,-2.4284,-2.4133,-2.3876,0.0,0.0,0.0,0.0,0.0,0.0,0.0,0.0,0.0,-2.3379,-2.3412,-2.3792,0.0,-2.537,-2.6077,-2.6825,-2.6842,-2.7006,-2.7341,-2.7382,-2.7535,-2.7818,-2.8109,-2.8182,-2.8071,-2.7864,-2.7748,-2.7647,-2.7496,-2.7452,-2.7452,-2.7452,-2.7452,-2.7421,-2.7293,-2.723,-2.7198,-2.7276,-2.7276,-2.7198,-3.4277,0.0,0.0,0.0,0.0,0.0,0.0,0.0,0.0,0.0,-3.3811,0.0,-3.214,0.0,-3.0463,0.0,-2.9143,-2.8871,-2.9358,-2.974,0.0,-3.0948,-3.1882,0.0,0.0,0.0,0.0,-3.1753,-3.049,-2.9907,-2.9972,-3.009,-3.0207,-3.0331,0.0,-3.1511,-3.2513,0.0,-3.3819,0.0,0.0,-3.403,0.0,0.0,-3.5241,-3.5291,0.0,-3.5697,-3.5708,-3.5707,-3.5697,-3.5649,-3.535,-3.4933,-3.45,-3.4194,-3.3353,-3.2656,-3.3203,-3.2731,0.0,-3.2094,-3.0791,0.0,-2.8688,0.0,0.0,0.0,0.0,0.0,0.0,0.0,-2.4476,-2.4356,-2.4115,-2.3774,0.0,-2.2582,0.0,0.0,0.0,0.0,0.0,0.0,-2.1919,-2.2521,-2.2585,-2.3048,0.0,0.0,-2.59,-2.6906,-2.7053,-2.7276,-2.7569,-2.7504,-2.7624,-2.795,-2.8126,-2.8126,-2.7996,-2.7806,-2.763,-2.7496,-2.7327,-2.7233,-2.7233,-2.7218,-2.7186,-2.7186,-2.7087,-2.7055,-2.7023,-2.7055,-2.7023,-2.6942,0.0,0.0,0.0,0.0,-3.5796,0.0,0.0,0.0,-3.4557,0.0,-3.3049,-3.2183,-3.195,-3.0453,-2.9436,-2.9297,-2.8449,0.0,-2.8811,-2.9329,0.0,0.0,-3.1274,-3.1952,-3.1987,0.0,0.0,0.0,-3.0396,-2.9893,-3.0087,-3.0113,-3.0166,-3.0292,-3.0311,0.0,-3.1756,-3.2526,-3.3346,-3.4192,-3.4322,-3.4367,-3.4389,-3.4389,0.0,-3.4457,-3.5375,-3.5667,-3.5649,-3.5637,-3.5609,-3.5426,-3.4592,-3.439,-3.4272,-3.3439,-3.3229,-3.3236,-3.3233,-3.2591,-3.1953,-3.201,0.0,0.0,0.0,0.0,-2.7909,0.0,0.0,0.0,0.0,0.0,0.0,-2.4424,-2.3983,-2.3477,0.0,0.0,0.0,0.0,0.0,0.0,0.0,-2.1386,-2.1509,-2.1768,-2.1781,-2.2471,0.0,0.0,0.0,-2.669,-2.7098,-2.7396,-2.7654,-2.773,-2.7893,-2.8182,-2.8182,-2.8099,-2.7986,-2.7806,-2.7612,-2.7465,-2.723,-2.7103,-2.7103,-2.704,-2.7007,-2.7007,-2.6992,-2.6942,-2.6893,-2.6942,-2.6942,-2.6842,-3.3596,-3.4555,-3.5308,0.0,-3.5753,-3.5667,0.0,0.0,0.0,0.0,-3.2322,-3.1478,-3.0727,-2.9751,-2.9116,-2.9134,-2.8384,0.0,0.0,0.0,0.0,-2.9422,-3.0385,-3.1142,-3.1752,-3.0938,0.0,-3.1397,0.0,0.0,-2.9956,-3.0094,-3.0213,-3.0292,0.0,0.0,-3.1718,-3.1929,-3.2808,-3.4126,-3.4936,-3.4832,0.0,0.0,-3.4013,-3.3635,-3.5154,-3.528,-3.4739,-3.4728,-3.4292,-3.3731,-3.3499,-3.3479,-3.3502,-3.3264,-3.2781,-3.2349,-3.2393,-3.1776,-3.1113,-3.1124,-3.0355,-2.9559,0.0,0.0,0.0,0.0,0.0,0.0,0.0,0.0,0.0,-2.4551,-2.3764,-2.3069,0.0,0.0,0.0,0.0,0.0,0.0,0.0,-2.1481,-2.1573,-2.165,-2.1694,-2.2181,0.0,0.0,0.0,-2.5893,-2.6519,-2.7004,-2.7338,-2.71,-2.7258,-2.7836,-2.7836,-2.7806,-2.776,-2.773,-2.7569,-2.7345,-2.7166,-2.7103,-2.7103,-2.704,-2.7007,-2.6992,-2.6959,-2.6825,-2.6742,-2.6775,-2.6691,-2.6589,-3.3334,0.0,0.0,-3.5345,0.0,0.0,-3.4924,0.0,0.0,-3.2491,-3.176,0.0,-3.051,-2.9512,-2.8996,-2.9303,-2.8255,0.0,-2.8415,0.0,0.0,-2.9629,-3.0133,-3.0818,-3.1768,-3.097,0.0,-3.1217,0.0,0.0,-2.9988,-3.0128,-3.0245,-3.0292,0.0,-3.0618,0.0,-3.1946,-3.2781,-3.3654,-3.4264,0.0,0.0,-3.3372,-3.32,-3.3277,-3.4216,-3.4245,-3.3829,-3.3829,-3.3509,-3.3045,-3.2696,-3.2598,-3.2559,-3.2178,-3.1754,-3.1445,-3.1474,-3.1145,-3.0801,-3.0797,-3.0456,-3.0111,-3.0087,-2.9608,-2.9188,0.0,0.0,0.0,0.0,0.0,0.0,0.0,0.0,0.0,0.0,0.0,0.0,0.0,0.0,0.0,0.0,-2.1481,-2.1589,-2.1589,-2.1634,0.0,0.0,0.0,0.0,-2.5556,-2.6094,-2.6304,-2.6243,-2.6629,-2.6897,-2.7016,-2.727,-2.7365,-2.7321,-2.7382,-2.7213,-2.6775,-2.6791,-2.6791,-2.6725,-2.6657,-2.6708,-2.6859,-2.6809,-2.6742,-2.6657,-2.6623,-2.6572,-2.6554,0.0,0.0,0.0,0.0,0.0,0.0,0.0,-3.361,0.0,-3.1934,0.0,-3.0858,-3.0675,-2.9556,-2.9012,-2.9617,0.0,-2.786,-2.8936,-2.8701,-2.9027,-3.0149,-3.0241,-3.0781,-3.1858,-3.1133,0.0,0.0,0.0,0.0,-3.0087,-3.0176,-3.0226,0.0,0.0,0.0,0.0,-3.2193,-3.291,0.0,-3.3081,-3.3093,-3.2987,-3.2135,-3.2319,-3.3014,-3.2841,-3.2851,-3.2938,-3.2938,-3.2861,-3.2648,-3.1951,-3.1736,-3.1579,-3.0823,-3.0651,-3.0689,-3.0716,-3.0755,-3.08,-3.08,-3.0792,-3.0807,-3.0784,-3.0691,-3.0605,-3.0656,-2.9832,0.0,0.0,0.0,0.0,0.0,0.0,0.0,0.0,0.0,0.0,0.0,0.0,0.0,0.0,0.0,0.0,-2.1573,0.0,0.0,0.0,0.0,0.0,0.0,-2.5612,0.0,-2.4986,0.0,-2.6612,-2.6169,-2.6661,-2.6872,-2.6791,-2.6939,-2.6657,-2.6104,-2.6262,-2.6279,-2.6208,-2.6068,-2.6245,-2.659,-2.6486,-2.6452,-2.6503,-2.6434,-2.6399,-2.6382,0.0,0.0,0.0,0.0,0.0,-3.3104,-3.2391,-3.2282,-3.2049,-3.1416,-3.0807,-3.0444,-3.0518,-2.9705,-2.9409,-2.9897,-2.912,0.0,0.0,0.0,0.0,-2.9783,-3.0208,-3.0902,-3.1858,-3.0934,-3.0587,0.0,0.0,0.0,-2.994,-3.0113,0.0,0.0,0.0,0.0,-3.1484,-3.1804,0.0,-3.2859,-3.3026,-3.3018,-3.286,-3.2145,-3.1986,-3.205,-3.1367,-3.1546,-3.2113,-3.2113,-3.1629,-3.1009,-3.0873,-3.0834,-3.0804,-3.0704,-3.0691,-3.0716,-3.0762,-3.0793,-3.08,-3.0794,-3.0794,-3.0798,-3.0722,-3.0658,-3.0587,-3.0549,-3.0221,-2.9723,-2.894,0.0,0.0,0.0,0.0,0.0,0.0,0.0,0.0,0.0,0.0,0.0,0.0,0.0,0.0,0.0,0.0,0.0,0.0,0.0,0.0,0.0,0.0,0.0,0.0,0.0,0.0,-2.6354,-2.6437,-2.6573,-2.6725,-2.6522,-2.63,-2.6104,-2.5905,-2.5811,-2.5795,-2.5668,-2.5815,-2.6082,-2.5721,-2.5758,-2.5941,-2.5941,-2.5668,-2.5313,0.0,0.0,0.0,0.0,0.0,0.0,0.0,-3.0617,0.0,-3.0694,-3.0583,-3.0551,-3.074,-2.9984,-2.9589,-2.9984,-2.9044,-2.851,-2.8653,-2.9104,-2.9613,-3.0143,-3.0543,0.0,-3.202,-3.144,-3.1042,-3.0912,0.0,0.0,-2.9805,-3.0064,0.0,-3.0247,0.0,-3.0516,0.0,0.0,0.0,-3.2121,-3.2237,-3.2297,-3.2237,-3.1458,-3.1222,-3.1239,-3.0831,-3.094,-3.1282,-3.1274,-3.0995,-3.0645,-3.0645,-3.0653,-3.0649,-3.0698,-3.0716,-3.0746,-3.0759,-3.0779,-3.0796,-3.0769,-3.0755,-3.072,-3.0665,-3.0622,-3.0565,-3.043,-3.0248,-2.977,-2.8742,-2.7711,0.0,0.0,0.0,0.0,0.0,0.0,0.0,0.0,0.0,0.0,0.0,0.0,0.0,0.0,0.0,0.0,0.0,0.0,0.0,0.0,0.0,0.0,0.0,0.0,0.0,-2.5027,-2.5686,-2.6013,-2.6013,-2.6016,-2.5746,-2.5329,-2.5384,-2.5346,-2.5291,-2.5406,-2.5519,-2.5663,-2.5329,-2.5275,-2.5389,-2.5368,-2.516,-2.5005,0.0,-3.2755,0.0,0.0,-3.1179,0.0,-3.0162,-2.9281,-2.8919,-2.9908,-3.0327,-3.0534,-3.0658,-3.0011,-2.9617,-2.975,-2.8732,-2.8284,-2.8826,-2.9088,-2.9641,-3.0526,-3.0908,-3.1449,-3.2179,-3.202,-3.1616,0.0,0.0,0.0,0.0,-3.011,0.0,0.0,0.0,0.0,0.0,0.0,-3.1264,-3.1494,-3.1328,-3.138,-3.1449,-3.0782,-3.0602,-3.0711,-3.069,-3.0704,-3.0724,-3.073,-3.0717,-3.0703,-3.0703,-3.0698,-3.0695,-3.0696,-3.0738,-3.0779,-3.0715,-3.0746,-3.076,-3.0691,-3.0678,-3.0665,-3.0587,-3.0574,-3.054,-3.0352,-3.0169,-2.9741,-2.8745,-2.839,0.0,0.0,0.0,0.0,0.0,0.0,0.0,0.0,0.0,0.0,0.0,0.0,0.0,0.0,0.0,0.0,0.0,0.0,0.0,0.0,0.0,0.0,-2.2948,0.0,-2.5089,0.0,-2.509,-2.553,-2.5301,-2.54,-2.5169,-2.463,-2.4815,-2.4895,-2.4784,-2.5036,-2.5192,-2.5192,-2.4887,-2.4808,-2.4847,-2.4744,-2.4664,-2.4704,0.0,0.0,0.0,0.0,0.0,0.0,0.0,-2.895,-2.8494,-2.912,-2.9601,-2.9821,-2.9585,-2.9451,-2.9332,-2.9044,-2.8605,-2.8444,-2.8621,-2.9601,-3.0234,-3.041,-3.1145,-3.1765,-3.2179,-3.202,-3.1861,0.0,0.0,0.0,0.0,0.0,0.0,0.0,0.0,0.0,0.0,-3.05,-3.0724,-3.1437,-3.0852,-3.0598,-3.0626,-3.0668,-3.0678,-3.07,-3.07,-3.0745,-3.079,-3.079,-3.075,-3.07,-3.07,-3.0696,-3.0694,-3.0696,-3.0702,-3.0713,-3.0707,-3.0691,-3.0691,-3.0642,-3.0618,-3.0593,-3.052,-3.05,-3.0469,-3.0328,-3.0234,-3.0011,-2.9494,-2.903,-2.8291,0.0,0.0,0.0,0.0,0.0,0.0,0.0,0.0,0.0,0.0,0.0,0.0,0.0,0.0,0.0,0.0,0.0,0.0,-2.2719,0.0,-2.3047,-2.3519,-2.4384,0.0,-2.5125,-2.5269,-2.524,-2.5045,-2.4791,-2.467,-2.4589,-2.4426,-2.4385,-2.4343,-2.4317,-2.4441,-2.4614,-2.412,-2.4078,-2.4343,-2.4245,-2.3979,-2.3767,0.0,0.0,0.0,0.0,0.0,0.0,0.0,-2.8463,-2.8271,-2.8904,-2.9303,-2.9556,-2.9512,-2.9393,-2.9182,-2.8795,-2.8446,-2.8348,-2.8493,-2.9287,-2.9935,-3.0318,-3.1027,-3.1654,-3.2108,-3.2108,-3.1983,0.0,0.0,0.0,0.0,0.0,0.0,0.0,0.0,-3.029,-3.0661,-3.0256,-3.0355,-3.0753,-3.0487,-3.0462,-3.0568,-3.061,-3.0697,-3.0759,-3.0759,-3.0774,-3.0807,-3.0807,-3.0778,-3.0759,-3.0759,-3.0762,-3.0762,-3.0756,-3.0721,-3.0696,-3.0691,-3.0665,-3.0626,-3.0568,-3.054,-3.052,-3.0466,-3.0436,-3.0383,-3.0161,-3.0064,-2.994,-2.9681,-2.9487,-2.898,0.0,0.0,0.0,0.0,0.0,0.0,0.0,0.0,0.0,0.0,0.0,-2.1247,0.0,0.0,0.0,0.0,0.0,0.0,-2.3244,0.0,-2.3365,-2.4235,-2.4297,-2.4441,-2.4654,-2.4971,-2.5005,-2.4751,-2.463,-2.4549,-2.4426,-2.4343,-2.4276,-2.425,-2.4109,-2.4109,-2.4078,-2.3782,-2.3782,-2.3867,-2.3809,-2.3724,-2.361,-2.7962,0.0,-2.879,0.0,-2.8227,-2.8273,-2.8171,-2.791,-2.7978,-2.8716,-2.9074,-2.9332,-2.9528,-2.9364,-2.909,-2.8701,-2.835,-2.8201,-2.8411,-2.9028,-2.9585,-3.0081,-3.0885,0.0,-3.1912,-3.2108,-3.2158,-3.2032,-3.16,0.0,0.0,0.0,0.0,0.0,-2.9931,-2.9996,-3.0099,-3.0022,-3.008,-3.0235,-3.0285,-3.0414,-3.06,-3.062,-3.0701,-3.0794,-3.0796,-3.0804,-3.0831,-3.0831,-3.0792,-3.0772,-3.0782,-3.079,-3.0761,-3.076,-3.0696,-3.0614,-3.0613,-3.0585,-3.052,-3.0428,-3.0436,-3.0425,-3.0362,-3.0336,-3.0279,-3.0079,-2.9991,-2.9907,-2.9805,-2.9806,-2.9455,0.0,0.0,0.0,0.0,0.0,0.0,0.0,-2.4431,-2.4765,-2.4506,0.0,0.0,0.0,0.0,0.0,0.0,0.0,0.0,0.0,0.0,0.0,0.0,-2.3903,-2.3925,-2.43,-2.4689,-2.4751,-2.4508,-2.4508,-2.4426,-2.4302,-2.4302,-2.4276,-2.4181,-2.4082,-2.3925,-2.3797,-2.3653,-2.3595,-2.3595,-2.3566,-2.3566,-2.3566,-2.673,-2.6834,-2.6938,-2.6901,-2.6811,-2.6916,-2.7414,-2.7458,-2.7675,-2.8431,-2.8764,-2.9028,-2.9377,-2.9196,-2.8935,-2.8559,-2.8186,-2.8118,-2.8396,-2.9028,-2.9467,0.0,0.0,-3.1317,-3.1397,-3.193,-3.2422,-3.2898,0.0,0.0,-3.1463,0.0,-2.9732,-2.9608,-2.9754,-2.9737,-2.9607,-2.9682,-2.9872,-3.0104,-3.0253,-3.0414,-3.06,-3.0661,-3.0746,-3.0797,-3.0799,-3.084,-3.0895,-3.0895,-3.0806,-3.0713,-3.0781,-3.0743,-3.0709,-3.0703,-3.0565,-3.039,-3.041,-3.041,-3.0367,-3.0241,-3.0248,-3.0279,-3.0213,-3.0185,-3.0185,-3.0109,-3.0094,-3.0079,-3.0022,-2.9943,-2.9561,-2.8465,0.0,0.0,0.0,0.0,0.0,0.0,-2.4092,-2.4503,-2.4506,0.0,0.0,0.0,0.0,0.0,0.0,0.0,0.0,-2.1906,-2.1223,0.0,-2.2916,-2.2932,-2.3463,-2.4574,-2.4589,-2.4508,-2.4302,-2.4302,-2.4302,-2.4302,-2.4302,-2.4276,-2.4181,-2.4082,-2.3925,-2.3797,-2.3653,-2.3595,-2.361,-2.3538,-2.3509,-2.3466,-2.5522,-2.592,-2.6204,-2.6204,-2.6549,-2.6967,-2.7297,-2.7414,-2.773,-2.8415,-2.8511,-2.8638,-2.9028,-2.8935,-2.8559,0.0,-2.789,-2.8069,0.0,-2.8605,-2.9044,-2.9467,-3.0081,-3.0625,-3.1123,-3.1524,-3.1875,-3.2214,0.0,0.0,0.0,-2.9339,-2.9323,-2.9324,-2.9661,-2.9867,-3.0022,-3.0032,-3.0136,-3.0316,-3.0453,-3.0564,-3.0675,-3.0746,-3.0814,-3.0859,-3.0814,-3.0804,-3.083,-3.073,-3.067,-3.0626,-3.0549,-3.0542,-3.0549,-3.0501,-3.0424,-3.0337,-3.0337,-3.0304,-3.0253,-3.0213,-3.0226,-3.0213,-3.0147,-3.0068,-3.0019,-3.0083,-2.9991,-2.9891,-2.9876,-2.97,-2.9212,-2.8135,0.0,0.0,0.0,0.0,0.0,0.0,0.0,-2.5,0.0,-2.4082,0.0,0.0,0.0,0.0,0.0,0.0,0.0,0.0,-2.278,0.0,-2.4341,-2.3561,-2.3662,-2.4589,-2.4467,-2.4343,-2.4302,-2.4302,-2.4302,-2.4317,-2.4234,-2.4166,-2.4024,-2.3925,-2.3782,-2.3653,-2.3595,-2.3595,-2.361,-2.3566,-2.3566,-2.3538,-2.4536,-2.5061,-2.5508,-2.5508,-2.5974,-2.6457,-2.6602,-2.6797,-2.7159,-2.7815,-2.775,-2.7815,-2.8286,-2.8207,0.0,-2.7675,-2.779,-2.7905,-2.8054,-2.8381,-2.8779,-2.9196,-2.9766,-3.0284,-3.0723,0.0,0.0,-3.1497,-3.0314,-2.9447,-2.8964,-2.8998,-2.9138,-2.9342,-2.968,-2.9883,-3.0052,-3.0125,-3.0251,-3.0423,-3.0521,-3.0623,-3.0699,-3.0759,-3.0776,-3.0785,-3.0739,-3.0691,-3.0639,-3.049,-3.0423,-3.0375,-3.019,-3.016,-3.0186,-3.0318,-3.0252,-3.0119,-3.0209,-3.0142,-3.0064,-3.0079,-3.0128,-3.0132,-3.0007,-2.991,-2.9859,-2.9926,-2.979,-2.9645,-2.9645,-2.9395,-2.9,-2.8309,0.0,-2.7629,0.0,0.0,0.0,0.0,0.0,0.0,0.0,-2.473,0.0,0.0,0.0,0.0,0.0,0.0,0.0,-2.3286,-2.3072,0.0,-2.4374,-2.3677,-2.3721,-2.4467,-2.4343,-2.4276,-2.4276,-2.4317,-2.4276,-2.4276,-2.4208,-2.4082,-2.3925,-2.3839,-2.3739,-2.3595,-2.3595,-2.3595,-2.3595,-2.3595,-2.3551,-2.3538,-2.378,-2.4376,0.0,0.0,-2.5145,0.0,-2.5494,-2.5688,-2.6096,-2.6797,-2.6654,-2.6736,-2.7335,-2.7203,-2.7327,-2.7978,0.0,0.0,0.0,-2.8429,-2.8653,-2.8904,-2.9694,0.0,-3.0335,-3.1033,-3.1173,-3.0664,-2.9576,-2.9301,-2.9762,-2.9167,-2.9148,-2.9569,-2.9755,-2.9823,-2.9839,-3.0032,-3.0221,-3.0412,-3.0484,-3.0573,-3.0698,-3.0697,-3.0654,-3.0586,-3.0576,-3.0479,-3.0346,-3.0205,-3.0119,-3.0032,-2.9782,-2.9639,-2.968,-3.0125,-3.0028,-2.982,-3.0007,-2.9921,-2.9784,-2.9855,-2.9956,-2.9991,-2.9789,-2.9701,-2.9645,-2.9664,-2.9492,-2.9372,-2.9372,-2.9082,-2.8842,-2.886,-2.8298,-2.7632,-2.697,0.0,0.0,0.0,0.0,0.0,0.0,-2.5092,-2.4726,0.0,0.0,0.0,0.0,0.0,-2.2424,-2.2424,-2.2424,-2.2732,-2.3323,-2.3363,-2.3646,-2.4261,-2.4261,-2.4234,-2.4181,-2.4234,-2.4234,-2.4181,-2.4166,-2.4024,-2.3797,-2.3797,-2.3696,-2.3595,-2.3595,-2.361,-2.3595,-2.3595,-2.3538,-2.3466,0.0,0.0,-2.4677,-2.4677,-2.4734,-2.4905,-2.5244,-2.5342,-2.566,-2.651,-2.6443,-2.6654,-2.7378,-2.71,-2.6893,-2.7041,-2.7393,-2.7675,-2.789,-2.8054,-2.8414,-2.9044,-2.9335,-2.9897,-3.0666,-3.0586,-3.009,-2.9181,-2.8833,-2.8574,-2.8452,-2.8664,-2.8946,-2.9319,-2.9748,-2.9999,-3.0107,-3.0198,-3.0345,-3.0481,-3.0551,-3.0563,-3.054,-3.0607,-3.0523,-3.0352,-3.0306,-3.0182,-2.9997,-2.9798,-2.9739,-2.9691,-2.9588,-2.9532,-2.9551,-2.9662,-2.9626,-2.957,-2.9626,-2.9608,-2.957,-2.9589,-2.9437,-2.9301,-2.9377,-2.9196,-2.9071,-2.9212,-2.9126,-2.902,-2.902,-2.8628,-2.8316,-2.8422,-2.784,-2.717,-2.6615,0.0,0.0,0.0,-2.552,-2.5614,-2.6082,-2.544,-2.4766,0.0,0.0,0.0,0.0,0.0,-2.3733,-2.3733,-2.3733,-2.3769,-2.3823,-2.3823,-2.3899,-2.4067,-2.4067,-2.4067,-2.4024,-2.4067,-2.4067,-2.4024,-2.394,-2.3839,-2.3797,-2.3696,-2.3638,-2.3595,-2.3595,-2.3566,-2.3538,-2.3538,-2.3451,-2.3319,-2.3458,-2.406,-2.4478,-2.4478,-2.4549,-2.4677,-2.4948,-2.5005,-2.5272,-2.5948,-2.6096,-2.6297,-2.6707,-2.6736,-2.6683,-2.6602,-2.7086,-2.7458,-2.7615,-2.8091,-2.8764,-2.9512,-2.9821,-3.0335,-3.1067,-3.0626,-2.992,-2.8928,-2.8504,-2.8401,-2.8567,-2.8815,-2.9163,-2.9568,-2.9931,-3.0157,-3.0254,-3.0375,-3.0471,-3.0543,-3.0586,-3.0562,-3.0507,-3.0515,-3.0394,-3.0243,-3.0113,-2.998,-2.9791,-2.9495,-2.936,-2.9359,-2.9209,-2.9181,-2.9141,-2.8997,-2.9126,-2.9353,-2.9433,-2.9293,-2.9107,-2.9049,-2.8942,-2.8851,-2.8805,-2.88,-2.8753,-2.864,-2.8542,-2.8529,-2.841,-2.8084,-2.7858,-2.7922,-2.7255,-2.6588,-2.6096,-2.6031,0.0,-2.551,-2.5698,-2.5898,-2.6016,-2.5422,-2.4839,-2.4365,0.0,0.0,-2.3216,-2.3504,-2.3692,-2.3692,-2.3956,-2.4082,-2.3982,-2.4082,-2.4024,-2.3925,-2.4024,-2.4024,-2.3925,-2.3982,-2.3855,-2.3581,-2.3754,-2.3653,-2.3377,-2.3551,-2.3566,-2.3566,-2.3566,-2.3494,-2.3407,-2.3407,-2.3363,-2.3275,-2.2372,-2.3327,-2.4047,-2.4105,-2.4247,-2.4363,-2.4536,-2.4721,-2.5005,-2.5425,-2.5743,-2.5948,-2.5988,-2.6365,-2.651,-2.639,-2.6788,-2.7122,-2.744,-2.824,-2.9074,-2.9908,-3.0276,-3.0721,-3.1168,-3.066,-2.9992,-2.9009,-2.8433,-2.8492,-2.9177,-2.9221,-2.9513,-3.0018,-3.0188,-3.0283,-3.0375,-3.0549,-3.0615,-3.0604,-3.0579,-3.0536,-3.0462,-3.0394,-3.0283,-3.0128,-2.9912,-2.9767,-2.9626,-2.9191,-2.906,-2.9016,-2.8773,-2.8718,-2.8651,-2.8298,-2.8535,-2.8934,-2.9126,-2.8865,-2.856,-2.8456,-2.8474,-2.8442,-2.8174,-2.8332,-2.8438,-2.8021,-2.7956,-2.7964,-2.7783,-2.7535,-2.7352,-2.7309,-2.655,-2.5836,-2.5435,0.0,-2.5639,-2.4855,-2.5603,-2.6049,-2.561,-2.5098,-2.4799,-2.4799,-2.3965,0.0,0.0,-2.3498,-2.3178,-2.3071,-2.366,-2.3982,-2.394,-2.4024,-2.3982,-2.3782,-2.394,-2.3882,-2.3653,-2.3797,-2.3523,-2.2979,-2.348,-2.3334,-2.2799,-2.3187,-2.3348,-2.3363,-2.3363,-2.3319,-2.3275,-2.3275,-2.3275,-2.3231,-2.2482,-2.2725,-2.2907,-2.31,-2.3088,-2.3195,-2.3492,-2.4439,-2.5189,-2.5412,-2.5715,-2.6096,-2.6534,-2.6136,-2.5797,-2.5755,-2.6082,-2.663,-2.7494,-2.771,-2.8238,-2.9212,-2.9104,-2.9366,-3.0111,-2.9488,-2.885,-2.8187,-2.8291,-2.8578,-2.9042,-2.9324,-2.9683,-3.0094,-3.0335,-3.0513,-3.0637,-3.0671,-3.0658,-3.0594,-3.0542,-3.0443,-3.0321,-3.026,-3.0109,-2.9918,-2.9588,-2.9359,-2.9169,-2.8915,-2.8858,-2.8791,-2.8412,-2.8316,-2.8298,-2.7911,-2.7901,-2.8002,-2.8102,-2.8075,-2.802,-2.802,-2.7805,-2.7631,-2.7754,-2.7607,-2.7474,-2.7552,-2.76,-2.7569,-2.7539,-2.7051,-2.6602,-2.6442,-2.551,-2.4762,-2.4456,0.0,-2.489,-2.4593,-2.4986,-2.523,-2.502,-2.4639,-2.4385,-2.4317,-2.4158,-2.3799,-2.3219,-2.3531,-2.3417,-2.2858,-2.3492,-2.3782,-2.3653,-2.3696,-2.3653,-2.3638,-2.3246,-2.3068,-2.3024,-2.3068,-2.2785,-2.2267,-2.2785,-2.274,-2.2221,-2.2175,-2.2406,-2.2799,-2.2694,-2.2859,-2.3127,-2.3127,-2.3082,-2.2933,-2.1164,-2.1667,-2.2224,-2.2665,-2.2713,-2.2907,-2.3543,-2.38,-2.4124,-2.4624,-2.4924,-2.5134,-2.5259,-2.555,-2.5494,-2.4937,-2.5161,-2.5605,-2.624,-2.7129,-2.8112,-2.9255,-2.8917,-2.8653,-2.8535,-2.8969,-2.8774,-2.794,-2.8542,-2.9067,-2.9495,-2.9674,-2.9966,-3.0316,-3.0444,-3.058,-3.0696,-3.0703,-3.0648,-3.0552,-3.0477,-3.0282,-3.0028,-2.9962,-2.9817,-2.9607,-2.9319,-2.9151,-2.8975,-2.8565,-2.8404,-2.8299,-2.7908,-2.7776,-2.773,-2.7387,-2.7542,-2.7783,-2.7636,-2.7577,-2.7547,-2.7382,-2.7338,-2.7258,-2.7195,-2.7276,-2.7324,-2.7117,-2.7004,-2.6922,-2.6757,-2.6402,-2.5944,-2.5363,-2.4978,0.0,0.0,-2.4225,-2.4522,-2.3897,-2.453,-2.4879,-2.4599,-2.4302,-2.4151,-2.4223,-2.4124,-2.3903,-2.3443,-2.3673,-2.3646,-2.3245,-2.3531,-2.3566,-2.3246,-2.329,-2.3143,-2.277,-2.2649,-2.2558,-2.2466,-2.2374,-2.2142,-2.1732,-2.2114,-2.2021,-2.1609,-2.1724,-2.1927,-2.2081,-2.2035,-2.2081,-2.2203,-2.2203,-2.231,-2.2463,-1.9901,-2.0602,-2.1353,-2.2113,-2.2027,-2.2212,-2.3125,-2.3075,-2.311,-2.3787,-2.4213,-2.4315,-2.4034,-2.4684,-2.4784,-2.3904,-2.4124,-2.4456,-2.4727,-2.6048,-2.738,-2.8623,-2.8271,-2.7345,-2.5895,-2.7861,-2.8174,-2.6609,-2.8424,-2.9495,-2.9848,-2.9994,-3.0227,-3.049,-3.0511,-3.0574,-3.0676,-3.0662,-3.0564,-3.0414,-3.0295,-3.0048,-2.9744,-2.9607,-2.9456,-2.9279,-2.8983,-2.8847,-2.8706,-2.8139,-2.7908,-2.7783,-2.7396,-2.7224,-2.708,-2.6723,-2.6886,-2.7172,-2.6985,-2.6888,-2.679,-2.6725,-2.6742,-2.6724,-2.647,-2.6741,-2.6906,-2.6505,-2.6298,-2.6142,-2.598,-2.5705,-2.5276,-2.46,0.0,0.0,0.0,-2.3859,-2.4185,-2.3582,-2.4247,-2.4639,-2.4317,-2.4151,-2.4082,-2.4082,-2.4024,-2.3882,-2.3739,-2.3739,-2.3653,-2.3421,-2.3421,-2.3187,-2.2694,-2.2844,-2.2603,-2.2081,-2.2081,-2.2049,-2.1955,-2.1813,-2.1589,-2.1229,-2.1452,-2.1342,-2.0993,-2.1197,-2.1355,-2.1417,-2.1369,-2.1369,-2.1417,-2.1417,-2.167,-2.1969,-1.9375,-1.9562,-2.002,-2.0892,-2.0473,-2.0311,-2.1141,-2.2396,-2.3166,-2.3285,-2.3995,-2.4297,-2.3781,-2.3467,-2.3062,-2.2518,-2.2895,-2.3314,-2.3585,-2.4195,-2.5078,-2.6208,-2.609,-2.4566,-2.1467,-2.5365,-2.5914,-2.2796,-2.7344,-2.9607,-2.9711,-3.0095,-3.0321,-3.0409,-3.0543,-3.0606,-3.06,-3.0552,-3.0395,-3.0198,-2.9874,-2.971,-2.9589,-2.9262,-2.9135,-2.9064,-2.8481,-2.826,-2.8174,-2.7643,-2.7439,-2.7378,-2.6971,-2.6623,-2.6301,-2.5924,-2.5615,-2.547,-2.5799,-2.5635,-2.5486,-2.5957,-2.5795,-2.5556,-2.5577,-2.5577,-2.554,-2.5577,-2.5449,-2.5335,-2.5443,-2.502,-2.4626,-2.4434,0.0,0.0,-2.3759,-2.3592,-2.3597,-2.4164,-2.4313,-2.4317,-2.4208,-2.4166,-2.4082,-2.3839,-2.3839,-2.3739,-2.3595,-2.3595,-2.3421,-2.2979,-2.2934,-2.2694,-2.2175,-2.2175,-2.2128,-2.2081,-2.1684,-2.1458,-2.1458,-2.1458,-2.1131,-2.0612,-2.1042,-2.0845,-2.0283,-2.0182,-2.0422,-2.0845,-2.0709,-2.0993,-2.1417,-2.1417,-2.1417,-2.1465,-1.8307,-1.8452,-1.8844,-1.9617,-1.9465,-1.9585,-2.0482,-2.1043,-2.1608,-2.2127,-2.2311,-2.2372,-2.2372,-2.2065,-2.1631,-2.1078,-2.1267,-2.1393,-2.1506,-2.1459,-2.1614,-2.2021,-2.1612,-2.1199,-2.0803,-2.3192,-2.5029,-2.6161,-2.8681,-2.9975,-3.0085,-3.0312,-3.049,-3.0585,-3.0469,-3.0412,-3.0403,-3.0263,-3.0035,-2.9766,-2.9668,-2.9401,-2.9005,-2.8805,-2.8542,-2.8254,-2.7893,-2.7619,-2.74,-2.7031,-2.6707,-2.6421,-2.6106,-2.5746,-2.5357,-2.4942,-2.4719,-2.4679,-2.4839,-2.5044,-2.5259,-2.5465,-2.5389,-2.5259,-2.5297,-2.5297,-2.5259,-2.5297,-2.5028,-2.4847,-2.4887,-2.4639,-2.4234,-2.3616,0.0,-2.386,-2.3475,-2.3656,-2.3958,-2.4219,-2.4094,-2.4009,-2.4082,-2.394,-2.3839,-2.3797,-2.3436,-2.3201,-2.3157,-2.2875,-2.2452,-2.1969,-2.1969,-2.1874,-2.1684,-2.1684,-2.1541,-2.1215,-2.0983,-2.0848,-2.0848,-2.0636,-2.0435,-2.0283,-2.0308,-2.0207,-2.0093,-1.9914,-2.0016,-2.0144,-2.0105,-2.0245,-2.0396,-2.0396,-2.0646,-2.0845,-1.7226,-1.7364,-1.7706,-1.8546,-1.8469,-1.8736,-1.9846,-1.9857,-2.0052,-2.0696,-2.0685,-2.0546,-2.0417,-2.0202,-1.9803,-1.9257,-1.917,-1.9152,-1.907,-1.8143,-1.7896,-1.8688,-1.7752,-1.785,-1.9157,-2.1397,-2.3791,-2.6331,-2.8947,-3.0258,-3.0381,-3.0477,-3.058,-3.0622,-3.0438,-3.0297,-3.0189,-3.0013,-2.972,-2.9362,-2.9247,-2.8894,-2.8355,-2.8183,-2.7872,-2.7482,-2.7251,-2.7031,-2.679,-2.6369,-2.6054,-2.573,-2.5411,-2.5059,-2.4639,-2.4204,-2.4078,-2.4078,-2.4078,-2.4379,-2.4752,-2.491,-2.4831,-2.4752,-2.4808,-2.4808,-2.4752,-2.4808,-2.4527,-2.4297,-2.4338,-2.4245,-2.3941,-2.3416,-2.3902,-2.4122,-2.3509,-2.386,-2.4124,-2.4124,-2.3982,-2.3839,-2.3711,-2.3566,-2.3377,-2.329,-2.2875,-2.2649,-2.2649,-2.2142,-2.1732,-2.1423,-2.1277,-2.1068,-2.0858,-2.1019,-2.0947,-2.0662,-2.0461,-2.041,-2.041,-2.0195,-1.9978,-1.9862,-1.9862,-1.9823,-1.9668,-1.9759,-1.9798,-1.9798,-1.9798,-1.9798,-1.9798,-1.9798,-2.0055,-2.0258,-1.6132,-1.6184,-1.6645,-1.7668,-1.7364,-1.7442,-1.9034,-1.8946,-1.8736,-1.8936,-1.9236,-1.9093,-1.8026,-1.7871,-1.761,-1.6835,-1.6711,-1.656,-1.627,-1.4145,-1.4022,-1.6623,-1.4965,-1.4582,-1.5843,-2.0004,-2.1976,-2.16,-2.7428,-3.0349,-3.0452,-3.0555,-3.0552,-3.0492,-3.051,-3.0311,-2.9988,-2.9845,-2.9513,-2.9037,-2.8585,-2.8094,-2.7674,-2.7404,-2.7129,-2.6855,-2.6607,-2.6505,-2.6386,-2.5709,-2.5503,-2.5427,-2.502,-2.4599,-2.4219,-2.3724,-2.3595,-2.361,-2.3595,-2.3595,-2.3724,-2.4271,-2.4078,-2.3839,-2.3982,-2.3882,-2.3839,-2.3982,-2.3797,-2.3653,-2.3782,-2.3797,-2.3839,-2.3982,-2.3982,-2.4024,-2.4166,-2.4082,-2.3982,-2.3982,-2.3982,-2.3754,-2.3172,-2.3083,-2.2844,-2.2128,-2.2081,-2.2081,-2.2081,-2.1636,-2.1375,-2.1375,-2.0934,-2.0334,-1.9619,-2.0182,-2.0461,-2.0461,-2.0296,-2.0182,-2.0182,-2.0182,-1.9811,-1.9239,-1.9772,-1.9617,-1.904,-1.9552,-1.9798,-1.9798,-1.9798,-1.9798,-1.9798,-1.9798,-1.9798,-1.9798,-1.5638,-1.548,-1.5463,-1.5956,-1.5833,-1.5903,-1.6567,-1.6945,-1.7201,-1.7415,-1.7542,-1.7396,-1.6762,-1.6522,-1.6053,-1.535,-1.5263,-1.5038,-1.4681,-1.2241,-1.0128,-0.8686,-0.9349,-1.1019,-1.3656,-1.7157,-1.9513,-2.081,-2.0201,-2.1773,-2.5456,-2.8965,-3.052,-3.0353,-3.0251,-2.9927,-2.942,-2.9304,-2.8905,-2.8306,-2.7984,-2.7596,-2.7186,-2.697,-2.642,-2.577,-2.5677,-2.5357,-2.4926,-2.4792,-2.4552,-2.4214,-2.355,-2.326,-2.3157,-2.3113,-2.3113,-2.3201,-2.3508,-2.3595,-2.3638,-2.3809,-2.3767,-2.3653,-2.3696,-2.3696,-2.3653,-2.3696,-2.3653,-2.3595,-2.3653,-2.3653,-2.3653,-2.3696,-2.3797,-2.3882,-2.3925,-2.3882,-2.3754,-2.3392,-2.3304,-2.3024,-2.2466,-2.242,-2.2314,-2.2128,-2.1766,-2.1458,-2.1118,-2.0885,-2.0573,-2.0131,-1.9888,-1.9475,-1.8833,-1.9527,-1.9631,-1.9109,-1.8939,-1.9097,-1.9488,-1.8951,-1.8857,-1.904,-1.8804,-1.8804,-1.8987,-1.9198,-1.9448,-1.9798,-1.9798,-1.9798,-1.9798,-1.9798,-1.9798,-1.9798,-1.4641,-1.4489,-1.441,-1.4545,-1.4617,-1.4824,-1.5376,-1.5632,-1.5896,-1.6192,-1.5756,-1.5325,-1.4964,-1.4339,-1.3852,-1.3339,-1.315,-1.2769,-1.2206,-0.9451,-0.6664,-0.4014,-0.4626,-0.6745,-1.0409,-1.2319,-1.4989,-1.8415,-1.7459,-1.7997,-2.0117,-2.7153,-3.0336,-3.0126,-2.9952,-2.9564,-2.9018,-2.8755,-2.8224,-2.7537,-2.7296,-2.6935,-2.6454,-2.6142,-2.5672,-2.5128,-2.5012,-2.4672,-2.4313,-2.4241,-2.3779,-2.3187,-2.2529,-2.23,-2.2346,-2.2466,-2.2649,-2.2889,-2.3246,-2.3334,-2.3334,-2.3334,-2.3465,-2.3595,-2.3595,-2.3595,-2.3595,-2.3595,-2.3595,-2.3595,-2.3595,-2.3653,-2.3696,-2.3696,-2.3739,-2.3797,-2.3797,-2.361,-2.3348,-2.3024,-2.2754,-2.2374,-2.186,-2.1813,-2.1718,-2.1479,-2.0993,-2.056,-2.022,-1.9862,-1.954,-1.9202,-1.9097,-1.8727,-1.8093,-1.8501,-1.8608,-1.8405,-1.8298,-1.8405,-1.875,-1.8309,-1.8147,-1.8267,-1.8147,-1.8147,-1.8321,-1.8536,-1.8975,-1.95,-1.95,-1.9592,-1.9798,-1.9798,-1.9656,-1.9448,-1.3419,-1.3346,-1.3339,-1.3535,-1.36,-1.3947,-1.4988,-1.4649,-1.4522,-1.5013,-1.3939,-1.3011,-1.2631,-1.1742,-1.1149,-1.0995,-1.0533,-0.9955,-0.928,-0.6639,-0.4074,-0.1929,-0.0802,-0.2072,-0.5998,-0.6202,-0.8725,-1.3806,-1.6421,-1.6291,-1.3951,-2.4968,-3.0017,-2.9851,-2.959,-2.9187,-2.8646,-2.8232,-2.7553,-2.6768,-2.659,-2.6142,-2.5535,-2.5121,-2.4847,-2.4704,-2.4389,-2.4266,-2.4127,-2.3779,-2.3128,-2.2314,-2.1805,-2.1663,-2.1663,-2.1799,-2.2189,-2.2603,-2.2799,-2.2844,-2.2844,-2.2844,-2.3143,-2.3465,-2.3508,-2.3508,-2.3508,-2.3595,-2.3508,-2.3465,-2.3508,-2.361,-2.3653,-2.3653,-2.3653,-2.3653,-2.3653,-2.3157,-2.2799,-2.2754,-2.2314,-2.186,-2.1361,-2.1277,-2.097,-2.0347,-1.9786,-1.9463,-1.9319,-1.8792,-1.8471,-1.8417,-1.8417,-1.8038,-1.7335,-1.7335,-1.76,-1.8135,-1.8038,-1.7984,-1.8038,-1.7984,-1.7644,-1.7257,-1.771,-1.7655,-1.7257,-1.7809,-1.8375,-1.8934,-1.8987,-1.9291,-1.9643,-1.9695,-1.9396,-1.8934,-1.2599,-1.2063,-1.1613,-1.2439,-1.2592,-1.2659,-1.2938,-1.2579,-1.2358,-1.2498,-1.199,-1.1162,-1.0007,-0.9927,-0.9396,-0.796,-0.7801,-0.8079,-0.8779,-0.7633,-0.4846,-0.0268,0.1007,0.1256,0.0383,-0.0574,-0.1535,-0.2434,-0.3601,-0.4011,-0.4037,-2.1271,-2.9417,-2.9578,-2.9355,-2.8723,-2.7788,-2.7743,-2.7061,-2.6038,-2.5746,-2.5297,-2.4736,-2.4592,-2.4017,-2.3363,-2.3565,-2.3128,-2.2452,-2.2067,-2.1738,-2.1465,-2.1224,-2.1175,-2.1224,-2.1444,-2.1602,-2.1779,-2.2189,-2.2267,-2.2267,-2.2267,-2.236,-2.2543,-2.2979,-2.274,-2.2634,-2.3465,-2.295,-2.2543,-2.2965,-2.274,-2.2452,-2.2452,-2.2452,-2.2452,-2.2452,-2.236,-2.2142,-2.1779,-2.1602,-2.1361,-2.0898,-2.0359,-1.9722,-1.9004,-1.8792,-1.8738,-1.8685,-1.8459,-1.8135,-1.7655,-1.7534,-1.7224,-1.6648,-1.6591,-1.6705,-1.6807,-1.6807,-1.7022,-1.7368,-1.6965,-1.6909,-1.7202,-1.6909,-1.6955,-1.7202,-1.7313,-1.7754,-1.8321,-1.8827,-1.8762,-1.8525,-1.9028,-1.8804,-1.8321,-1.1093,-1.0875,-1.0801,-1.1254,-1.1335,-1.1335,-1.1409,-1.126,-1.1186,-1.1409,-1.0409,-0.9336,-0.8566,-0.8201,-0.7931,-0.7756,-0.7747,-0.6122,-0.225,-0.1588,-0.0402,0.1679,0.2353,0.2555,0.2285,0.1209,0.0605,0.0605,0.0403,-0.2102,-0.6957,-1.9072,-2.5347,-2.6555,-2.7824,-2.7807,-2.6825,-2.6534,-2.5907,-2.5128,-2.4816,-2.4415,-2.4002,-2.3477,-2.304,-2.2651,-2.2331,-2.1988,-2.1479,-2.0756,-2.0495,-2.0395,-1.9799,-1.9812,-2.0093,-2.0346,-2.0795,-2.1299,-2.167,-2.1779,-2.1779,-2.1779,-2.1589,-2.1623,-2.236,-2.2314,-2.2267,-2.277,-2.2406,-2.2128,-2.2466,-2.2221,-2.2035,-2.2081,-2.2081,-2.2081,-2.2081,-2.1908,-2.1684,-2.1423,-2.1006,-2.051,-1.9926,-1.9371,-1.8886,-1.8459,-1.8147,-1.7929,-1.7863,-1.7545,-1.7234,-1.6909,-1.6853,-1.6684,-1.6384,-1.6384,-1.6384,-1.6384,-1.6384,-1.6534,-1.6786,-1.6534,-1.6534,-1.6786,-1.6534,-1.6534,-1.6842,-1.6842,-1.7168,-1.7699,-1.8038,-1.8147,-1.8147,-1.8429,-1.8201,-1.7644,-0.9599,-0.983,-1.0062,-1.0062,-1.0062,-1.0062,-1.0212,-1.0056,-1.0051,-1.0346,-0.8652,-0.7423,-0.7267,-0.615,-0.5964,-0.7192,-0.7347,-0.3937,0.4017,0.4879,0.4386,0.2891,0.2824,0.2555,0.2018,0.1076,0.047,0.0269,-0.0,-0.4235,-1.2201,-1.7775,-2.1235,-2.2938,-2.6145,-2.6885,-2.5727,-2.5169,-2.4594,-2.4044,-2.3776,-2.3448,-2.3069,-2.2346,-2.1993,-2.1843,-2.1245,-2.0979,-2.0769,-1.9633,-1.9322,-1.9258,-1.8394,-1.8483,-1.8922,-1.9319,-2.0029,-2.0795,-2.1006,-2.1166,-2.118,-2.1019,-2.0772,-2.0785,-2.1465,-2.1752,-2.1908,-2.2081,-2.1894,-2.1752,-2.1955,-2.1799,-2.1704,-2.1752,-2.1738,-2.1738,-2.1738,-2.1334,-2.1068,-2.1104,-2.0295,-1.9475,-1.8815,-1.8483,-1.8201,-1.7972,-1.749,-1.7168,-1.7045,-1.6637,-1.6384,-1.6384,-1.6384,-1.6384,-1.6384,-1.6384,-1.6384,-1.6384,-1.6327,-1.6316,-1.6384,-1.6384,-1.6384,-1.6384,-1.6431,-1.6431,-1.6384,-1.6431,-1.6694,-1.7045,-1.7146,-1.7435,-1.7831,-1.7831,-1.749,-1.6989,-0.9468,-0.8998,-0.8613,-0.9296,-0.9448,-0.9377,-0.9226,-0.8295,-0.7524,-0.7375,-0.6217,-0.506,-0.413,-0.321,-0.2434,-0.1727,-0.1726,-0.0947,0.102,0.2643,0.2836,0.1415,0.1415,0.1347,0.1277,0.0336,0.0269,0.121,-0.2008,-0.4558,-0.6656,-1.7276,-2.1842,-2.1305,-2.5778,-2.6512,-2.4351,-2.4287,-2.3652,-2.2772,-2.2727,-2.2122,-2.139,-2.1758,-2.117,-2.0155,-2.0769,-2.0458,-1.9581,-1.8608,-1.8201,-1.8159,-1.8244,-1.834,-1.8513,-1.9214,-1.9527,-1.9619,-1.9683,-2.0118,-2.0398,-1.9552,-1.9695,-2.0055,-1.9811,-2.0372,-2.1118,-2.1941,-2.1444,-2.0983,-2.141,-2.1131,-2.0723,-2.0346,-2.0283,-2.0283,-2.0283,-1.9952,-1.9708,-1.9825,-1.915,-1.8417,-1.771,-1.7611,-1.7279,-1.6694,-1.6591,-1.6545,-1.6534,-1.6431,-1.6384,-1.6384,-1.6384,-1.6384,-1.6384,-1.6384,-1.6384,-1.6384,-1.5972,-1.6029,-1.6384,-1.6384,-1.6384,-1.6431,-1.6658,-1.6591,-1.6441,-1.6648,-1.6648,-1.6534,-1.7,-1.6944,-1.6648,-1.6648,-1.6591,-1.6488,-0.7387,-0.7387,-0.7464,-0.8309,-0.7995,-0.7532,-0.7456,-0.6605,-0.5912,-0.5838,-0.491,-0.3822,-0.257,-0.1486,-0.0549,0.0393,0.0375,0.0728,0.1602,0.2359,0.249,0.1681,0.1883,0.1614,0.0806,0.0605,0.0605,0.0874,-0.1475,-0.4209,-0.7407,-1.4399,-1.87,-2.0664,-2.4088,-2.4766,-2.3327,-2.2228,-2.1583,-2.1185,-2.0637,-2.0178,-1.9775,-1.9711,-1.9364,-1.8879,-1.9113,-1.8915,-1.8501,-1.7765,-1.7501,-1.7501,-1.7279,-1.7435,-1.7743,-1.819,-1.8513,-1.878,-1.8898,-1.9109,-1.9279,-1.8804,-1.8951,-1.9109,-1.8963,-1.9174,-1.9683,-2.0434,-2.0207,-1.9965,-2.022,-2.0067,-1.9811,-1.9708,-1.9552,-1.9436,-1.9436,-1.9121,-1.8857,-1.8685,-1.8201,-1.7655,-1.7134,-1.6909,-1.6705,-1.6431,-1.6384,-1.6269,-1.6029,-1.6029,-1.5846,-1.5546,-1.5546,-1.5546,-1.5546,-1.5546,-1.5546,-1.5546,-1.5672,-1.5972,-1.6384,-1.6144,-1.6144,-1.6384,-1.6545,-1.6488,-1.6431,-1.6545,-1.6374,-1.6019,-1.6285,-1.6228,-1.6029,-1.6029,-1.6029,-1.6029]},{"header":{"parameterUnit":"m.s-1","parameterCategory":1,"la1":30.6,"la2":28.766,"lo1":-90.7593,"lo2":-88.6598,"dy":0.0162,"dx":0.0183,"nx":116,"ny":114,"refTime":"2023-09-05T06:00:00:Z","depth":0,"parameterNumber":3,"parameterNumberName":"V-component_of_WINDS"},"data":[0.0,0.0,0.0,0.0,0.0,0.0,0.0,0.0,0.0,0.0,0.0,0.0,0.0,0.0,0.0,0.0,0.0,0.0,0.0,0.0,0.0,0.0,0.0,0.0,0.0,0.0,0.0,0.0,0.0,0.0,0.0,0.0,0.0,0.0,0.0,0.0,0.0,0.0,0.0,0.0,0.0,0.0,0.0,0.0,0.0,0.0,0.0,0.0,0.0,0.0,0.0,0.0,0.0,0.0,0.0,0.0,0.0,0.0,0.0,0.0,0.0,0.0,0.0,0.0,0.0,0.0,0.0,0.0,0.0,0.0,0.0,0.0,0.0,0.0,0.0,0.0,0.0,0.0,0.0,0.0,0.0,0.0,0.0,0.0,0.0,0.0,0.0,0.0,0.0,0.0,0.0,0.0,0.0,0.0,0.0,0.0,0.0,0.0,0.0,0.0,0.0,0.0,0.0,0.0,0.0,0.0,0.0,0.0,0.0,0.0,0.0,0.0,0.0,0.0,0.0,0.0,0.0,0.0,0.0,0.0,0.0,0.0,0.0,0.0,0.0,0.0,0.0,0.0,0.0,0.0,0.0,0.0,0.0,0.0,0.0,0.0,0.0,0.0,0.0,0.0,0.0,0.0,0.0,0.0,0.0,0.0,0.0,0.0,0.0,0.0,0.0,0.0,0.0,0.0,0.0,0.0,0.0,0.0,0.0,0.0,0.0,0.0,0.0,0.0,0.0,0.0,0.0,0.0,0.0,0.0,0.0,0.0,0.0,0.0,0.0,0.0,0.0,0.0,0.0,0.0,0.0,0.0,0.0,0.0,0.0,0.0,0.0,0.0,0.0,0.0,0.0,0.0,0.0,0.0,0.0,0.0,0.0,0.0,0.0,0.0,0.0,0.0,0.0,0.0,0.0,0.0,0.0,0.0,0.0,0.0,0.0,0.0,0.0,0.0,0.0,0.0,0.0,0.0,0.0,0.0,0.0,0.0,0.0,0.0,0.0,0.0,0.0,0.0,0.0,0.0,0.0,0.0,0.0,0.0,0.0,0.0,0.0,0.0,0.0,0.0,0.0,0.0,0.0,0.0,0.0,0.0,0.0,0.0,0.0,0.0,0.0,0.0,0.0,0.0,0.0,0.0,0.0,0.0,0.0,0.0,0.0,0.0,0.0,0.0,0.0,0.0,0.0,0.0,0.0,0.0,0.0,0.0,0.0,0.0,0.0,0.0,0.0,0.0,0.0,0.0,0.0,0.0,0.0,0.0,0.0,0.0,0.0,0.0,0.0,0.0,0.0,0.0,0.0,0.0,0.0,0.0,0.0,0.0,0.0,0.0,0.0,0.0,0.0,0.0,0.0,0.0,0.0,0.0,0.0,0.0,0.0,0.0,0.0,0.0,0.0,0.0,0.0,0.0,0.0,0.0,0.0,0.0,0.0,0.0,0.0,0.0,0.0,0.0,0.0,0.0,0.0,0.0,0.0,0.0,0.0,0.0,0.0,0.0,0.0,0.0,0.0,0.0,0.0,0.0,0.0,0.0,0.0,0.0,0.0,0.0,0.0,0.0,0.0,0.0,0.0,0.0,0.0,0.0,0.0,0.0,0.0,0.0,0.0,0.0,0.0,0.0,0.0,0.0,0.0,0.0,0.0,0.0,0.0,0.0,0.0,0.0,0.0,0.0,0.0,0.0,0.0,0.0,0.0,0.0,0.0,0.0,0.0,0.0,0.0,0.0,0.0,0.0,0.0,0.0,0.0,0.0,0.0,0.0,0.0,0.0,0.0,0.0,0.0,0.0,0.0,0.0,0.0,0.0,0.0,0.0,0.0,0.0,0.0,0.0,0.0,0.0,0.0,0.0,0.0,0.0,0.0,0.0,0.0,0.0,0.0,0.0,0.0,0.0,0.0,0.0,0.0,0.0,0.0,0.0,0.0,0.0,0.0,0.0,0.0,0.0,0.0,0.0,0.0,0.0,0.0,0.0,0.0,0.0,0.0,0.0,0.0,0.0,0.0,0.0,0.0,0.0,0.0,0.0,0.0,0.0,0.0,0.0,0.0,0.0,0.0,0.0,0.0,0.0,0.0,0.0,0.0,0.0,0.0,0.0,0.0,0.0,0.0,0.0,0.0,0.0,0.0,0.0,0.0,0.0,0.0,0.0,0.0,0.0,0.0,0.0,0.0,0.0,0.0,0.0,0.0,0.0,0.0,0.0,0.0,0.0,0.0,0.0,0.0,0.0,0.0,0.0,0.0,0.0,0.0,0.0,0.0,0.0,0.0,0.0,0.0,0.0,0.0,0.0,0.0,0.0,0.0,0.0,0.0,0.0,0.0,0.0,0.0,0.0,0.0,0.0,0.0,0.0,0.0,0.0,0.0,0.0,0.0,0.0,0.0,0.0,0.0,0.0,0.0,0.0,0.0,0.0,0.0,0.0,0.0,0.0,0.0,0.0,0.0,0.0,0.0,0.0,0.0,0.0,0.0,0.0,0.0,0.0,0.0,0.0,0.0,0.0,0.0,0.0,0.0,0.0,0.0,0.0,0.0,0.0,0.0,0.0,0.0,0.0,0.0,0.0,0.0,0.0,0.0,0.0,0.0,0.0,0.0,0.0,0.0,0.0,0.0,0.0,0.0,0.0,0.0,0.0,0.0,0.0,0.0,0.0,0.0,0.0,0.0,0.0,0.0,0.0,0.0,0.0,0.0,0.0,0.0,0.0,0.0,0.0,0.0,0.0,0.0,0.0,0.0,0.0,0.0,0.0,0.0,0.0,0.0,0.0,0.0,0.0,0.0,0.0,0.0,0.0,0.0,0.0,0.0,0.0,0.0,0.0,0.0,0.0,0.0,0.0,0.0,0.0,0.0,0.0,0.0,0.0,0.0,0.0,0.0,0.0,0.0,0.0,0.0,0.0,0.0,0.0,0.0,0.0,0.0,0.0,0.0,0.0,0.0,0.0,0.0,0.0,0.0,0.0,0.0,0.0,0.0,0.0,0.0,0.0,0.0,0.0,0.0,0.0,0.0,0.0,0.0,0.0,0.0,0.0,0.0,0.0,0.0,0.0,0.0,0.0,0.0,0.0,0.0,0.0,0.0,0.0,0.0,0.0,0.0,0.0,0.0,0.0,0.0,0.0,0.0,0.0,0.0,0.0,0.0,0.0,0.0,0.0,0.0,0.0,0.0,0.0,0.0,0.0,0.0,0.0,0.0,0.0,0.0,0.0,0.0,0.0,0.0,0.0,0.0,0.0,0.0,0.0,0.0,0.0,0.0,0.0,0.0,0.0,0.0,0.0,0.0,0.0,0.0,0.0,0.0,0.0,0.0,0.0,0.0,0.0,0.0,0.0,0.0,0.0,0.0,0.0,0.0,0.0,0.0,0.0,0.0,0.0,0.0,0.0,0.0,0.0,0.0,0.0,0.0,0.0,0.0,0.0,0.0,0.0,0.0,0.0,0.0,0.0,0.0,0.0,0.0,0.0,0.0,0.0,0.0,0.0,0.0,0.0,0.0,0.0,0.0,0.0,0.0,0.0,0.0,0.0,0.0,0.0,0.0,0.0,0.0,0.0,0.0,0.0,0.0,0.0,0.0,0.0,0.0,0.0,0.0,0.0,0.0,0.0,0.0,0.0,0.0,0.0,0.0,0.0,0.0,0.0,0.0,0.0,0.0,0.0,0.0,0.0,0.0,0.0,0.0,0.0,0.0,0.0,0.0,0.0,0.0,0.0,0.0,0.0,0.0,0.0,0.0,0.0,0.0,0.0,0.0,0.0,0.0,0.0,0.0,0.0,0.0,0.0,0.0,0.0,0.0,0.0,0.0,0.0,0.0,0.0,0.0,0.0,0.0,0.0,0.0,0.0,0.0,0.0,0.0,0.0,0.0,0.0,0.0,0.0,0.0,0.0,0.0,0.0,0.0,0.0,0.0,0.0,0.0,0.0,0.0,0.0,0.0,0.0,0.0,0.0,0.0,0.0,0.0,0.0,0.0,0.0,0.0,0.0,0.0,0.0,0.0,0.0,0.0,0.0,0.0,0.0,0.0,0.0,0.0,0.0,0.0,0.0,0.0,0.0,0.0,0.0,0.0,0.0,0.0,0.0,0.0,0.0,0.0,0.0,0.0,0.0,0.0,0.0,0.0,0.0,0.0,0.0,0.0,0.0,0.0,0.0,0.0,0.0,0.0,0.0,0.0,0.0,0.0,0.0,0.0,0.0,0.0,0.0,0.0,0.0,0.0,0.0,0.0,0.0,0.0,0.0,0.0,0.0,0.0,0.0,0.0,0.0,0.0,0.0,0.0,0.0,0.0,0.0,0.0,0.0,0.0,0.0,0.0,0.0,0.0,0.0,0.0,0.0,0.0,0.0,0.0,0.0,0.0,0.0,0.0,0.0,0.0,0.0,0.0,0.0,0.0,0.0,0.0,0.0,0.0,0.0,0.0,0.0,0.0,0.0,0.0,0.0,0.0,0.0,0.0,0.0,0.0,0.0,0.0,0.0,0.0,0.0,0.0,0.0,0.0,0.0,0.0,0.0,0.0,0.0,0.0,0.0,0.0,0.0,0.0,0.0,0.0,0.0,0.0,0.0,0.0,0.0,0.0,0.0,0.0,0.0,0.0,0.0,0.0,0.0,0.0,0.0,0.0,0.0,0.0,0.0,0.0,0.0,0.0,0.0,0.0,0.0,0.0,0.0,0.0,0.0,0.0,0.0,0.0,0.0,0.0,0.0,0.0,0.0,0.0,0.0,0.0,0.0,0.0,0.0,0.0,0.0,0.0,0.0,0.0,0.0,0.0,0.0,0.0,0.0,0.0,0.0,0.0,0.0,0.0,0.0,0.0,0.0,0.0,0.0,0.0,0.0,0.0,0.0,0.0,0.0,0.0,0.0,0.0,0.0,0.0,0.0,0.0,0.0,0.0,0.0,0.0,0.0,0.0,0.0,0.0,0.0,0.0,0.0,0.0,0.0,0.0,0.0,0.0,0.0,0.0,0.0,0.0,0.0,0.0,0.0,0.0,0.0,0.0,0.0,0.0,0.0,0.0,0.0,0.0,0.0,0.0,0.0,0.0,0.0,0.0,0.0,0.0,0.0,0.0,0.0,0.0,0.0,0.0,0.0,0.0,0.0,0.0,0.0,0.0,0.0,0.0,0.0,0.0,0.0,0.0,0.0,0.0,0.0,0.0,0.0,0.0,0.0,0.0,0.0,0.0,0.0,0.0,0.0,0.0,0.0,0.0,0.0,0.0,0.0,0.0,0.0,0.0,0.0,0.0,0.0,0.0,0.0,0.0,0.0,0.0,0.0,0.0,0.0,0.0,0.0,0.0,0.0,0.0,0.0,0.0,0.0,0.0,0.0,0.0,0.0,0.0,0.0,0.0,0.0,0.0,0.0,0.0,0.0,0.0,0.0,0.0,0.0,0.0,0.0,0.0,0.0,0.0,0.0,0.0,0.0,0.0,0.0,0.0,0.0,0.0,0.0,0.0,0.0,0.0,0.0,0.0,0.0,0.0,0.0,0.0,0.0,0.0,0.0,0.0,0.0,0.0,0.0,0.0,0.0,0.0,0.0,0.0,0.0,0.0,0.0,0.0,0.0,0.0,0.0,0.0,0.0,0.0,0.0,0.0,0.0,0.0,0.0,0.0,0.0,0.0,0.0,0.0,0.0,0.0,0.0,0.0,0.0,0.0,0.0,0.0,0.0,0.0,0.0,0.0,0.0,0.0,0.0,0.0,0.0,0.0,0.0,0.0,0.0,0.0,0.0,0.0,0.0,0.0,0.0,0.0,0.0,0.0,0.0,0.0,0.0,0.0,0.0,0.0,0.0,0.0,0.0,0.0,0.0,0.0,0.0,0.0,0.0,0.0,0.0,0.0,0.0,0.0,0.0,0.0,0.0,0.0,0.0,0.0,0.0,0.0,0.0,0.0,0.0,0.0,0.0,0.0,0.0,0.0,0.0,0.0,0.0,0.0,0.0,0.0,0.0,0.0,0.0,0.0,0.0,0.0,0.0,0.0,0.0,0.0,0.0,0.0,0.0,0.0,0.0,0.0,0.0,0.0,0.0,0.0,0.0,0.0,0.0,0.0,0.0,0.0,0.0,0.0,0.0,0.0,0.0,-0.0706,0.0,0.0,0.0,0.0,0.0,0.0,0.0,0.0,0.0,0.0,0.0,0.0,0.0,0.0,0.0,0.0,0.0,0.0,0.0,0.0,0.0,0.0,0.0,0.0,0.0,0.0,0.0,0.0,0.0,0.0,0.0,0.0,0.0,0.0,0.0,0.0,0.0,0.0,0.0,1.3833,1.3032,1.1855,1.0657,0.9069,0.7246,0.0,0.0,0.0,0.0,0.0,0.0,0.0,0.0,0.0,0.0,0.0,0.0,0.0,0.0,0.0,0.0,0.0,0.0,0.0,0.0,0.0,0.0,0.0,0.0,0.0,0.0,0.0,0.0,0.0,0.0,0.0,0.0,0.0,0.0,0.0,0.0,0.0,0.0,0.0,0.0,0.0,0.0,0.0,0.0,0.0,0.0,0.0,0.0,0.0,0.0,0.0,0.0,0.0,0.0,0.0,0.0,0.0,0.0,0.0,0.0,0.0,0.0,0.0,0.0,0.0,0.0,0.0,0.0,0.0,0.0,0.0,-0.1332,0.0,0.0,0.0,0.0,0.0,0.0,0.0,0.0,0.0,0.0,0.0,0.0,0.0,0.0,0.0,0.0,0.0,0.0,0.0,0.0,0.0,0.0,0.0,0.0,0.0,0.0,0.0,0.0,0.0,0.0,0.0,0.0,0.0,0.0,0.0,1.4927,1.4497,1.4274,1.3309,1.2304,1.1334,1.0307,0.9259,0.8108,0.7034,0.0,0.0,0.0,0.0,0.0,0.0,0.0,0.0,0.0,0.0,0.0,0.0,0.0,0.0,0.0,0.0,0.0,0.0,0.0,0.0,0.0,0.0,0.0,0.0,0.0,0.0,0.0,0.0,0.0,0.0,0.0,0.0,0.0,0.0,0.0,0.0,0.0,0.0,0.0,0.0,0.0,0.0,0.0,0.0,0.0,0.0,0.0,0.0,0.0,0.0,0.0,0.0,0.0,0.0,0.0,0.0,0.0,0.0,0.0,0.0,0.0,0.0,0.0,0.0,0.0786,0.0628,0.0393,0.0157,-0.0079,-0.0941,-0.141,-0.1644,0.0,0.0,0.0,0.0,0.0,0.0,0.0,0.0,0.0,0.0,0.0,0.0,0.0,0.0,0.0,0.0,0.0,0.0,0.0,0.0,0.0,0.0,1.821,1.8007,1.7696,1.7588,1.7461,0.0,0.0,0.0,0.0,0.0,0.0,1.5762,1.4848,1.4353,1.4129,1.292,1.2298,1.2171,1.1213,1.0354,0.9621,0.7536,0.6397,0.5959,0.0,0.0,0.0,0.0,0.0,0.0,0.0,0.0,0.0,0.0,0.0,0.0,0.0,0.0,0.0,0.0,0.0,0.0,0.0,0.0,0.0,0.0,0.0,0.0,0.0,0.0,0.0,0.0,0.0,0.0,0.0,0.0,0.0,0.0,0.0,0.0,0.0,0.0,0.0,0.0,0.0,0.6785,0.6785,0.0,0.0,0.0,0.0,0.0,0.0,0.0,0.0,0.0,0.0,0.0,0.0,0.0,0.0,0.2511,0.2511,0.2119,0.1335,0.1021,0.0786,0.0628,0.0393,0.0157,-0.0079,-0.0941,0.0,-0.2426,-0.3363,0.0,0.0,0.0,0.0,0.0,0.0,0.0,0.0,0.0,0.0,0.0,0.0,0.0,0.0,0.0,0.0,0.0,0.0,0.0,0.0,0.0,1.8027,1.7901,1.7157,1.7442,1.752,1.7235,0.0,0.0,0.0,0.0,1.5551,1.4991,1.4641,1.4076,1.3436,1.2742,1.2029,1.1248,1.0396,0.972,0.9313,0.7692,0.6697,0.6182,0.5197,0.0,0.0,0.0,0.0,0.0,0.0,0.0,0.0,0.0,0.0,0.0,0.0,0.0,0.0,0.0,0.0,0.0,0.0,0.0,0.0,0.0,0.0,0.0,0.0,0.0,0.0,0.0,0.0,0.0,0.0,0.0,0.0,0.0,0.0,0.0,0.0,0.0,0.0,0.0,0.7849,0.7297,0.7125,0.7056,0.6864,0.0,0.0,0.0,0.0,0.0,0.0,0.0,0.0,0.0,0.3139,0.315,0.2715,0.1843,0.1818,0.1649,0.1335,0.1178,0.1021,0.0786,0.055,0.0393,0.0157,-0.0392,-0.1019,-0.1879,-0.2737,-0.3597,-0.4304,0.0,0.0,0.0,0.0,0.0,-0.5553,0.0,0.0,0.0,0.0,0.0,0.0,0.0,0.0,0.0,0.0,0.0,0.0,1.7472,1.791,1.7852,1.6673,1.7226,1.751,1.7235,1.7028,0.0,0.0,1.5617,1.5134,1.4292,1.4175,1.3681,1.2762,1.2336,1.1578,1.0442,0.9693,0.9146,0.898,0.815,0.7286,0.6325,0.5485,0.4785,0.4161,0.0,0.0,0.0,0.0,0.0,0.0,0.0,0.0,0.0,0.0,0.0,0.0,0.0,0.0,0.0,0.0,0.0,0.0,0.0,0.0,0.0,0.0,0.0,0.0,0.0,0.0,0.0,0.0,0.0,0.0,0.0,0.0,0.0,0.0,0.0,0.0,0.0,0.785,0.7701,0.7442,0.7268,0.7063,0.0,0.0,0.0,0.0,0.0,0.0,0.3583,0.3564,0.3131,0.2286,0.2238,0.1967,0.1314,0.1284,0.1269,0.1269,0.1261,0.1178,0.0864,0.0707,0.055,0.0314,0.0157,-0.0314,-0.1019,-0.2113,-0.3049,-0.383,-0.3988,-0.4462,-0.5015,-0.5168,-0.5243,-0.5321,0.0,0.0,0.0,0.0,0.0,0.0,0.0,0.0,0.0,0.0,0.0,1.8654,1.7541,1.791,1.7852,1.6673,1.7176,1.7392,1.7235,1.6691,1.6173,1.5801,1.5163,1.447,1.3847,1.3542,1.3013,1.2447,1.1823,1.1272,1.0762,0.9986,0.9479,0.9205,0.9118,0.8418,0.7079,0.5443,0.4899,0.4791,0.3498,0.0,0.0,0.0,0.0,0.0,0.0,0.0,0.0,0.0,0.0,0.0,0.0,0.0,0.0,0.0,0.0,0.0,0.0,0.0,0.0,0.0,0.0,0.0,0.0,0.0,0.0,0.0,0.0,0.0,0.0,0.0,0.0,0.0,0.0,0.0,0.0,0.0,0.0,0.7275,0.7396,0.0,0.0,0.0,0.0,0.5692,0.5609,0.4812,0.3035,0.289,0.2425,0.1474,0.1361,0.1346,0.1261,0.1316,0.13,0.13,0.1271,0.1178,0.0864,0.0864,0.0707,0.0314,0.0314,0.0157,-0.0157,-0.1801,-0.3049,-0.391,-0.4621,-0.4937,-0.5018,-0.5018,-0.5168,-0.5321,0.0,0.0,0.0,0.0,0.0,0.0,0.0,0.0,0.0,1.9639,1.8654,1.7706,1.6784,1.6802,1.6594,1.6097,1.6664,1.7226,1.7501,1.6788,1.6073,1.547,1.4559,1.3885,1.3528,1.3705,1.3273,1.1998,1.1584,1.0771,0.9574,0.8869,0.8552,0.8544,0.7573,0.7281,0.732,0.6268,0.5372,0.4467,0.3364,0.2615,0.0,0.0,0.0,0.0,0.0,0.0,0.0,0.0,0.0,0.0,0.0,0.0,0.0,0.0,0.0,0.0,0.0,0.0,0.0,0.0,0.0,0.0,0.0,0.0,0.0,0.0,0.0,0.0,0.0,0.0,0.0,0.0,0.0,0.0,0.0,0.0,0.0,0.7407,0.7465,0.0,0.7004,0.5866,0.4993,0.4734,0.3551,0.2597,0.1973,0.187,0.1773,0.1419,0.139,0.1375,0.1375,0.1346,0.1332,0.1331,0.1301,0.1286,0.1125,0.0949,0.0786,0.0707,0.0393,0.0236,0.0079,-0.1722,-0.266,-0.3051,-0.3912,-0.4543,-0.5018,-0.5018,-0.5015,-0.509,0.0,0.0,0.0,0.0,0.0,0.0,0.0,0.0,0.0,1.9131,1.8327,1.7432,1.6298,1.6515,1.6524,1.5745,1.6585,1.7161,1.7088,1.6696,1.5857,1.4453,1.3628,1.3164,1.3187,1.3454,1.2921,1.1595,1.1332,1.0376,0.8911,0.8292,0.8028,0.7937,0.7054,0.6877,0.7228,0.6871,0.5849,0.4206,0.3219,0.2294,0.1483,0.0,0.0,0.0,0.0,0.0,0.0,0.0,0.0,0.0,0.0,0.0,0.0,0.0,0.0,0.0,0.0,0.0,0.0,0.0,0.0,0.0,0.0,0.0,0.0,0.0,0.0,0.0,0.0,0.0,0.0,0.0,0.0,0.0,0.0,0.0,0.8166,0.7676,0.7635,0.7516,0.7177,0.5866,0.4814,0.4204,0.3019,0.206,0.1436,0.1436,0.1436,0.1436,0.1416,0.1406,0.1406,0.1376,0.1362,0.1361,0.1332,0.1318,0.1317,0.1134,0.0962,0.0954,0.0557,0.0237,-0.0235,-0.1801,-0.266,-0.3049,-0.3912,-0.4543,-0.5018,-0.5018,-0.5018,-0.5018,0.0,0.0,0.0,0.0,0.0,0.0,0.0,0.0,2.0549,1.9008,1.8808,1.8037,1.621,1.7345,1.7569,1.5886,1.6941,1.7184,1.6026,1.63,1.5411,1.2886,1.224,1.2246,1.2949,1.2512,1.2027,1.1322,1.1068,1.0294,0.8911,0.8464,0.794,0.7507,0.7676,0.7411,0.6884,0.7224,0.6248,0.4202,0.3328,0.2573,0.1931,0.0,0.0,0.0,0.0,0.0,0.0,0.0,0.0,0.0,0.0,0.0,0.0,0.0,0.0,0.0,0.0,0.0,0.0,0.0,0.0,0.0,0.0,0.0,0.0,0.0,0.0,0.0,0.0,0.0,0.0,0.0,0.0,0.0,0.7996,0.8178,0.8207,0.7959,0.7933,0.7768,0.7507,0.7234,0.6337,0.4467,0.4289,0.3487,0.1524,0.1436,0.1436,0.1436,0.1436,0.1436,0.1436,0.1406,0.1391,0.1391,0.1363,0.1265,0.1265,0.1264,0.1165,0.0978,0.0814,0.008,-0.0941,-0.2035,-0.2971,-0.391,-0.4701,-0.5018,-0.5018,-0.5018,-0.5018,-0.5018,0.0,0.0,0.0,0.0,0.0,0.0,0.0,2.0805,2.0042,1.9131,1.8327,1.7569,1.706,1.6793,1.6594,1.6585,1.6941,1.7039,1.6779,1.6031,1.4661,1.2692,1.2839,1.2866,1.2782,1.2887,1.2547,1.1843,1.1241,1.0549,0.9602,0.8995,0.8468,0.7937,0.7312,0.7139,0.7238,0.5983,0.5003,0.4289,0.4003,0.3507,0.2752,0.0,0.0,0.0,0.0,0.0,0.0,0.0,0.0,0.0,0.0,0.0,0.0,0.0,0.0,0.0,0.0,0.0,0.0,0.0,0.0,0.0,0.0,0.0,0.0,0.0,0.0,0.0,0.0,0.0,0.0,0.0,0.0,0.8655,0.8291,0.826,0.8251,0.8115,0.8086,0.8025,0.7768,0.7044,0.6416,0.5883,0.4554,0.3489,0.2773,0.2061,0.1615,0.1436,0.1436,0.1436,0.1436,0.1427,0.1423,0.1423,0.1393,0.1378,0.1378,0.1357,0.126,0.1167,0.0984,0.0324,-0.0803,-0.1812,-0.2893,-0.391,-0.4701,-0.5018,-0.5018,-0.5018,-0.5018,-0.5018,0.0,0.0,0.0,0.0,0.0,0.0,0.0,2.1187,2.0355,1.9649,1.8586,1.7842,1.7472,1.7148,1.695,1.7001,1.7067,1.6863,1.6393,1.4951,1.3869,1.3386,1.3287,1.3124,1.2983,1.3062,1.2711,1.2015,1.1499,1.0895,1.0033,0.9432,0.8907,0.8372,0.7665,0.7404,0.7234,0.6163,0.5361,0.4739,0.4563,0.389,0.3036,0.2777,0.2911,0.3191,0.3106,0.3524,0.4187,0.4458,0.0,0.0,0.0,0.0,0.0,0.0,0.0,0.0,0.0,0.0,0.0,0.0,0.0,0.0,0.0,0.0,0.0,0.0,0.0,0.0,0.0,0.0,0.0,0.0,0.9007,0.8994,0.8566,0.8574,0.8529,0.8372,0.8288,0.8113,0.8028,0.7401,0.6864,0.6416,0.4999,0.3933,0.3398,0.233,0.1705,0.1615,0.1436,0.1436,0.1436,0.1436,0.1436,0.1435,0.1417,0.1409,0.1408,0.1392,0.1378,0.0,0.1095,0.0497,-0.0568,-0.1677,-0.2761,0.0,0.0,0.0,0.0,0.0,-0.5018,-0.5018,0.0,0.0,0.0,0.0,0.0,0.0,0.0,2.2002,2.1187,2.0226,1.9386,1.8586,1.7687,1.8046,1.8056,1.7285,1.7341,1.6806,1.5316,1.3715,1.3346,1.4455,1.3655,1.3227,1.3476,1.3228,1.2796,1.21,1.1843,1.1241,1.0381,0.9951,0.934,0.8636,0.8464,0.7937,0.7316,0.7228,0.652,0.5369,0.5008,0.4068,0.3047,0.3828,0.4128,0.4063,0.4061,0.4391,0.4804,0.4629,0.0,0.0,0.0,0.0,0.0,0.0,0.0,0.0,0.0,0.0,0.0,0.0,0.0,0.0,0.0,0.0,0.0,0.0,0.0,0.0,0.0,0.0,0.0,0.0,0.921,0.9325,0.8973,0.8999,0.8828,0.8656,0.8384,0.8288,0.8288,0.8116,0.758,0.6593,0.5617,0.4643,0.3667,0.0,0.0,0.0,0.0,0.1436,0.1436,0.1436,0.1436,0.1436,0.1436,0.1436,0.1436,0.1436,0.1421,0.1395,0.1219,0.051,-0.049,-0.1625,-0.2636,-0.3673,-0.4621,-0.5018,-0.5018,-0.5018,-0.5018,0.0,0.0,0.0,0.0,0.0,0.0,0.0,0.0,2.2652,2.1854,2.0462,1.9901,1.932,1.8596,1.8472,1.8414,1.8269,1.7797,1.6769,1.501,1.4506,1.4186,1.3945,1.4104,1.4092,1.3997,1.3398,1.3052,1.2881,1.2272,1.1585,1.0895,1.0549,0.9946,0.917,0.9082,0.8907,0.8468,0.7757,0.6776,0.5622,0.5802,0.5082,0.4096,0.5343,0.5678,0.5824,0.7061,0.7403,0.7107,0.7079,0.7628,0.8443,0.837,0.9167,0.0,0.0,0.0,0.0,0.0,0.0,0.0,0.0,0.0,0.0,0.0,0.0,0.0,0.0,0.0,0.0,0.0,0.0,0.0,0.9494,0.9672,0.9735,0.951,0.9345,0.9087,0.8656,0.8564,0.8564,0.8564,0.8476,0.8032,0.7048,0.6071,0.5095,0.3937,0.2778,0.0,0.1794,0.1525,0.1436,0.1436,0.1436,0.1436,0.1436,0.0,0.0,0.1436,0.1436,0.1432,0.1425,0.1401,0.0345,-0.1366,-0.1563,-0.2717,-0.4462,-0.4859,-0.5018,-0.5018,-0.5018,-0.5018,-0.5018,0.0,0.0,0.0,0.0,0.0,0.0,0.0,2.3135,2.2335,2.1227,2.0473,1.977,1.9142,1.8808,1.8617,1.8482,1.7863,1.6798,1.5044,1.5105,1.4849,1.3959,1.4323,1.4405,1.4088,1.3743,1.3398,1.3137,1.2705,1.2186,1.1499,1.1322,1.0722,0.9777,1.0038,0.9689,0.8911,0.8544,0.7654,0.6596,0.6596,0.6242,0.5714,0.5997,0.6086,0.608,0.7584,0.8384,0.8632,0.8616,0.9181,0.9847,0.9653,1.0058,1.0675,0.0,0.0,0.0,0.0,0.0,0.0,0.0,0.0,0.0,0.0,0.0,0.0,0.0,0.0,1.0369,0.0,0.0,0.9897,0.9644,0.9819,0.9864,0.9602,0.9519,0.9257,0.8828,0.8652,0.8568,0.8568,0.8568,0.8388,0.7852,0.652,0.5453,0.483,0.3226,0.2243,0.1974,0.1705,0.1525,0.1436,0.1436,0.1436,0.1436,0.1436,0.1436,0.1436,0.1436,0.1436,0.1435,0.1419,0.0789,-0.0173,-0.1238,-0.2876,-0.4701,-0.4937,-0.5018,-0.5018,-0.5018,-0.5018,-0.5018,0.0,0.0,0.0,0.0,0.0,0.0,0.0,0.0,2.2834,2.2175,2.1227,2.0279,1.966,1.9142,1.8777,1.8496,1.7826,1.6883,1.5536,1.5673,1.5447,1.4506,1.4732,1.4657,1.4341,1.4166,1.3906,1.3313,1.3222,1.2875,1.21,1.21,1.1585,1.0641,1.1068,1.0549,0.9515,0.9676,0.9144,0.8181,0.7826,0.7735,0.7559,0.7044,0.652,0.6435,0.7749,0.8886,0.9763,0.9845,1.0509,1.1177,1.1133,1.1324,1.1509,1.1241,1.0902,0.0,0.0,0.0,0.0,0.0,0.0,0.0,0.0,0.0,1.1849,1.1409,1.1083,1.0593,0.9853,1.0085,1.0209,0.9875,0.9928,0.9951,0.9689,0.9602,0.9428,0.8999,0.8828,0.8656,0.8568,0.8568,0.8476,0.83,0.6697,0.563,0.5453,0.3585,0.2424,0.2243,0.1974,0.1705,0.1436,0.1436,0.1436,0.1436,0.1436,0.1436,0.1436,0.1436,0.1436,0.1346,0.0986,0.0886,0.0692,-0.1411,-0.3219,-0.4653,-0.4789,-0.4937,-0.4937,-0.5018,-0.5018,-0.5018,0.0,0.0,0.0,0.0,0.0,0.0,0.0,0.0,0.0,2.3027,2.2101,2.1164,2.0526,1.9715,1.8986,1.8267,1.7858,1.734,1.6684,1.6335,1.6,1.575,1.5456,1.5235,1.5006,1.4573,1.4237,1.3997,1.3737,1.3307,1.2619,1.2619,1.2357,1.1843,1.1843,1.1843,1.1666,1.1499,1.1225,1.0778,1.0178,0.9826,0.9552,0.9314,0.879,0.8352,0.9419,1.0029,1.0434,1.0924,1.1352,1.179,1.2777,1.3098,1.2965,1.2429,1.1933,1.1387,1.0572,1.0907,1.1468,1.1241,1.2107,1.2902,0.0,0.0,1.2082,1.1974,1.1588,1.1161,1.1075,1.0838,1.0514,1.0514,1.0193,0.9951,0.9951,0.9777,0.9519,0.9257,0.8999,0.8823,0.8656,0.8568,0.8208,0.7319,0.6254,0.5364,0.4476,0.3229,0.2424,0.2243,0.1974,0.1705,0.1436,0.1436,0.1436,0.1436,0.1436,0.1436,0.1436,0.1436,0.1436,0.1345,-0.0358,-0.1062,-0.1127,-0.3209,-0.4127,-0.4281,-0.4425,-0.4543,-0.4779,-0.4937,-0.5018,-0.5018,0.0,0.0,0.0,0.0,0.0,0.0,0.0,0.0,0.0,0.0,2.2847,2.2224,2.1542,2.0473,1.9825,1.9865,1.9062,1.8295,1.7742,1.7204,1.6627,1.6109,1.5754,1.5703,1.6049,1.5311,1.4977,1.5054,1.4398,1.3893,1.3548,1.3548,1.3288,1.2863,1.313,1.2954,1.2595,1.2772,1.2845,1.2826,1.2565,1.231,1.2128,1.2049,1.1541,1.0844,1.0052,1.0334,0.0,1.127,1.1472,1.1933,1.3368,1.3528,1.306,1.2713,1.2444,1.2178,1.1808,1.1706,0.0,0.0,1.2425,1.2625,1.2565,1.2542,1.2397,1.2077,1.21,1.1929,1.1408,1.1154,1.0895,0.0,1.0294,1.0038,1.0038,0.9864,0.9777,0.9515,0.9257,0.8999,0.8656,0.8032,0.7764,0.7944,0.6074,0.4921,0.5097,0.3585,0.2604,0.2424,0.2154,0.1885,0.1615,0.1436,0.1436,0.1436,0.1436,0.1436,0.1436,0.1436,0.1436,0.1345,0.0,-0.0885,-0.1387,-0.288,-0.3729,-0.4216,-0.4349,-0.4462,-0.4543,-0.4779,-0.4937,-0.5018,0.0,0.0,0.0,0.0,0.0,0.0,0.0,0.0,0.0,0.0,0.0,2.2967,2.2163,2.1227,2.0782,2.1215,2.0333,1.9552,1.9048,1.837,1.7749,1.7133,1.6608,1.6661,1.7317,1.6601,1.6191,1.6018,1.5455,1.4887,1.4475,1.4475,1.4384,1.4119,1.4482,1.4384,1.4021,1.4357,1.4685,1.492,1.4754,1.4747,1.4664,1.4343,1.3878,1.3033,1.0936,1.071,1.1272,1.1381,1.132,1.156,1.3309,1.3428,1.2857,1.2926,1.2734,1.2514,1.2632,0.0,0.0,1.2912,1.2763,1.2559,1.2747,1.279,1.2619,1.2272,1.2448,1.2534,1.1843,1.1585,1.1413,1.1063,1.0549,1.0207,1.0207,1.0038,0.9864,0.9602,0.9432,0.9262,0.8828,0.776,0.7408,0.812,0.5808,0.4565,0.5275,0.3765,0.2784,0.2513,0.2334,0.2154,0.1794,0.1615,0.1436,0.1436,0.1436,0.1436,0.1436,0.1436,0.1436,0.1345,0.009,-0.0711,-0.1398,-0.2718,-0.3579,-0.4172,-0.4202,-0.4229,-0.4309,-0.4467,-0.4623,-0.4859,0.0,0.0,0.0,0.0,0.0,0.0,0.0,0.0,0.0,0.0,0.0,0.0,0.0,2.2039,2.1916,2.1616,2.1553,2.1227,2.059,2.0146,1.9712,1.9344,1.8723,1.8574,1.8815,1.8594,1.8035,1.7001,1.6919,1.6355,1.5394,1.5394,1.5643,1.6049,1.6057,1.6214,1.6609,1.6585,1.683,1.7172,1.6732,1.6806,1.7058,1.6018,1.5331,1.456,1.2288,1.1243,1.0967,1.1192,1.0784,1.055,1.264,1.2883,1.2473,1.3272,1.2837,1.2221,1.2508,1.2578,1.2641,1.2921,1.3021,1.3045,1.3052,1.2875,1.2705,1.2705,1.2705,1.2705,1.2619,1.2272,1.1929,1.1929,1.1149,1.0549,1.0549,1.0207,0.9864,0.9602,0.9602,0.9519,0.0,0.7933,0.7139,0.7139,0.5364,0.43,0.4297,0.3409,0.2784,0.2513,0.2513,0.2244,0.1794,0.1794,0.1615,0.1436,0.1436,0.1436,0.1436,0.1436,0.1436,0.1256,-0.0537,-0.1342,-0.1515,-0.3249,-0.395,-0.4014,-0.3834,-0.3921,-0.4079,-0.4079,-0.4233,-0.4462,0.0,0.0,0.0,0.0,0.0,0.0,0.0,0.0,0.0,0.0,0.0,0.0,0.0,0.0,0.0,0.0,2.2628,2.1916,2.1916,2.0616,1.9868,1.9792,1.9035,1.8948,1.9678,1.9256,1.8762,1.8292,1.7819,1.7188,1.6229,1.655,1.6788,1.6952,1.7123,1.735,1.7738,1.79,1.8372,1.9018,1.8841,1.861,1.8309,1.783,1.6974,1.5862,0.0,1.2635,1.1402,1.0689,1.0634,1.1158,1.2772,1.2497,1.1714,1.2421,1.2336,1.2311,1.34,1.3568,1.3391,1.3695,1.3587,1.3483,1.3307,1.3137,1.2966,1.2966,1.265,1.2445,1.2445,1.1887,1.1492,1.1741,1.1174,1.0895,1.1042,1.0722,1.0381,1.0294,0.9859,0.0,0.0,0.0,0.0,0.7312,0.4919,0.3676,0.4297,0.3409,0.2873,0.2784,0.2604,0.235,0.2107,0.1897,0.1717,0.1466,0.1445,0.1436,0.1436,0.1436,0.1068,0.0439,-0.079,-0.1653,-0.231,-0.3494,-0.3946,-0.3932,-0.381,-0.3841,-0.3921,-0.4079,-0.4157,-0.4233,0.0,0.0,0.0,0.0,0.0,0.0,0.0,0.0,0.0,0.0,0.0,0.0,0.0,0.0,0.0,0.0,0.0,2.317,2.2895,2.1732,2.085,2.0412,1.991,1.9819,2.0298,1.9984,1.9593,1.9219,1.8747,1.8118,1.7338,1.7624,1.7925,1.8158,1.8327,1.8647,1.9107,1.9432,1.975,2.0159,2.0149,1.9897,1.9295,1.8826,1.7968,0.0,1.5271,1.3918,1.2552,1.1036,1.0665,1.1171,1.246,1.235,1.1837,1.2176,1.2336,1.2555,1.3844,1.4035,1.4029,1.4343,1.4159,1.3899,1.3737,1.3483,1.3281,1.3102,1.2773,1.2371,1.2273,1.1792,1.152,1.1775,1.1477,1.1226,1.1552,1.0982,1.0636,1.0636,1.012,0.9777,0.0,0.0,0.0,0.7489,0.483,0.3499,0.43,0.3409,0.2883,0.2903,0.2813,0.2566,0.2246,0.2018,0.182,0.1464,0.1444,0.1429,0.1419,0.1419,0.0964,0.0086,-0.0859,-0.1787,-0.268,-0.3526,-0.3899,-0.3889,-0.3799,-0.3763,-0.3841,-0.3921,-0.4001,-0.4157,0.0,0.0,0.0,0.0,0.0,0.0,0.0,0.0,0.0,0.0,0.0,0.0,0.0,0.0,0.0,0.0,0.0,0.0,2.3433,2.3301,2.2688,2.1215,2.1354,2.123,2.0614,2.0813,2.0552,1.9693,1.9594,1.9184,1.8565,1.8417,1.8833,1.9612,1.9612,1.9934,2.0575,2.0981,2.0893,2.0501,2.0724,2.0522,1.9961,1.9,1.8307,1.7583,1.5838,1.4976,1.441,1.2211,1.1105,1.0848,1.1814,1.2453,1.2749,1.2574,1.27,1.299,1.3817,1.4225,1.4458,1.5011,1.4741,1.4398,1.4166,1.3899,1.3555,1.3118,1.2795,1.2531,1.2271,0.0,1.1986,1.2252,1.1887,1.1729,1.198,1.1235,1.0636,0.0,0.0,0.0,0.0,0.0,0.0,0.7665,0.0,0.3853,0.43,0.3413,0.2903,0.2956,0.2961,0.2806,0.2293,0.2246,0.1923,0.1433,0.1431,0.1416,0.1388,0.1388,0.0857,0.0,-0.0922,-0.1843,-0.2755,-0.3516,-0.3891,-0.3883,-0.3797,-0.3763,-0.3763,-0.3763,-0.3921,-0.4157,0.0,0.0,0.0,0.0,0.0,0.0,0.0,0.0,0.0,0.0,0.0,0.0,0.0,0.0,0.0,0.0,0.0,0.0,2.4305,2.3813,2.3018,2.1907,2.1608,2.119,2.0631,2.066,2.0439,1.9899,2.0092,1.9915,1.9292,1.9068,1.9283,1.9875,1.9506,1.96,2.0052,2.0419,2.0638,2.0679,2.0833,2.0571,2.0014,1.9645,1.9013,1.8154,1.7018,1.6572,1.6105,1.336,1.2641,1.2797,1.2797,1.2824,1.2962,1.3326,1.3118,1.3063,1.4832,1.5126,1.4982,1.522,1.5235,1.5061,1.4657,1.4068,1.3569,1.349,1.2654,1.2023,1.1955,1.1708,0.0,1.198,1.2104,0.0,1.2492,1.2015,0.0,1.1154,0.0,1.0294,1.0038,0.9244,0.0,0.0,0.6154,0.4383,0.4561,0.3545,0.2943,0.2958,0.3003,0.2959,0.263,0.2167,0.1818,0.1401,0.138,0.1366,0.1358,0.1358,0.0503,-0.0901,-0.1146,-0.2108,-0.351,-0.3726,-0.3797,-0.3795,-0.3773,-0.3763,-0.3763,-0.3763,-0.3921,-0.4079,0.0,0.0,0.0,0.0,0.0,0.0,0.0,0.0,0.0,0.0,0.0,0.0,0.0,0.0,0.0,0.0,0.0,0.0,0.0,2.4363,2.3509,2.2193,2.1861,2.1348,2.0551,2.0526,2.0512,2.0565,2.0621,2.0508,2.0359,1.9869,1.9909,2.041,1.9919,1.9919,2.0216,2.0776,2.0941,0.0,0.0,2.0698,2.0143,1.9661,1.9168,1.8607,1.7569,1.7278,1.7036,1.5283,1.4607,1.4384,1.3784,1.3447,1.3427,1.3639,0.0,1.3428,1.4643,1.5068,1.5242,1.5242,1.5401,1.5357,1.4648,1.4159,1.3804,1.3307,1.2603,1.1997,1.192,1.1682,0.0,0.0,0.0,0.0,1.2668,1.2272,1.1929,0.0,1.0977,0.0,1.0294,0.9767,0.951,0.0,0.7126,0.5468,0.534,0.4217,0.3446,0.3037,0.3045,0.2945,0.2643,0.2105,0.1683,0.1541,0.1355,0.1341,0.1328,0.1328,0.0573,-0.0719,0.0,-0.1984,-0.3294,-0.3606,-0.3763,-0.3763,-0.3763,-0.3763,-0.3763,-0.3763,-0.3843,-0.3999,0.0,0.0,0.0,0.0,0.0,0.0,0.0,0.0,0.0,0.0,0.0,0.0,0.0,0.0,0.0,0.0,0.0,0.0,0.0,0.0,2.4041,2.2239,2.2093,2.1518,2.0384,2.0297,2.0561,2.1066,2.0994,2.1097,2.1351,2.0732,2.0576,2.0877,2.0526,2.0456,2.0667,2.1294,2.1395,2.1075,2.1063,2.083,2.0399,0.0,1.9166,1.8982,1.7833,1.7492,1.7548,1.7291,1.6561,1.5705,1.4838,1.436,1.4076,1.3805,1.3692,1.3702,1.3958,1.4608,1.5187,1.5126,1.5367,1.536,1.4472,1.4212,1.3863,1.2946,0.0,1.2069,1.2139,1.1766,1.1703,1.2228,0.0,1.2403,1.2668,1.2357,1.21,1.2015,1.1241,1.0722,1.0636,1.0294,1.0038,1.0038,0.8296,0.6949,0.6438,0.517,0.4042,0.3112,0.3064,0.2887,0.2504,0.2012,0.1797,0.1757,0.1504,0.1322,0.1377,0.1296,0.08,-0.0078,0.0,0.0,-0.2588,-0.345,-0.3763,-0.3763,-0.3763,-0.3763,-0.3763,-0.3763,-0.3763,-0.3841,0.0,0.0,0.0,0.0,0.0,0.0,0.0,0.0,0.0,0.0,2.8654,2.8542,0.0,0.0,0.0,0.0,0.0,0.0,0.0,0.0,0.0,2.277,2.2058,2.1186,2.0182,1.9876,2.001,2.0538,2.1083,2.1504,2.1769,2.1202,2.0935,2.0893,2.0358,2.0094,2.0049,2.0457,2.0729,2.0963,2.1092,2.1035,2.0775,2.0172,0.0,0.0,1.7901,1.7658,1.7751,1.7315,1.7102,1.6979,1.6119,1.5328,1.4655,1.3961,1.3552,1.3366,1.3812,1.4144,1.4374,1.4769,1.5005,1.5,1.4216,1.3554,0.0,0.0,1.2051,1.1592,1.1986,1.1766,1.1703,1.2228,1.2312,1.2403,1.2668,1.2619,1.2448,0.0,0.0,0.0,0.0,0.0,0.0,0.0,0.0,0.0,0.7811,0.5983,0.4328,0.3084,0.298,0.2826,0.2449,0.231,0.2175,0.1879,0.1685,0.1509,0.1503,0.1344,0.0788,-0.0078,0.0,0.0,-0.2588,-0.345,-0.3763,-0.3763,-0.3763,-0.3763,-0.3763,-0.3763,-0.3763,-0.3841,0.0,0.0,0.0,0.0,0.0,0.0,0.0,2.6805,2.7078,2.7384,2.7765,2.8042,2.8155,2.8429,2.8171,0.0,0.0,0.0,0.0,0.0,0.0,0.0,0.0,0.0,2.1134,2.0201,2.0146,2.102,0.0,2.1762,2.2285,2.1815,2.1376,2.1019,2.0816,2.0571,2.0205,2.0839,2.1158,2.1336,2.1411,2.1112,0.0,0.0,0.0,0.0,0.0,1.7491,1.7571,1.7083,1.6839,1.6653,1.6195,1.5458,1.469,1.398,1.3542,1.3324,1.3169,1.3705,1.4294,1.4287,1.4762,1.5019,1.3985,0.0,0.0,0.0,1.1666,1.1275,1.163,1.1409,0.0,1.1624,1.1811,1.195,1.2077,1.233,0.0,0.0,0.0,0.0,0.0,0.0,0.0,0.0,0.0,0.0,0.8257,0.6034,0.4266,0.3008,0.2853,0.2777,0.252,0.2381,0.2179,0.2074,0.1816,0.1729,0.1729,0.1572,0.1256,0.0784,-0.0705,0.0,-0.1959,-0.3292,-0.3763,-0.3763,-0.3763,-0.3763,-0.3763,-0.3763,-0.3763,-0.3756,0.0,0.0,0.0,0.0,0.0,0.0,0.0,2.5988,2.6096,2.6428,2.7137,2.766,2.778,2.8073,2.7974,0.0,0.0,0.0,0.0,0.0,0.0,0.0,0.0,0.0,0.0,0.0,0.0,0.0,0.0,0.0,0.0,0.0,0.0,0.0,0.0,0.0,2.0775,2.14,2.1655,0.0,0.0,0.0,0.0,0.0,0.0,0.0,0.0,1.7053,1.71,1.6701,1.6236,1.5852,1.5634,1.5119,1.4373,1.3761,1.3561,1.3397,1.2629,1.3515,1.4476,1.3853,1.4545,1.4984,1.365,1.3215,0.0,1.1785,1.1261,1.1099,1.1301,1.11,1.0959,0.0,1.125,1.1401,1.1516,1.1884,1.2186,0.0,0.0,0.0,0.0,0.0,0.0,0.0,0.0,0.0,0.805,0.6172,0.4412,0.2993,0.2892,0.2726,0.2582,0.2375,0.2275,0.2275,0.2042,0.1964,0.1964,0.1729,0.1572,0.1493,-0.047,0.0,0.0,-0.3134,-0.3763,-0.3763,-0.3763,-0.3763,-0.3763,-0.3763,-0.375,-0.3724,0.0,0.0,0.0,0.0,0.0,0.0,0.0,2.6361,2.6428,2.6879,2.7414,2.769,2.7488,2.769,2.766,0.0,0.0,0.0,0.0,0.0,0.0,0.0,0.0,0.0,0.0,0.0,0.0,0.0,0.0,0.0,0.0,0.0,0.0,0.0,0.0,0.0,0.0,2.1714,0.0,0.0,0.0,0.0,0.0,0.0,0.0,0.0,0.0,1.6198,1.6314,1.5884,0.0,1.4959,1.4746,1.4323,1.3753,1.3238,0.0,0.0,1.2792,1.3827,1.4872,1.3799,1.4221,1.4609,1.3256,0.0,1.2173,1.1421,1.0963,1.086,1.1404,1.1013,1.0814,1.1273,1.1016,1.0966,1.1461,1.1576,0.0,0.0,0.0,0.0,0.0,0.0,0.0,0.0,0.0,0.0,0.0,0.6681,0.5458,0.3282,0.3182,0.298,0.2519,0.2514,0.251,0.2431,0.2275,0.2196,0.2196,0.1806,0.1572,0.1493,0.0,0.0,0.0,-0.3134,-0.3763,-0.3763,-0.3763,-0.3763,-0.3763,-0.3763,-0.371,-0.3638,0.0,0.0,0.0,0.0,0.0,0.0,2.5809,2.5823,2.5837,2.6011,2.6534,2.7049,2.7335,2.6826,2.6587,2.6938,0.0,0.0,0.0,0.0,0.0,0.0,0.0,0.0,0.0,0.0,0.0,2.0674,0.0,0.0,0.0,0.0,0.0,0.0,0.0,0.0,0.0,0.0,0.0,0.0,0.0,0.0,0.0,0.0,0.0,0.0,0.0,0.0,1.5674,0.0,0.0,0.0,1.3714,1.3307,0.0,0.0,1.3241,1.3808,1.2976,1.4011,1.5188,1.4353,1.4633,1.4725,1.3361,0.0,1.2387,1.1346,1.0921,1.073,1.0764,1.0586,1.0388,1.0418,1.0424,1.052,1.0755,0.0,0.0,0.0,0.0,0.0,0.0,0.0,0.0,0.0,0.0,0.0,0.0,0.6827,0.5843,0.4214,0.3523,0.3089,0.2826,0.2589,0.2511,0.2511,0.2431,0.2353,0.2353,0.2119,0.1885,0.165,0.0,0.0,0.0,-0.3134,-0.3763,-0.3763,-0.3763,-0.3763,-0.3756,-0.3701,-0.3658,-0.3612,0.0,0.0,0.0,0.0,0.0,2.5104,2.5133,2.5287,2.5342,2.5175,2.5673,2.6176,2.6616,2.5892,2.5659,2.6414,2.5906,0.0,0.0,0.0,0.0,0.0,0.0,0.0,0.0,0.0,2.0157,2.0569,2.0957,0.0,0.0,0.0,0.0,0.0,0.0,0.0,0.0,0.0,0.0,0.0,0.0,0.0,0.0,0.0,0.0,0.0,0.0,0.0,0.0,0.0,0.0,1.3277,1.3042,1.2613,1.2251,1.2334,1.3022,1.3656,1.3202,1.4215,1.5337,1.4752,1.4917,1.4891,0.0,0.0,1.2439,1.1361,1.0996,1.0744,1.0491,1.0364,1.0244,0.9996,1.0089,1.0176,1.0244,1.0669,0.0,0.0,0.0,0.0,0.0,0.0,0.0,0.0,0.0,0.0,0.0,0.7352,0.6311,0.4965,0.3872,0.3219,0.3062,0.2668,0.2511,0.2511,0.2511,0.2511,0.2511,0.2275,0.2119,0.1885,0.0,0.0,0.0,-0.3056,-0.3763,-0.3761,-0.3734,-0.3724,-0.3712,-0.3622,-0.3571,-0.353,0.0,0.0,0.0,0.0,0.0,0.0,2.4567,2.5007,2.5175,2.4567,2.5007,2.5287,2.5063,2.4811,2.4924,2.5398,2.4951,0.0,0.0,0.0,0.0,0.0,0.0,0.0,0.0,0.0,2.1158,2.0718,2.0718,2.123,2.2309,2.2668,0.0,0.0,0.0,0.0,0.0,0.0,0.0,0.0,0.0,0.0,0.0,0.0,0.0,0.0,0.0,0.0,0.0,0.0,0.0,0.0,0.0,1.2498,1.2126,1.239,1.2683,1.3024,1.35,1.4437,1.5223,1.4688,1.4948,1.4934,1.3419,1.2681,1.2084,1.1437,1.1052,1.0807,1.0807,1.0491,1.0301,1.0301,1.0117,1.0026,1.017,1.0443,0.0,0.0,0.0,0.0,0.0,0.0,0.0,0.0,0.0,0.0,0.0,0.8093,0.7011,0.5386,0.4304,0.3608,0.3141,0.2668,0.2511,0.2511,0.2511,0.2511,0.2511,0.2275,0.2196,0.0,0.0,0.0,0.0,-0.2978,-0.3763,-0.3754,-0.3663,-0.3628,-0.3618,-0.3532,-0.3444,-0.3436,0.0,0.0,0.0,0.0,0.0,0.0,0.0,2.4421,2.4234,2.4452,2.4496,2.454,2.4754,2.4182,2.3949,2.4425,2.461,0.0,0.0,0.0,0.0,0.0,0.0,0.0,0.0,0.0,2.1192,2.0718,2.1041,2.1461,2.1913,2.249,2.3148,2.376,0.0,0.0,0.0,0.0,0.0,0.0,0.0,0.0,0.0,0.0,0.0,0.0,0.0,0.0,0.0,0.0,0.0,0.0,0.0,0.0,0.0,1.1874,1.268,1.3548,1.3461,1.4624,1.559,1.4824,1.4706,1.4454,1.3061,1.2645,1.2277,1.15,1.1122,1.0933,1.0807,1.0618,1.0434,1.0301,1.0244,1.0213,0.0,0.0,0.0,0.0,0.0,0.0,0.0,0.0,0.0,0.0,0.0,0.0,0.0,0.0,0.7621,0.6395,0.5386,0.4535,0.3995,0.3606,0.3215,0.2904,0.2904,0.2747,0.2511,0.2431,0.0,0.0,0.0,0.0,0.0,-0.2352,-0.3184,-0.3667,-0.3338,-0.3293,-0.353,-0.344,-0.3389,-0.3354,0.0,0.0,0.0,0.0,0.0,0.0,0.0,2.3982,2.404,2.4144,2.3982,2.3852,2.3852,2.3361,2.3173,2.3623,2.3872,0.0,0.0,0.0,0.0,0.0,0.0,0.0,0.0,2.2141,2.1531,2.0978,2.1531,2.1851,2.2046,2.2777,2.3366,2.3832,2.2616,0.0,0.0,0.0,0.0,0.0,0.0,0.0,1.6374,0.0,0.0,0.0,0.0,0.0,0.0,0.0,0.0,0.0,0.0,0.0,0.0,0.0,1.2313,1.338,1.341,1.4256,1.4985,1.4663,1.4391,0.0,1.293,1.2534,1.2254,1.1597,1.131,1.1122,1.0933,1.0807,1.0618,1.0428,1.0428,1.043,0.0,0.0,0.0,0.0,0.0,0.0,0.0,0.0,0.0,0.0,0.0,0.0,0.0,0.0,0.8313,0.7472,0.6079,0.4999,0.4384,0.3997,0.353,0.3062,0.3062,0.2904,0.2511,0.2511,0.0,0.0,0.0,0.0,0.0,-0.1941,-0.276,-0.3169,-0.2962,-0.306,-0.322,-0.3275,-0.3311,-0.3303,0.0,0.0,0.0,0.0,0.0,0.0,0.0,2.3726,2.4248,2.3633,2.3504,2.3238,2.2542,2.2445,2.2555,2.2957,0.0,0.0,0.0,0.0,0.0,0.0,0.0,0.0,2.2546,2.243,2.2121,2.1606,2.2121,2.2455,2.2705,2.339,2.3752,2.3883,2.2628,2.1512,2.0316,1.7957,1.7123,1.7357,1.6658,1.6374,0.0,0.0,0.0,0.0,0.0,0.0,0.0,0.0,0.0,0.0,0.0,0.0,0.0,0.0,0.0,0.0,0.0,1.3474,1.3738,1.4396,1.4042,1.341,1.2908,1.2413,0.0,1.1872,1.1553,1.124,1.1122,1.0933,1.0807,1.0624,1.0624,0.0,0.0,0.0,0.0,0.0,0.0,0.0,0.0,0.0,0.0,0.0,0.0,0.0,0.0,0.0,0.9084,0.8456,0.6458,0.5154,0.4538,0.4075,0.3684,0.3219,0.3141,0.2904,0.2511,0.2511,0.0,0.0,0.0,0.0,0.0,-0.1675,-0.2411,-0.2545,-0.2712,-0.2797,-0.2853,-0.3121,-0.3226,-0.3226,0.0,0.0,0.0,0.0,0.0,0.0,0.0,0.0,0.0,0.0,2.2739,2.2321,2.2051,2.1714,2.1537,0.0,0.0,0.0,0.0,0.0,0.0,0.0,0.0,0.0,2.2662,2.283,2.2874,2.2749,2.2874,2.3163,2.3676,2.4083,2.4269,2.4195,2.2874,2.084,1.8389,1.7337,1.6751,1.6648,1.6488,1.6077,0.0,0.0,0.0,0.0,1.407,1.3467,0.0,0.0,0.0,0.0,0.0,0.0,0.0,0.0,1.1725,1.2666,1.2391,0.0,1.3857,1.375,1.347,1.2989,0.0,1.2243,1.2058,1.1872,1.1553,1.1303,1.124,1.1122,1.0996,1.0807,1.0744,1.0681,0.0,0.0,0.0,0.0,0.0,0.0,0.0,0.0,0.0,0.0,0.0,0.0,0.0,0.0,0.9306,0.8456,0.7161,0.6244,0.555,0.5012,0.4545,0.4073,0.3763,0.3374,0.2982,0.2668,0.0,0.0,0.0,0.0,-0.0076,-0.0668,-0.1598,-0.2707,-0.2464,-0.263,-0.3119,-0.3167,-0.3226,-0.3226,0.0,0.0,0.0,0.0,0.0,0.0,0.0,0.0,0.0,0.0,0.0,0.0,0.0,0.0,0.0,0.0,0.0,0.0,0.0,0.0,0.0,0.0,0.0,2.2957,2.2678,2.3157,2.3404,2.3527,2.4017,2.4293,2.4444,2.4925,2.4898,2.4287,2.2273,2.0035,1.7856,1.7001,1.642,1.6181,1.6009,0.0,0.0,0.0,0.0,0.0,1.3528,1.2981,0.0,1.2297,1.1926,1.1553,0.0,0.0,0.0,0.0,1.1421,1.2158,1.222,1.2956,1.37,1.3338,1.3042,1.2744,1.2498,1.2243,1.2058,1.1934,1.1685,1.1428,1.1303,1.1247,1.1122,1.0996,1.1044,0.0,0.0,0.0,0.0,0.0,0.0,0.0,0.0,0.0,0.0,0.0,0.0,0.0,0.0,0.0,0.9911,0.9372,0.8008,0.6861,0.5941,0.5323,0.4779,0.4384,0.3997,0.353,0.3062,0.2668,0.0,0.0,0.0,0.0,0.0222,-0.0145,-0.0993,-0.2028,-0.1936,-0.2113,-0.2488,-0.269,-0.2758,-0.2757,0.0,0.0,0.0,0.0,0.0,0.0,0.0,0.0,0.0,0.0,0.0,0.0,0.0,0.0,0.0,0.0,0.0,0.0,0.0,0.0,0.0,0.0,0.0,2.2629,2.2677,2.338,2.389,2.4192,2.5094,2.5423,2.5201,2.5734,2.5318,2.3876,2.1272,1.9231,1.7653,1.6705,1.6124,1.5816,1.5468,0.0,0.0,0.0,0.0,0.0,0.0,0.0,0.0,1.1872,1.1553,1.1303,1.124,0.0,0.0,0.0,0.0,0.0,1.2205,1.2887,1.339,1.3103,1.2867,1.2621,1.2629,1.2375,1.212,1.2127,1.1872,1.1575,1.1493,1.1437,0.0,0.0,0.0,0.0,0.0,0.0,0.0,0.0,0.0,0.0,0.0,0.0,0.0,0.0,0.0,0.0,0.0,0.0,0.0,1.0513,0.877,0.7246,0.617,0.5401,0.4857,0.4462,0.4075,0.3684,0.3295,0.2891,0.0,0.0,0.0,0.0,0.065,0.007,-0.0557,-0.1181,-0.1494,-0.1614,-0.1748,-0.2087,-0.2221,-0.2221,0.0,0.0,0.0,0.0,0.0,0.0,0.0,0.0,0.0,0.0,0.0,0.0,0.0,0.0,0.0,0.0,0.0,0.0,0.0,0.0,0.0,2.1879,2.2414,2.2707,2.2719,2.3612,2.4374,2.492,2.5202,2.5555,2.6021,2.6425,2.5,2.2011,2.0318,1.8376,1.6376,1.5954,1.5662,1.5468,1.5313,0.0,0.0,0.0,0.0,0.0,0.0,0.0,0.0,1.149,1.1365,1.124,1.0989,0.0,0.0,0.0,0.0,0.0,1.1981,1.2589,1.313,1.339,1.3155,1.2867,1.2621,1.2436,1.2243,1.212,1.1934,1.1829,0.0,1.2027,1.1992,0.0,0.0,0.0,0.0,0.0,0.0,0.0,0.0,0.0,0.0,0.0,0.0,0.0,0.0,0.0,0.0,0.0,0.0,1.0513,0.877,0.7706,0.7476,0.6012,0.5168,0.4937,0.4465,0.4307,0.4148,0.3681,0.3411,0.0,0.0,0.2049,0.1053,0.0547,-0.0406,-0.1557,-0.155,-0.1817,-0.2087,-0.2154,-0.2221,-0.2221,0.0,0.0,0.0,0.0,0.0,0.0,0.0,0.0,0.0,0.0,0.0,0.0,0.0,0.0,0.0,0.0,0.0,0.0,0.0,0.0,0.0,2.0988,2.186,2.2457,2.2729,2.368,2.4413,2.4815,2.5382,2.5802,2.605,2.544,2.3879,2.138,1.9734,1.7843,1.5979,1.54,1.501,1.4715,0.0,0.0,0.0,0.0,0.0,0.0,0.0,0.0,0.0,0.0,1.1059,1.0933,1.0807,0.0,0.0,0.0,0.0,0.0,1.1344,1.1958,1.256,1.3,1.305,1.2989,1.2867,1.2552,1.2305,1.2243,1.2058,0.0,0.0,0.0,1.2336,0.0,0.0,0.0,0.0,0.0,0.0,0.0,0.0,0.0,0.0,0.0,0.0,0.0,0.0,0.0,0.0,0.0,0.0,0.0,0.9604,0.8694,0.8156,0.693,0.6015,0.5326,0.4714,0.4451,0.4449,0.3817,0.3379,0.3188,0.0,0.2081,0.082,0.0608,-0.0202,-0.1344,-0.1344,-0.1412,-0.1614,-0.1614,-0.1748,-0.1951,0.0,0.0,0.0,0.0,0.0,0.0,0.0,0.0,0.0,0.0,0.0,0.0,0.0,0.0,0.0,0.0,0.0,0.0,0.0,0.0,1.8844,2.0139,2.1052,2.1905,2.2639,2.3595,2.4213,2.4364,2.5189,2.5618,2.5746,2.4308,2.2731,2.1029,1.9123,1.7256,1.5518,1.4717,1.43,1.401,0.0,0.0,0.0,0.0,0.0,0.0,0.0,0.0,0.0,0.0,0.0,0.0,0.0,0.0,0.0,1.0238,1.011,1.0168,1.0836,1.1454,1.2081,1.2664,1.3048,1.319,1.3149,1.2853,1.2602,1.2554,1.2491,0.0,0.0,1.2793,0.0,0.0,0.0,0.0,0.0,0.0,0.0,0.0,0.0,0.0,0.0,0.0,0.0,0.0,0.0,0.0,0.0,0.0,0.0,0.0,1.0368,0.9508,0.8463,0.7635,0.6652,0.5511,0.4949,0.459,0.4561,0.3935,0.3493,0.3215,0.3057,0.2191,0.0806,0.0739,0.0,-0.1009,-0.1009,-0.1076,-0.1076,-0.1076,-0.1277,-0.1547,0.0,0.0,0.0,0.0,0.0,0.0,0.0,0.0,0.0,0.0,0.0,0.0,0.0,0.0,0.0,0.0,0.0,0.0,0.0,0.0,1.8108,1.9625,1.9887,2.0777,2.2298,2.3363,2.3913,2.3913,2.4371,2.4886,2.5312,2.3576,2.1969,2.0366,1.8325,1.6355,1.4575,1.3881,1.3571,1.3511,1.3191,0.0,0.0,0.0,0.0,0.0,0.0,0.0,0.0,0.0,0.0,0.0,0.0,0.0,1.0047,1.0047,0.9983,1.0168,1.0836,1.1406,1.1988,1.2621,1.3351,1.3874,1.3631,1.3505,1.3447,1.3345,1.3279,0.0,0.0,1.3885,0.0,0.0,0.0,0.0,0.0,0.0,0.0,0.0,0.0,0.0,0.0,0.0,0.0,0.0,0.0,0.0,0.0,0.0,0.0,0.0,0.0,0.9659,0.8484,0.7668,0.6634,0.5445,0.5208,0.4993,0.4882,0.4539,0.4407,0.4325,0.3946,0.3023,0.1744,0.1411,0.0404,-0.0809,-0.0809,-0.0942,-0.1076,-0.1076,-0.1143,-0.121,0.0,0.0,0.0,0.0,0.0,0.0,0.0,0.0,0.0,0.0,0.0,0.0,0.0,0.0,0.0,0.0,0.0,0.0,0.0,1.5396,1.6129,1.7696,1.8098,1.8655,1.935,2.1868,2.3224,2.3372,2.3486,2.3694,2.3841,2.2103,2.0451,1.8793,1.7129,1.538,1.3752,1.3147,1.285,1.2728,1.229,1.16,0.0,0.0,0.0,0.0,0.0,0.0,0.0,0.0,1.0053,0.9989,0.9989,0.9926,0.9862,0.9862,0.9862,0.9926,1.004,1.0739,1.151,1.176,1.2679,1.3542,1.3599,1.3623,1.3584,1.3534,1.3534,0.0,0.0,0.0,0.0,0.0,0.0,0.0,0.0,0.0,0.0,0.0,0.0,0.0,0.0,0.0,0.0,0.0,0.0,0.0,0.0,0.0,0.0,0.0,0.0,0.985,0.8403,0.8045,0.7056,0.5542,0.525,0.5151,0.5099,0.4757,0.4428,0.4157,0.3979,0.3019,0.1545,0.1344,0.0538,-0.0607,-0.0742,-0.0876,-0.0943,-0.1076,-0.1076,-0.1143,0.0,0.0,0.0,0.0,0.0,0.0,0.0,0.0,0.0,0.0,0.0,0.0,0.0,0.0,0.0,0.0,0.0,0.0,1.2917,1.3243,1.4072,1.5659,1.5973,1.6456,1.7276,1.9575,2.1008,2.1583,2.18,2.2017,2.2167,2.0505,1.9001,1.758,1.5965,1.4405,1.2903,1.2158,1.1725,1.1538,1.0912,1.0205,0.0,0.0,0.0,0.0,0.0,0.0,0.0,0.0,0.9408,0.967,0.9536,0.96,0.9676,0.9676,0.9676,0.9676,0.9548,1.0315,1.1102,1.104,1.203,1.3134,1.3375,1.3555,1.3616,1.3727,1.3974,1.4086,1.3939,0.0,0.0,0.0,0.0,0.0,0.0,0.0,0.0,0.0,0.0,0.0,0.0,0.0,0.0,0.0,0.0,0.0,0.0,0.0,0.0,0.0,0.0,0.0,0.8324,0.8324,0.7389,0.5583,0.5307,0.5235,0.5232,0.4867,0.4495,0.4228,0.4228,0.3288,0.168,0.168,0.0807,-0.0472,-0.0607,-0.0742,-0.0809,-0.0875,-0.0942,-0.1009,0.0,0.0,0.0,0.0,0.0,0.0,0.0,0.0,0.0,0.0,0.0,0.0,0.0,0.0,0.0,0.0,0.0,0.0,1.0895,1.1154,1.1997,1.3587,1.3646,1.4552,1.648,1.6537,1.7268,1.8594,1.9228,1.9837,2.0449,1.8825,1.7694,1.6927,1.4844,1.338,1.2182,1.0843,1.0142,0.9888,0.9052,0.8474,0.814,0.0,0.0,0.0,0.0,0.0,0.0,0.0,0.8301,0.935,0.8689,0.8952,0.9484,0.9484,0.9484,0.949,0.949,1.0263,1.0936,1.0738,1.171,1.2791,1.3142,1.3431,1.3688,1.4029,1.4668,1.4947,1.4242,0.0,0.0,0.0,0.0,0.0,0.0,0.0,0.0,0.0,0.0,0.0,0.0,0.0,0.0,0.0,0.0,0.0,0.0,0.0,0.0,0.0,0.0,0.0,0.8446,0.8378,0.7453,0.5617,0.5491,0.5292,0.5087,0.4894,0.4831,0.4831,0.4831,0.3889,0.2417,0.2417,0.1344,-0.0337,-0.0472,-0.0607,-0.0742,-0.0539,-0.0607,-0.0742,0.0,0.0,0.0,0.0,0.0,0.0,0.0,0.0,0.0,0.0,0.0,0.0,0.0,0.0,0.0,0.0,0.0,0.0,0.9671,0.9941,1.0458,1.1311,1.1735,1.2237,1.2826,1.3678,1.5411,1.8106,1.8612,1.9009,1.9298,1.7716,1.665,1.6062,1.3699,1.1961,1.0647,1.0009,0.9366,0.8726,0.8329,0.7683,0.6915,0.0,0.0,0.0,0.0,0.0,0.0,0.0,0.0,0.0,0.8823,0.9151,0.9484,0.9484,0.9746,1.0017,1.0017,1.0486,1.0975,1.0905,1.1378,0.0,1.1999,1.2906,1.3758,0.0,1.4429,1.4672,1.418,0.0,0.0,0.0,0.0,0.0,0.0,0.0,0.0,0.0,0.0,0.0,0.0,0.0,0.0,0.0,0.0,0.0,0.0,0.0,0.0,0.0,0.0,0.0,0.9374,0.8788,0.7902,0.6724,0.6083,0.5624,0.5292,0.509,0.5024,0.5024,0.5024,0.4087,0.2552,0.148,0.0673,0.0135,-0.0067,-0.027,-0.0472,-0.0472,-0.0539,-0.0607,0.0,0.0,0.0,0.0,0.0,0.0,0.0,0.0,0.0,0.0,0.0,0.0,0.0,0.0,0.0,0.0,0.0,0.0,0.0,0.8894,0.9248,0.968,1.0024,1.0371,1.0712,1.1397,1.299,1.5471,1.6503,1.7179,1.7342,1.5931,1.5012,1.4379,1.2463,1.0844,0.957,0.9052,0.8205,0.7363,0.6967,0.6388,0.5745,0.0,0.0,0.0,0.0,0.0,0.0,0.0,0.0,0.0,0.7977,0.8501,0.9022,0.9221,0.9664,1.0074,1.0074,1.0528,1.1006,1.0935,1.1159,1.1493,1.1663,0.0,0.0,0.0,0.0,1.4712,0.0,0.0,0.0,0.0,0.0,0.0,0.0,0.0,0.0,0.0,0.0,0.0,0.0,0.0,0.0,0.0,0.0,0.0,0.0,0.0,0.0,0.0,0.0,0.0,0.9894,0.9384,0.8479,0.7251,0.6732,0.6148,0.5561,0.5422,0.5153,0.4888,0.4151,0.3282,0.2283,0.101,0.0472,0.0337,0.027,0.0067,-0.0067,-0.0135,-0.0202,-0.027,0.0,0.0,0.0,0.0,0.0,0.0,0.0,0.0,0.0,0.0,0.3314,0.0,0.0,0.0,0.0,0.0,0.0,0.0,0.0,0.0,0.8285,0.8715,0.8456,0.8711,0.9479,0.9566,1.0178,1.1316,1.3425,1.4606,1.486,1.3733,1.2963,1.2298,1.1034,0.9831,0.8661,0.7852,0.6863,0.5862,0.5213,0.4824,0.4697,0.4506,0.0,0.0,0.0,0.0,0.0,0.0,0.0,0.0,0.6671,0.7321,0.8231,0.8759,0.9331,0.9874,0.9965,1.0478,1.0941,1.0821,1.1083,0.0,1.1807,1.2537,1.3094,1.3175,0.0,0.0,0.0,0.0,0.0,0.0,0.0,0.0,0.0,0.0,0.0,0.0,0.0,0.0,0.0,0.0,0.0,0.0,0.0,0.0,0.0,0.0,0.0,0.0,0.0,0.0,1.0148,1.0085,0.918,0.0,0.7517,0.6933,0.5954,0.5749,0.5286,0.4492,0.2815,0.2012,0.1878,0.0942,0.0539,0.0539,0.0539,0.0472,0.0337,0.0337,0.0202,0.0067,0.0,0.0,0.0,0.0,0.0,0.0,0.0,0.0,0.0,0.0,0.0,0.0,0.0,0.0,0.0,0.0,0.0,0.0,0.0,0.0,0.7146,0.7231,0.6861,0.6492,0.6301,0.6825,0.7618,0.8674,1.1321,1.3014,1.3759,1.2068,1.1359,1.1416,0.9129,0.7483,0.6326,0.6071,0.5315,0.4287,0.3954,0.382,0.3766,0.3646,0.3608,0.0,0.0,0.0,0.0,0.0,0.0,0.0,0.6334,0.6924,0.7507,0.8166,0.8854,0.9489,1.025,1.0688,0.0,1.1193,1.1218,1.1168,1.1261,1.1911,1.2648,1.3112,1.3692,0.0,0.0,0.0,0.0,0.0,0.0,0.0,0.0,0.0,0.0,0.0,0.0,0.0,0.0,0.0,0.0,0.0,0.0,0.0,0.0,0.0,0.0,0.0,0.0,1.124,1.124,1.0598,0.9761,0.0,0.8221,0.7451,0.6683,0.6086,0.5418,0.4686,0.382,0.2952,0.2214,0.1479,0.0942,0.0742,0.0742,0.0607,0.0472,0.0472,0.0404,0.0404,0.0,0.0,0.0,0.0,0.0,0.0,0.0,0.0,0.0,0.0,0.0,0.0,0.0,0.0,0.0,0.0,0.0,0.0,0.0,0.0,0.5714,0.5267,0.4994,0.4809,0.463,0.4896,0.5574,0.6647,0.7838,0.9461,1.1408,1.0074,0.951,0.9535,0.7856,0.6522,0.5376,0.5319,0.4645,0.3562,0.3425,0.3449,0.3424,0.3403,0.3351,0.3351,0.3351,0.0,0.0,0.0,0.0,0.0,0.0,0.0,0.6662,0.7642,0.8393,0.9164,1.0179,1.0661,0.0,1.1341,0.0,1.126,1.1335,1.1706,1.2204,1.2812,0.0,0.0,0.0,0.0,0.0,0.0,0.0,0.0,0.0,0.0,0.0,0.0,0.0,0.0,0.0,0.0,0.0,0.0,0.0,0.0,0.0,0.0,0.0,0.0,1.1926,1.1685,1.1685,1.1358,1.0591,0.9506,0.8982,0.8091,0.6881,0.6017,0.5216,0.455,0.382,0.3021,0.2285,0.1883,0.1481,0.1212,0.1212,0.1077,0.0875,0.0808,0.0808,0.0808,0.0,0.0,0.0,0.0,0.0,0.0,0.0,0.0,0.0,0.0,0.0,0.0,0.0,0.0,0.0,0.0,0.0,0.0,0.0,0.0,0.0,0.3124,0.3124,0.3124,0.3215,0.313,0.3625,0.4748,0.4468,0.5577,0.813,0.7714,0.7513,0.7293,0.6495,0.5627,0.4798,0.4526,0.3858,0.2943,0.2958,0.2999,0.3056,0.3143,0.322,0.322,0.322,0.3212,0.3332,0.325,0.0,0.0,0.0,0.0,0.5679,0.7116,0.7966,0.8627,0.9908,1.0484,1.0858,1.1267,1.1409,0.0,1.1632,1.1706,1.1842,0.0,0.0,0.0,0.0,0.0,0.0,0.0,0.0,0.0,0.0,0.0,0.0,0.0,0.0,0.0,0.0,0.0,0.0,0.0,0.0,0.0,0.0,0.0,1.3734,1.307,1.2421,1.1996,1.1864,1.1996,1.1358,0.9901,0.9506,0.8544,0.7073,0.6203,0.5276,0.442,0.3818,0.3086,0.2354,0.2354,0.2153,0.1816,0.1816,0.168,0.1546,0.1344,0.1277,0.1277,0.0,0.0,0.0,0.0,0.0,0.0,0.0,0.0,0.0,0.0,0.0,0.0,0.0,0.0,0.0,0.0,0.0,0.0,0.2502,0.0,0.0,0.1162,0.1073,0.0895,0.0537,0.0896,0.1596,0.2517,0.2917,0.3465,0.4157,0.4725,0.5201,0.5461,0.386,0.3121,0.3085,0.2118,0.1671,0.1544,0.1653,0.1671,0.168,0.2093,0.241,0.2483,0.2335,0.26,0.2973,0.2896,0.3305,0.0,0.0,0.0,0.502,0.6531,0.7199,0.7795,0.971,0.0,1.0996,0.0,1.1409,1.1484,0.0,0.0,1.1857,0.0,0.0,0.0,0.0,0.0,0.0,0.0,0.0,0.0,0.0,0.0,0.0,0.0,0.0,0.0,0.0,0.0,0.0,0.0,0.0,0.0,0.0,1.4628,1.3914,1.326,1.2482,1.2058,1.2058,1.2058,1.1483,1.0212,0.9139,0.8441,0.8042,0.7907,0.6789,0.502,0.4885,0.409,0.2889,0.2889,0.2755,0.2552,0.2552,0.2552,0.2485,0.2153,0.2085,0.2085,0.0,0.0,0.0,0.0,0.0,0.0,0.0,0.0,0.0,0.0,0.0,0.0,0.0,0.0,0.0,0.0537,0.0805,0.0893,0.0894,0.0894,0.0626,-0.009,-0.009,-0.0179,-0.0359,0.0089,0.0611,0.1279,0.1735,0.2234,0.2764,0.2926,0.3477,0.423,0.3092,0.2651,0.2782,0.1399,0.0883,0.1025,0.0666,0.0595,0.0671,0.153,0.1823,0.193,0.2183,0.2384,0.2542,0.2475,0.2778,0.3289,0.3442,0.0,0.0,0.0,0.6527,0.6894,0.8909,1.0239,1.1037,0.0,1.1519,1.1781,1.2003,0.0,0.0,0.0,0.0,0.0,0.0,0.0,0.0,0.0,0.0,0.0,0.0,0.0,0.0,0.0,0.0,0.0,0.0,0.0,0.0,0.0,0.0,0.0,1.5565,1.4805,1.4163,1.37,1.2858,1.2436,1.2498,1.2436,1.1794,1.0584,0.9332,0.8765,0.8624,0.8441,0.7391,0.5683,0.5683,0.4818,0.3424,0.3424,0.3355,0.3153,0.3153,0.3153,0.3086,0.2824,0.2757,0.2757,0.0,0.0,0.0,0.0,0.0,0.0,0.0,0.0,0.0,0.0,0.0,0.0,0.0,0.0,0.0,0.0,-0.0893,-0.0982,-0.125,-0.125,-0.143,-0.179,-0.179,-0.1701,-0.1612,-0.1141,-0.0687,-0.0252,0.0572,0.1187,0.1678,0.1624,0.2007,0.2817,0.2094,0.1868,0.1963,0.0372,-0.0149,0.0227,-0.0227,-0.0378,-0.0227,0.0689,0.1053,0.1095,0.1711,0.1991,0.1944,0.2118,0.2442,0.283,0.3111,0.3491,0.0,0.0,0.0,0.6696,0.0,0.0,1.0692,1.1261,1.167,1.1991,0.0,0.0,0.0,0.0,0.0,0.0,0.0,0.0,0.0,0.0,0.0,0.0,0.0,0.0,0.0,0.0,0.0,0.0,0.0,0.0,0.0,0.0,0.0,0.0,1.5738,1.505,1.4529,1.413,1.3224,1.2744,1.2867,1.2428,1.1864,1.1031,0.9837,0.9274,0.9274,0.8958,0.8047,0.6662,0.6404,0.5547,0.4287,0.4156,0.3956,0.382,0.382,0.382,0.3823,0.3493,0.3426,0.3426,0.0,0.0,0.0,0.0,0.0,0.0,0.0,0.0,0.0,0.0,0.0,0.0,0.1161,0.0448,-0.0538,-0.197,-0.2684,-0.3484,-0.4641,-0.473,-0.473,-0.4819,-0.4819,0.0,-0.4109,-0.3496,-0.2993,-0.2511,-0.0802,0.0078,0.0156,0.0459,0.0613,0.0704,0.0156,-0.0308,-0.0605,-0.1856,-0.2082,-0.1586,-0.136,-0.136,-0.128,-0.0736,-0.0437,-0.0218,0.051,0.0861,0.1123,0.1894,0.2411,0.2758,0.3092,0.3491,0.4023,0.0,0.0,0.0,0.0,0.9276,0.0,1.123,1.1592,0.0,0.0,0.0,0.0,0.0,0.0,0.0,0.0,0.0,0.0,0.0,0.0,0.0,0.0,0.0,0.0,0.0,0.0,0.0,0.0,0.0,0.0,0.0,0.0,0.0,1.6114,1.5526,1.4932,1.4469,1.3519,1.2989,1.2989,1.1926,1.149,1.174,1.0548,0.9919,0.9919,0.9798,0.921,0.8296,0.7195,0.6338,0.5741,0.5024,0.4764,0.4764,0.4764,0.4764,0.4694,0.4161,0.3961,0.3961,0.0,0.0,0.0,0.0,0.0,0.0,0.0,0.0,0.0,0.0,0.0,0.0,0.0,-0.0447,-0.1611,-0.3401,-0.4206,-0.4828,-0.544,-0.544,-0.5354,-0.4999,-0.4999,-0.4791,-0.4378,-0.4024,-0.3494,-0.2727,-0.1814,-0.1242,-0.0918,-0.0694,-0.0932,-0.141,-0.1175,-0.0936,-0.0696,-0.2266,-0.2574,-0.2083,-0.2281,-0.2397,-0.2358,-0.1459,-0.1068,0.0,0.0,0.0,0.0,0.0,0.0,0.0,0.0,0.0,0.0,0.0,0.0,0.0,0.0,0.0,0.0,1.0071,1.0811,1.154,0.0,0.0,0.0,0.0,0.0,0.0,0.0,0.0,0.0,0.0,0.0,0.0,0.0,0.0,0.0,0.0,0.0,0.0,0.0,0.0,0.0,0.0,0.0,0.0,1.57,1.5352,1.4883,1.4181,1.3932,1.3623,1.3338,1.2174,1.174,1.1926,1.0611,1.011,1.0371,1.0053,0.9856,0.9588,0.8161,0.699,0.6009,0.5286,0.509,0.5289,0.5289,0.5422,0.5491,0.5156,0.502,0.502,0.0,0.0,0.0,0.0,0.0,0.0,0.0,0.0,0.0,0.3472,0.0,0.0,0.0,0.0,-0.2504,-0.483,-0.5458,-0.5988,-0.6599,-0.6688,-0.6508,-0.6242,-0.6242,-0.6008,-0.562,-0.5244,-0.4745,-0.391,-0.3102,-0.2452,-0.2113,-0.1842,-0.2098,-0.2666,-0.2508,-0.2116,-0.1723,-0.2823,-0.3136,-0.2731,-0.3028,-0.3182,-0.3058,-0.2307,0.0,0.0,0.0,0.0,0.0,0.0,0.0,0.0,0.0,0.0,0.0,0.0,0.0,0.0,0.6141,0.0,0.0,0.0,0.0,1.0821,0.0,0.0,0.0,0.0,0.0,0.0,0.0,0.0,0.0,0.0,0.0,0.0,0.0,0.0,0.0,0.0,0.0,0.0,0.0,0.0,0.0,0.0,0.0,0.0,1.5816,1.5584,1.5001,1.401,1.4112,1.3983,1.3692,1.272,1.2166,1.2158,1.1045,1.0555,1.0561,1.0244,1.0174,1.0238,0.8742,0.7577,0.6662,0.5749,0.5488,0.5686,0.5749,0.5885,0.5954,0.5815,0.5749,0.5749,0.0,0.0,0.0,0.0,0.0,0.0,0.0,0.0,0.5199,0.4038,0.0,0.0,0.0,0.0,0.0,-0.6163,-0.6428,-0.7051,-0.8568,-0.8656,-0.8656,-0.8568,-0.8564,-0.8388,-0.7862,-0.7348,-0.6862,-0.6247,-0.4493,-0.3609,-0.3533,-0.2938,-0.2827,-0.3207,-0.3837,-0.3995,-0.3837,-0.3837,-0.3837,-0.3744,0.0,-0.3499,-0.3491,0.0,0.0,0.0,-0.2527,-0.2258,0.0,-0.1166,0.0,0.0,0.0,0.0,0.0,0.0,0.0,0.0,0.0,0.0,0.0,0.0,0.0,0.0,0.0,0.0,0.0,0.0,0.0,0.0,0.0,0.0,0.0,0.0,0.0,0.0,0.0,0.0,0.0,0.0,0.0,0.0,0.0,0.0,0.0,0.0,0.0,1.6627,1.657,1.6104,1.5294,1.407,1.401,1.401,1.401,1.3321,1.2818,1.2504,1.1849,1.1178,1.0561,1.0371,1.0301,1.0238,0.8877,0.8166,0.7897,0.6474,0.5954,0.5954,0.6148,0.6214,0.6214,0.6145,0.6145,0.6145,0.0,0.0,0.0,0.0,0.0,0.0,0.5864,0.5628,0.5202,0.0,0.0,0.0,0.0086,-0.2467,-0.4914,-0.7044,-0.7224,-0.7757,-0.8999,-0.9087,-0.8915,-0.8656,-0.8438,-0.8195,-0.7768,-0.7392,-0.6769,-0.5928,-0.5225,-0.4723,-0.4356,-0.408,-0.4013,-0.4118,-0.4123,-0.4125,-0.4049,-0.3971,0.0,-0.3654,-0.3544,-0.3499,0.0,0.0,0.0,0.0,0.0,-0.2767,-0.21,0.0,-0.082,0.0643,0.0,0.0,0.0,0.0,0.0,0.0,0.5156,0.0,0.0,0.0,0.0,0.0,0.0,0.0,0.0,0.0,0.0,0.0,0.0,0.0,0.0,0.0,0.0,0.0,0.0,0.0,0.0,0.0,0.0,0.0,0.0,0.0,0.0,0.0,1.6729,1.6729,1.6368,1.541,1.4902,1.5001,1.4606,1.4387,1.4387,1.37,1.307,1.2504,1.1849,1.1178,1.0624,1.0618,1.0681,1.0618,0.9837,0.9186,0.8603,0.7125,0.6548,0.6618,0.6679,0.6679,0.6679,0.6679,0.6679,0.6745,0.0,0.0,0.0,0.0,0.0,0.6962,0.528,0.5455,0.5338,0.0,0.0,0.0,-0.1219,-0.3978,-0.6245,-0.7925,-0.8101,-0.8544,-0.9519,-0.9607,-0.9309,-0.8797,-0.8773,-0.8505,-0.7756,-0.7552,-0.7009,-0.6165,-0.5745,-0.532,-0.5032,-0.4759,-0.4635,-0.4683,-0.4464,-0.4316,-0.4242,0.0,0.0,0.0,-0.3708,0.0,0.0,-0.3717,-0.3717,0.0,0.0,0.0,-0.2923,-0.2961,-0.1678,0.0,0.0,0.0,0.0,0.0,0.0,0.4359,0.4628,0.5223,0.0,0.0,0.0,0.0,0.8925,0.9798,0.0,0.0,0.0,0.0,0.0,0.0,0.0,0.0,0.0,0.0,0.0,0.0,0.0,0.0,0.0,0.0,0.0,0.0,0.0,0.0,1.6389,1.6332,1.6046,1.5371,1.5088,1.5254,1.4784,1.4556,1.4556,1.413,1.3442,1.2512,1.2212,1.1545,1.0688,1.087,1.0933,1.087,1.0345,0.9888,0.9436,0.835,0.7456,0.6881,0.7012,0.7012,0.7073,0.7274,0.7335,0.74,0.0,0.0,1.1313,1.2162,0.9792,0.7183,0.5555,0.5745,0.5541,0.0,0.285,0.051,-0.3534,-0.5515,-0.721,-0.8973,-0.9148,-0.9501,-1.0294,-1.0188,-0.9828,-0.9217,-0.9428,-0.8991,-0.7928,-0.7846,-0.7418,-0.6746,-0.6062,-0.5631,-0.5493,-0.5023,-0.4812,-0.4922,0.0,0.0,-0.4344,0.0,0.0,-0.3957,-0.3935,-0.3854,0.0,0.0,-0.4111,-0.4135,-0.4318,-0.4309,-0.4075,-0.3975,-0.261,0.0,0.0,0.0,0.0,0.0,0.3433,0.3892,0.4425,0.4628,0.4827,0.0,0.0,0.0,0.8057,0.9056,1.016,0.0,0.0,0.0,0.0,0.0,0.0,0.0,0.0,0.0,0.0,0.0,0.0,0.0,0.0,0.0,0.0,0.0,1.5488,1.5931,1.5836,1.573,1.573,1.5672,1.5439,1.5029,1.4834,1.4715,1.4715,1.4616,1.3881,1.2573,1.2765,1.2089,1.087,1.1059,1.1122,1.1122,1.0661,1.0465,1.0332,0.9831,0.8683,0.7143,0.7335,0.7396,0.74,0.7857,0.8052,0.8117,1.0214,1.0877,1.1315,1.2185,1.0721,0.8893,0.7291,0.5996,0.5002,0.4382,0.1461,-0.1517,-0.3982,-0.6084,-0.8177,-1.0438,-1.0616,-1.1042,-1.2077,-1.1472,-1.0842,-1.0292,-0.9557,-0.9025,-0.8788,-0.8049,-0.7457,-0.7162,-0.6419,-0.5933,-0.56,-0.5388,-0.5322,-0.5208,-0.5002,0.0,0.0,0.0,0.0,-0.4126,-0.4099,0.0,-0.3911,-0.4215,-0.4323,-0.433,-0.4368,-0.4309,-0.3975,-0.3071,-0.2089,-0.1047,0.0,0.0,0.0,0.0,0.0,0.0,0.0,0.0,0.0,0.0,0.0,0.0,0.8184,0.9045,0.9907,0.0,0.0,0.0,0.0,0.0,0.0,0.0,0.0,0.0,0.0,0.0,0.0,0.0,0.0,0.0,0.0,0.0,1.614,1.6197,1.6104,1.5999,1.5884,1.5371,1.5147,1.5156,1.4843,1.4775,1.497,1.4725,1.4043,1.2887,1.2948,1.2282,1.1059,1.1185,1.1373,1.1498,1.149,1.1288,1.0829,1.0766,0.9888,0.8565,0.863,0.8501,0.8252,0.8382,0.8382,0.8447,1.0686,1.1103,1.1372,1.2195,1.1004,0.9357,0.7728,0.6374,0.5154,0.4066,0.0643,-0.2575,-0.4891,-0.6956,-0.9039,-1.1477,-1.166,-1.2037,-1.2757,-1.2367,-1.184,-1.1318,-1.0852,-1.0285,-0.9627,-0.8782,-0.8085,-0.7451,-0.6587,-0.6013,-0.5756,-0.5635,-0.5602,-0.567,-0.5267,-0.5129,0.0,0.0,-0.4522,-0.4422,-0.4351,0.0,-0.4168,-0.4498,-0.4614,-0.4622,-0.4678,-0.4545,-0.4288,-0.3607,-0.2467,0.0,0.0,0.0565,0.1889,0.0,0.2812,0.3155,0.0,0.0,0.0,0.4622,0.0,0.0,0.0,0.8567,0.925,0.0,0.0,0.0,0.0,0.0,0.0,0.0,0.0,0.0,0.0,0.0,0.0,0.0,0.0,0.0,0.0,0.0,1.5864,1.5864,1.5816,1.57,1.5642,1.5362,1.5254,1.5313,1.5079,1.5029,1.5098,1.4606,1.3932,1.3009,1.2834,1.229,1.1373,1.156,1.1747,1.1872,1.1934,1.1802,1.1538,1.1538,1.1038,1.0225,0.9709,0.939,0.9268,0.9145,0.9145,0.9145,1.0214,1.0396,1.0421,1.1267,1.0276,0.8888,0.7618,0.6594,0.5148,0.2966,-0.0318,-0.3433,-0.6002,-0.8002,-1.0203,-1.2512,-1.2872,-1.3112,-1.3466,-1.3319,-1.2902,-1.226,-1.2056,-1.1468,-1.0351,-0.9509,-0.8639,-0.7739,-0.6726,-0.6148,-0.5954,-0.5752,-0.5815,-0.6009,-0.555,-0.5498,0.0,0.0,0.0,-0.4645,0.0,-0.4456,-0.434,-0.4675,-0.4855,-0.4849,-0.4894,-0.4859,-0.4683,-0.4346,0.0,-0.159,-0.1321,0.0,0.0,0.0,0.0,0.0,0.0,0.0,0.0,0.0,0.0,0.6384,0.0,0.0,0.0,0.0,0.0,0.0,0.0,0.0,0.0,0.0,0.0,0.0,0.0,0.0,0.0,0.0,0.0,0.0,0.0,0.0,1.542,1.541,1.542,1.542,1.541,1.541,1.541,1.541,1.5264,1.5215,1.5264,1.4419,1.3752,1.313,1.272,1.2236,1.1685,1.2003,1.212,1.212,1.212,1.2182,1.2189,1.2189,1.2065,1.1685,1.0724,1.0275,1.0148,1.0091,1.0028,1.0028,0.8521,0.7821,0.7064,0.7916,0.7706,0.7411,0.7491,0.6143,0.3902,0.0546,-0.2302,-0.4831,0.0,0.0,0.0,0.0,0.0,0.0,-1.5575,0.0,-1.3928,-1.3044,-1.2192,-1.144,-1.0738,-0.9658,-0.878,-0.8155,-0.6928,-0.6284,-0.6148,-0.5954,-0.5818,-0.5679,-0.6071,0.0,0.0,0.0,-0.5594,0.0,-0.4831,-0.4651,0.0,-0.487,-0.4928,-0.4774,-0.4737,-0.4701,-0.4606,0.0,-0.2913,-0.1549,0.0,0.0,0.1445,0.0,0.0,0.0,0.0,0.0,0.0,0.0,0.4411,0.0,0.0,0.0,0.0,0.0,0.0,0.0,0.0,0.0,0.0,0.0,0.0,0.0,0.0,0.0,0.0,0.0,0.0,0.0,0.0,0.0,0.0,1.541,1.5546,1.5604,1.541,1.541,1.541,1.541,1.5264,1.5264,1.5362,1.4569,1.3983,1.3623,1.3017,1.2536,1.2058,1.2065,1.2182,1.2305,1.2305,1.2375,1.256,1.256,1.2498,1.2436,1.1685,1.1178,1.0856,1.0856,1.0856,1.0919,0.7242,0.8071,0.8424,0.8628,0.8179,0.7804,0.7804,0.5046,0.2186,-0.0156,-0.2982,0.0,0.0,0.0,0.0,0.0,0.0,-1.5547,0.0,0.0,-1.4677,-1.3984,-1.2882,-1.2077,-1.1687,-1.0153,-0.9066,-0.8513,-0.7265,-0.6613,-0.6474,-0.6086,-0.602,-0.628,-0.6513,0.0,-0.6069,0.0,-0.6032,0.0,0.0,0.0,0.0,-0.4868,-0.4905,-0.4791,-0.4841,-0.4779,-0.4693,0.0,-0.354,0.0,0.0,0.0,0.0,0.0,0.0,0.0,0.0,0.0,0.0,0.0,0.0,0.0,0.5526,0.0,0.7124,0.0,0.0,0.0,0.0,0.0,0.0,0.0,0.0,0.0,0.0,0.0,0.0,0.0,0.0,0.0,0.0,0.0,0.0,0.0,0.0,1.5229,1.5049,1.5283,1.541,1.541,1.5362,1.5362,1.541,1.4392,1.3863,1.3683,1.2903,1.2421,1.2243,1.249,1.2674,1.2736,1.2911,1.3033,1.3094,1.3094,1.3094,1.3094,1.2781,1.2474,1.2174,1.2097,1.2035,1.2027,0.5906,0.7548,0.8722,0.8675,0.821,0.7592,0.6805,0.3649,0.0,0.0,0.0,0.0,-0.8082,-1.0631,0.0,0.0,-1.5955,-1.6534,0.0,0.0,-1.5677,0.0,0.0,0.0,0.0,-1.058,-0.9281,-0.873,-0.7606,-0.6942,-0.6741,-0.6284,-0.6218,-0.6486,0.0,-0.6587,-0.6414,0.0,-0.6232,-0.5344,-0.5217,-0.4977,-0.4768,-0.4912,-0.4908,-0.4779,-0.4937,-0.4859,-0.4701,-0.4701,-0.4024,0.0,-0.2935,0.0,0.0,0.0,0.0,0.0,0.1551,0.0,0.0,0.0,0.0,0.0,0.0,0.0,0.0,0.0,0.0,0.0,0.0,0.0,0.0,0.0,0.0,0.0,0.0,0.0,0.0,0.0,0.0,0.0,0.0,0.0,0.0,0.0,1.483,0.0,1.4775,1.5135,1.5351,1.5478,1.5478,1.542,1.5235,1.4222,1.3692,1.3571,1.2728,1.2305,1.2375,1.2797,1.2989,1.305,1.3338,1.3511,1.3511,1.3511,1.3511,1.3511,1.3571,1.3519,1.3285,1.3086,1.3017,1.2948,0.4363,0.5165,0.0,0.0,0.0,0.0,0.0,0.0,0.0,0.0,0.0,0.0,0.0,0.0,0.0,0.0,0.0,-1.91,-1.8818,0.0,-1.7001,0.0,0.0,-1.315,0.0,0.0,-0.9281,-0.873,-0.7865,-0.7265,-0.6881,-0.6552,-0.6222,-0.5954,-0.628,-0.6196,-0.5864,-0.6297,-0.6261,-0.5851,-0.5467,-0.516,-0.4993,0.0,-0.4915,-0.5018,-0.5018,0.0,0.0,-0.4701,-0.3992,0.0,0.0,0.0,0.0,0.0,0.0,0.0,0.0,0.0,0.0,0.1893,0.0,0.0,0.0,0.0,0.5539,0.0,0.0,0.0,0.0,0.0,0.848,0.8752,0.0,0.0,0.0,0.0,0.0,0.0,0.0,0.0,0.0,0.0,0.0,1.4543,1.4586,0.0,1.4821,1.4916,1.5236,1.5662,1.5672,1.543,1.4893,1.4112,1.3571,1.3329,1.2605,1.2375,1.2621,1.2867,1.2989,1.305,1.3338,1.3511,1.3511,1.3511,1.3511,1.3511,1.3881,1.407,1.413,1.3631,1.3511,1.3563,0.0,0.0,0.0,0.0,0.0,0.0,0.0,0.0468,0.0,0.0,0.0,0.0,0.0,-1.5146,-1.693,0.0,0.0,-2.0084,-1.9684,-1.9093,0.0,0.0,0.0,-1.3981,0.0,0.0,-0.9829,-0.962,-0.8194,-0.7456,-0.7265,-0.6609,-0.6152,-0.5962,0.0,-0.6437,0.0,0.0,0.0,0.0,0.0,-0.4922,-0.479,0.0,0.0,-0.4621,-0.4937,-0.4779,0.0,-0.4621,-0.4465,-0.4144,-0.4033,-0.2828,-0.1508,-0.142,-0.0291,0.0,0.0,0.0,0.1401,0.1541,0.0,0.0,0.0,0.0,0.0,0.0,0.0,0.0,0.0,0.0,0.8049,0.848,0.8903,0.9465,0.0,0.0,0.0,0.0,0.0,0.0,0.0,0.0,0.0,1.4256,1.4277,1.4366,0.0,1.4574,1.4753,1.5177,1.5186,1.4893,1.4309,1.4103,1.3803,1.3268,1.2736,1.2621,1.2867,1.3216,1.3459,1.3709,1.401,1.4139,1.4139,1.4139,1.4139,1.4198,1.4359,1.4478,1.4538,1.435,1.435,1.4538,0.0,0.0,0.0,0.0,0.0,0.0,0.0,0.0,0.0,0.0,-0.9775,0.0,-1.4817,0.0,-1.8395,0.0,-2.0692,-2.1169,-2.0557,-1.9966,0.0,-1.823,-1.6157,0.0,0.0,0.0,0.0,-1.0164,-0.8456,-0.7526,-0.7265,-0.6671,-0.6214,-0.5896,0.0,-0.6268,-0.5806,0.0,-0.6268,0.0,0.0,-0.4858,0.0,0.0,-0.4796,-0.4568,0.0,-0.4779,-0.4543,-0.4701,-0.4779,-0.4693,-0.4575,-0.3595,-0.2488,-0.2391,-0.131,-0.0071,0.0072,0.0428,0.0,0.0981,0.1344,0.0,0.2636,0.0,0.0,0.0,0.0,0.0,0.0,0.0,0.7717,0.815,0.8837,0.9666,0.0,1.207,0.0,0.0,0.0,0.0,0.0,0.0,1.383,1.3936,1.3908,1.4124,0.0,0.0,1.443,1.4991,1.4765,1.435,1.3821,1.3863,1.3623,1.3033,1.2744,1.2744,1.2981,1.3338,1.37,1.401,1.4378,1.4556,1.4556,1.4625,1.4684,1.4684,1.4784,1.4843,1.4902,1.4843,1.4902,1.5088,0.0,0.0,0.0,0.0,0.1328,0.0,0.0,0.0,-0.7266,0.0,-1.2439,-1.4582,-1.567,-1.8298,-2.0136,-2.061,-2.183,0.0,-2.1514,-2.0632,0.0,0.0,-1.7425,-1.6105,-1.6035,0.0,0.0,0.0,-0.8788,-0.7661,-0.6946,-0.6745,-0.6412,-0.5888,-0.5686,0.0,-0.5599,-0.5735,-0.5805,-0.5722,-0.5283,-0.4983,-0.4833,-0.4833,0.0,-0.4766,-0.4972,-0.4854,-0.4693,-0.4929,-0.4846,-0.4743,-0.4785,-0.4223,-0.3527,-0.322,-0.2469,-0.1742,-0.1378,-0.064,0.007,0.0279,0.0,0.0,0.0,0.0,0.3922,0.0,0.0,0.0,0.0,0.0,0.0,0.7818,0.9026,1.0269,0.0,0.0,0.0,0.0,0.0,0.0,0.0,1.4222,1.4035,1.3668,1.361,1.3906,0.0,0.0,0.0,1.5177,1.456,1.4034,1.3563,1.345,1.3155,1.2621,1.2621,1.2805,1.305,1.3338,1.3692,1.407,1.4478,1.4715,1.4715,1.4911,1.497,1.497,1.5039,1.5088,1.5215,1.5088,1.5088,1.5264,-0.5848,-0.4473,-0.2934,0.0,-0.078,-0.109,0.0,0.0,0.0,0.0,-1.4222,-1.6387,-1.8372,-1.9879,-2.0864,-2.0974,-2.1978,0.0,0.0,0.0,0.0,-2.0602,-1.8895,-1.7619,-1.6706,-1.4344,0.0,-1.1273,0.0,0.0,-0.733,-0.6741,-0.6284,-0.5888,0.0,0.0,-0.5593,-0.563,-0.5933,-0.6325,-0.5533,-0.5439,0.0,0.0,-0.4553,-0.4578,-0.4862,-0.4801,-0.4574,-0.4803,-0.4819,-0.4741,-0.4708,-0.4111,-0.3374,-0.3203,-0.2436,-0.1483,-0.0778,-0.0277,0.0136,0.0747,0.0994,0.1355,0.0,0.0,0.0,0.0,0.0,0.0,0.0,0.0,0.0,0.7741,0.9481,1.1065,0.0,0.0,0.0,0.0,0.0,0.0,0.0,1.415,1.401,1.3926,1.3821,1.3928,0.0,0.0,0.0,1.4799,1.5003,1.4815,1.4231,1.4638,1.4341,1.3277,1.3277,1.3338,1.339,1.345,1.3821,1.4387,1.4597,1.4715,1.4715,1.4911,1.497,1.5039,1.5098,1.5254,1.5362,1.5303,1.5488,1.574,-0.8234,0.0,0.0,-0.544,0.0,0.0,-0.608,0.0,0.0,-1.4128,-1.5922,0.0,-1.9065,-2.0473,-2.1164,-2.0805,-2.2175,0.0,-2.2002,0.0,0.0,-2.0268,-1.9475,-1.8335,-1.6802,-1.5273,0.0,-1.1594,0.0,0.0,-0.7199,-0.6679,-0.6222,-0.5888,0.0,-0.5744,0.0,-0.5418,-0.5633,-0.5858,-0.5274,0.0,0.0,-0.4764,-0.4445,-0.4307,-0.4657,-0.4584,-0.4454,-0.4604,-0.4635,-0.4571,-0.4522,-0.4075,-0.3566,-0.3453,-0.2778,-0.1923,-0.1374,-0.068,0.0,0.047,0.0864,0.1249,0.2038,0.2655,0.3132,0.0,0.0,0.0,0.0,0.0,0.0,0.0,0.0,0.0,0.0,0.0,0.0,0.0,0.0,0.0,0.0,1.415,1.402,1.402,1.3915,0.0,0.0,0.0,0.0,1.4681,1.4763,1.4506,1.388,1.4685,1.4604,1.3617,1.3895,1.4094,1.4222,1.4103,1.4469,1.5303,1.5235,1.5235,1.5352,1.5468,1.542,1.5196,1.5323,1.5439,1.5546,1.5604,1.573,1.5798,0.0,0.0,0.0,0.0,0.0,0.0,0.0,-1.1083,0.0,-1.6096,0.0,-1.8267,-1.8798,-2.0409,-2.1175,-2.0355,0.0,-2.2763,-2.1411,-2.1628,-2.1089,-1.9486,-1.9452,-1.8586,-1.6673,-1.6034,0.0,0.0,0.0,0.0,-0.6946,-0.6552,-0.6218,0.0,0.0,0.0,0.0,-0.5243,-0.5212,0.0,-0.487,-0.4651,-0.4563,-0.4445,-0.4255,-0.4054,-0.4178,-0.4252,-0.4336,-0.4336,-0.4326,-0.4298,-0.4206,-0.4037,-0.3877,-0.3785,-0.3222,-0.2618,-0.2283,-0.1276,-0.0202,0.0134,0.0739,0.1412,0.2153,0.282,0.3284,0.3357,0.4792,0.0,0.0,0.0,0.0,0.0,0.0,0.0,0.0,0.0,0.0,0.0,0.0,0.0,0.0,0.0,0.0,1.401,0.0,0.0,0.0,0.0,0.0,0.0,1.4344,0.0,1.3496,0.0,1.4676,1.4061,1.4627,1.4972,1.5235,1.4932,1.5391,1.6312,1.6093,1.6104,1.6218,1.6368,1.6083,1.5584,1.5836,1.5894,1.5846,1.5961,1.6019,1.6009,0.0,0.0,0.0,0.0,0.0,-1.2459,-1.3916,-1.4457,-1.5286,-1.688,-1.8237,-1.9023,-1.8977,-2.0226,-2.0688,-1.9977,-2.106,0.0,0.0,0.0,0.0,-1.9901,-1.9431,-1.8385,-1.6673,-1.6622,-1.5167,0.0,0.0,0.0,-0.7396,-0.6745,0.0,0.0,0.0,0.0,-0.5339,-0.5322,0.0,-0.5868,-0.5231,-0.5156,-0.5278,-0.4375,-0.3927,-0.3722,-0.3505,-0.3664,-0.4014,-0.4014,-0.3954,-0.3876,-0.3859,-0.3854,-0.3782,-0.3634,-0.3023,-0.2283,-0.1545,-0.0672,0.0202,0.1277,0.1681,0.1951,0.2688,0.3155,0.362,0.4225,0.5193,0.6047,0.635,0.0,0.0,0.0,0.0,0.0,0.0,0.0,0.0,0.0,0.0,0.0,0.0,0.0,0.0,0.0,0.0,0.0,0.0,0.0,0.0,0.0,0.0,0.0,0.0,0.0,0.0,1.5524,1.5651,1.5575,1.5352,1.5545,1.5881,1.6312,1.6662,1.6842,1.6832,1.6989,1.6765,1.6457,1.6944,1.6888,1.6606,1.6606,1.6989,1.7479,0.0,0.0,0.0,0.0,0.0,0.0,0.0,-1.7945,0.0,-1.8352,-1.8649,-1.8813,-1.8654,-1.9846,-2.0431,-1.9846,-2.1198,-2.1975,-2.1788,-2.1049,-2.0257,-1.9388,-1.89,0.0,-1.6403,-1.6629,-1.5392,-1.2489,0.0,0.0,-0.7847,-0.6872,0.0,-0.6017,0.0,-0.5863,0.0,0.0,0.0,-0.6098,-0.5684,-0.5332,-0.4962,-0.4491,-0.3903,-0.3421,-0.3377,-0.3457,-0.3564,-0.3632,-0.3668,-0.3627,-0.3627,-0.356,-0.3424,-0.2956,-0.2283,-0.1477,-0.0403,0.0403,0.121,0.2084,0.2285,0.2485,0.3088,0.3489,0.3956,0.4888,0.5811,0.6668,0.7433,0.7946,0.0,0.0,0.0,0.0,0.0,0.0,0.0,0.0,0.0,0.0,0.0,0.0,0.0,0.0,0.0,0.0,0.0,0.0,0.0,0.0,0.0,0.0,0.0,0.0,0.0,1.5639,1.6206,1.6492,1.6492,1.6415,1.68,1.749,1.7446,1.7501,1.7545,1.7379,1.7213,1.7067,1.749,1.7534,1.7368,1.7435,1.7699,1.7918,0.0,-1.4498,0.0,0.0,-1.7194,0.0,-1.9031,-2.0598,-2.1302,-1.989,-1.9135,-1.8803,-1.8787,-1.977,-2.0355,-2.0161,-2.1651,-2.2297,-2.1526,-2.1037,-2.0182,-1.889,-1.8297,-1.7432,-1.6132,-1.6403,-1.542,0.0,0.0,0.0,0.0,-0.7021,0.0,0.0,0.0,0.0,0.0,0.0,-0.6503,-0.6051,-0.5877,-0.5251,-0.442,-0.4395,-0.3825,-0.3025,-0.3226,-0.3092,-0.2891,-0.3027,-0.3161,-0.3295,-0.3295,-0.2956,-0.2551,-0.2012,-0.1208,-0.0336,0.067,0.1477,0.2218,0.282,0.2954,0.3088,0.362,0.3889,0.4292,0.5352,0.6207,0.714,0.8378,0.8612,0.0,0.0,0.0,0.0,0.0,0.0,0.0,0.0,0.0,0.0,0.0,0.0,0.0,0.0,0.0,0.0,0.0,0.0,0.0,0.0,0.0,0.0,1.4761,0.0,1.6449,0.0,1.6765,1.7301,1.7634,1.7457,1.7788,1.856,1.8278,1.817,1.8255,1.7941,1.7722,1.7722,1.8081,1.819,1.8135,1.8309,1.8417,1.8363,0.0,0.0,0.0,0.0,0.0,0.0,0.0,-2.1227,-2.1963,-2.106,-2.0344,-2.002,-2.0333,-2.0526,-2.073,-2.1198,-2.1851,-2.2123,-2.1862,-2.0344,-1.9354,-1.9003,-1.7891,-1.689,-1.6132,-1.6403,-1.554,0.0,0.0,0.0,0.0,0.0,0.0,0.0,0.0,0.0,0.0,-0.6622,-0.6321,-0.604,-0.5094,-0.4573,-0.4236,-0.3766,-0.3157,-0.2484,-0.2484,-0.215,-0.1748,-0.1748,-0.2083,-0.2484,-0.2484,-0.1676,-0.0737,-0.067,0.0268,0.1341,0.1475,0.2079,0.282,0.3491,0.3692,0.3892,0.4561,0.4694,0.4894,0.5484,0.6083,0.6929,0.8388,0.7643,0.7382,0.0,0.0,0.0,0.0,0.0,0.0,0.0,0.0,0.0,0.0,0.0,0.0,0.0,0.0,0.0,0.0,0.0,0.0,1.4683,0.0,1.4967,1.5493,1.6063,0.0,1.7511,1.7611,1.7755,1.803,1.8344,1.8506,1.8614,1.8827,1.8881,1.8934,1.8999,1.8839,1.8548,1.9186,1.9239,1.8934,1.9028,1.9331,1.9592,0.0,0.0,0.0,0.0,0.0,0.0,0.0,-2.1939,-2.2187,-2.1388,-2.0805,-2.0409,-2.0473,-2.0677,-2.1008,-2.1502,-2.2025,-2.2247,-2.2061,-2.0794,-1.9814,-1.9222,-1.8094,-1.7097,-1.6272,-1.6272,-1.5513,0.0,0.0,0.0,0.0,0.0,0.0,0.0,0.0,-0.6577,-0.6238,-0.6362,-0.6176,-0.5769,-0.5376,-0.4553,-0.3618,-0.342,-0.2753,-0.1949,-0.1949,-0.168,-0.1412,-0.1412,-0.1613,-0.1949,-0.1949,-0.1545,-0.1074,-0.0604,0.0268,0.1273,0.2079,0.2885,0.3625,0.4228,0.4428,0.4561,0.503,0.5093,0.5289,0.6342,0.6872,0.7396,0.8231,0.7901,0.7833,0.0,0.0,0.0,0.0,0.0,0.0,0.0,0.0,0.0,0.0,0.0,1.4671,0.0,0.0,0.0,0.0,0.0,0.0,1.5095,0.0,1.576,1.6041,1.6543,1.6955,1.7263,1.773,1.8084,1.8398,1.856,1.8667,1.8827,1.8934,1.9052,1.9117,1.9263,1.9263,1.9239,1.9604,1.9604,1.95,1.954,1.9643,1.9811,-2.2043,0.0,-2.0917,0.0,-2.2053,-2.2089,-2.2408,-2.2702,-2.2555,-2.1639,-2.1123,-2.073,-2.0484,-2.0752,-2.1135,-2.1628,-2.2149,-2.2432,-2.2197,-2.1187,-2.0333,-1.9628,-1.8375,0.0,-1.6612,-1.6272,-1.5511,-1.4345,-1.2767,0.0,0.0,0.0,0.0,0.0,-0.7186,-0.6994,-0.6535,-0.6793,-0.6531,-0.5877,-0.5613,-0.4613,-0.3149,-0.2948,-0.2214,-0.1277,-0.121,-0.1008,-0.074,-0.074,-0.0739,-0.0739,-0.1075,-0.0806,-0.0201,0.0268,0.1273,0.2342,0.3218,0.3959,0.4561,0.5024,0.5093,0.516,0.5627,0.5554,0.5749,0.6806,0.7269,0.7526,0.7847,0.7917,0.8168,0.0,0.0,0.0,0.0,0.0,0.0,0.0,1.3127,1.3657,1.4077,0.0,0.0,0.0,0.0,0.0,0.0,0.0,0.0,0.0,0.0,0.0,0.0,1.6737,1.7144,1.7493,1.802,1.8398,1.8721,1.8721,1.8827,1.8987,1.8987,1.9052,1.9235,1.9328,1.946,1.9617,1.9759,1.9798,1.9798,1.9862,1.9862,1.9862,-2.3962,-2.3846,-2.3728,-2.38,-2.393,-2.3813,-2.3207,-2.3245,-2.3017,-2.2013,-2.1577,-2.1187,-2.0666,-2.0921,-2.1313,-2.1815,-2.242,-2.2567,-2.2185,-2.1187,-2.0537,0.0,0.0,-1.7628,-1.7404,-1.6533,-1.5638,-1.4561,0.0,0.0,-1.091,0.0,-0.7967,-0.849,-0.8112,-0.8247,-0.877,-0.8371,-0.7587,-0.6605,-0.5675,-0.4478,-0.3149,-0.248,-0.1477,-0.047,-0.0336,0.0,0.0472,0.0472,0.0941,0.1341,0.0067,0.1074,0.2619,0.2686,0.3956,0.5359,0.5362,0.5362,0.5491,0.5947,0.5811,0.5749,0.6284,0.6416,0.6416,0.6675,0.6741,0.6806,0.7138,0.7466,0.7852,0.8432,0.0,0.0,0.0,0.0,0.0,0.0,1.37,1.4005,1.4077,0.0,0.0,0.0,0.0,0.0,0.0,0.0,0.0,1.577,1.5349,0.0,1.6573,1.6585,1.7282,1.8602,1.8614,1.8721,1.8987,1.8987,1.8987,1.8987,1.8987,1.9052,1.9235,1.9328,1.946,1.9617,1.9759,1.9798,1.9811,1.9926,1.999,2.0042,-2.53,-2.4921,-2.465,-2.465,-2.4221,-2.3754,-2.3314,-2.3207,-2.2859,-2.2002,-2.1877,-2.1678,-2.1187,-2.1313,-2.1815,0.0,-2.2787,-2.2629,0.0,-2.1851,-2.1198,-2.0537,-1.9628,-1.8767,-1.7969,-1.7295,-1.6682,-1.5974,0.0,0.0,0.0,-0.9817,-0.9035,-0.8965,-0.8156,-0.7447,-0.6793,-0.6658,-0.6268,-0.555,-0.4483,-0.3482,-0.2549,-0.1477,-0.0605,0.0135,0.0605,0.1008,0.1346,0.2082,0.2616,0.2882,0.2874,0.2941,0.3076,0.334,0.4276,0.5213,0.5213,0.5617,0.6086,0.6284,0.6218,0.6284,0.6683,0.6942,0.7068,0.6876,0.7269,0.7591,0.7727,0.8306,0.8931,0.9414,0.0,0.0,0.0,0.0,0.0,0.0,0.0,1.3716,0.0,1.4903,0.0,0.0,0.0,0.0,0.0,0.0,0.0,0.0,1.7088,0.0,1.7603,1.7674,1.7993,1.8614,1.8774,1.8934,1.8987,1.8987,1.8987,1.8999,1.9105,1.9223,1.9368,1.946,1.9604,1.9759,1.9798,1.9798,1.9811,1.9862,1.9862,1.9926,-2.6312,-2.5839,-2.5397,-2.5397,-2.4865,-2.435,-2.4163,-2.3917,-2.3505,-2.2725,-2.2774,-2.2725,-2.2199,-2.2237,0.0,-2.3017,-2.2909,-2.28,-2.2616,-2.2173,-2.1588,-2.0921,-2.0172,-1.9386,-1.8643,0.0,0.0,-1.6309,-1.4703,-1.3188,-1.1629,-1.0555,-0.9679,-0.9041,-0.8161,-0.7381,-0.6662,-0.6129,-0.547,-0.4683,-0.368,-0.2477,-0.1206,-0.0403,0.0537,0.1479,0.1947,0.2348,0.2748,0.3609,0.414,0.4607,0.5256,0.5318,0.5051,0.4463,0.513,0.6059,0.5804,0.6338,0.6872,0.6806,0.6679,0.6749,0.7204,0.7596,0.7792,0.7531,0.8052,0.8501,0.8501,0.9198,0.9844,1.0164,0.0,1.2374,0.0,0.0,0.0,0.0,0.0,0.0,0.0,1.5229,0.0,0.0,0.0,0.0,0.0,0.0,0.0,1.7389,1.7704,0.0,1.8119,1.8168,1.8366,1.8774,1.8934,1.9052,1.9052,1.8999,1.9052,1.9052,1.917,1.9328,1.946,1.9565,1.9656,1.9798,1.9798,1.9798,1.9798,1.9798,1.985,1.9926,-2.6997,-2.6486,0.0,0.0,-2.5812,0.0,-2.5494,-2.5244,-2.4765,-2.3917,-2.4105,-2.4073,-2.345,-2.3543,-2.3339,-2.2555,0.0,0.0,0.0,-2.2111,-2.1788,-2.1388,-2.0313,0.0,-1.9233,-1.8007,-1.6838,-1.5793,-1.4345,-1.2893,-1.1574,-1.0832,-0.9894,-0.8829,-0.8182,-0.7852,-0.7717,-0.6384,-0.5193,-0.4071,-0.3137,-0.1402,0.0536,0.0603,0.1741,0.3282,0.3551,0.4013,0.4535,0.5055,0.565,0.6384,0.7219,0.8011,0.8161,0.6129,0.6588,0.7712,0.7204,0.7391,0.7772,0.7652,0.733,0.7269,0.7982,0.8376,0.8641,0.8576,0.9017,0.9402,0.9402,1.0085,1.064,1.0647,1.2012,1.2885,1.2362,0.0,0.0,0.0,0.0,0.0,0.0,1.5756,1.6289,0.0,0.0,0.0,0.0,0.0,1.752,1.752,1.752,1.776,1.8304,1.8253,1.8558,1.904,1.904,1.9105,1.9235,1.9105,1.9105,1.9235,1.9223,1.9368,1.9617,1.9617,1.9708,1.9798,1.9798,1.9811,1.9798,1.9798,1.9926,2.0042,0.0,0.0,-2.6233,-2.6233,-2.6179,-2.6016,-2.5688,-2.5564,-2.5216,-2.4292,-2.4337,-2.4105,-2.328,-2.3662,-2.3897,-2.361,-2.3292,-2.3017,-2.2787,-2.2616,-2.2099,-2.1198,-2.0828,-1.9977,-1.87,-1.757,-1.6253,-1.4789,-1.4612,-1.3859,-1.2445,-1.1219,-1.0179,-0.9244,-0.7832,-0.6719,-0.592,-0.5325,-0.413,-0.2533,-0.1467,-0.0467,0.0666,0.1872,0.2939,0.3929,0.48,0.5526,0.6171,0.7154,0.7553,0.7817,0.8415,0.8748,0.8753,0.8296,0.8425,0.8689,0.8565,0.863,0.8689,0.8624,0.893,0.9238,0.9192,0.9627,0.9939,0.9703,0.9958,1.0205,1.0205,1.1205,1.202,1.1919,1.313,1.3918,1.3197,0.0,0.0,0.0,1.4586,1.5163,1.5749,1.6838,1.7342,0.0,0.0,0.0,0.0,0.0,1.8794,1.8794,1.8794,1.8906,1.912,1.912,1.9181,1.9316,1.9316,1.9316,1.9368,1.9316,1.9316,1.9368,1.9473,1.9565,1.9617,1.9708,1.9747,1.9798,1.9798,1.9862,1.9926,1.9926,2.0029,2.0182,-2.7225,-2.6721,-2.6365,-2.6365,-2.6326,-2.6233,-2.5948,-2.5893,-2.5605,-2.4948,-2.4765,-2.4523,-2.4047,-2.4073,-2.4131,-2.4163,-2.3649,-2.3245,-2.2967,-2.2445,-2.1577,-2.0473,-2.002,-1.9233,-1.8027,-1.7064,-1.5658,-1.3798,-1.3825,-1.2943,-1.1253,-1.0488,-0.9476,-0.827,-0.7186,-0.6067,-0.4995,-0.4201,-0.2867,-0.12,0.0067,0.1201,0.22,0.3207,0.4204,0.5061,0.599,0.6715,0.7428,0.8597,0.9046,0.9116,0.9773,0.9977,1.0034,1.0268,0.9958,0.9396,0.921,0.9518,0.9952,1.0002,1.0249,1.0501,1.0627,1.0696,1.0822,1.1066,1.1315,1.1454,1.1695,1.2504,1.3139,1.3094,1.3663,1.4063,1.3949,1.3987,0.0,1.4877,1.5213,1.5715,1.6415,1.739,1.7881,1.7702,0.0,0.0,1.822,1.8612,1.8846,1.8846,1.9141,1.9328,1.942,1.9328,1.9368,1.946,1.9368,1.9368,1.946,1.942,1.9577,1.9875,1.9668,1.9759,2.0055,1.985,1.9862,1.9862,1.9862,1.9978,2.008,2.008,2.0131,2.0233,-2.8125,-2.7312,-2.6707,-2.6654,-2.6578,-2.6472,-2.6312,-2.6165,-2.5893,-2.5536,-2.5188,-2.4948,-2.4878,-2.4478,-2.4292,-2.4394,-2.4015,-2.3577,-2.3025,-2.2163,-2.1123,-1.989,-1.9288,-1.8459,-1.7455,-1.6388,-1.4872,-1.3068,-1.2585,-1.1439,-0.9621,-0.9424,-0.8393,-0.6724,-0.621,-0.5408,-0.4201,-0.2874,-0.1337,0.0267,0.167,0.3008,0.4281,0.461,0.5408,0.6404,0.7181,0.7837,0.8495,0.9767,1.0148,1.0275,1.1045,1.124,1.1358,1.2012,1.1384,1.0388,0.9958,1.0577,1.1322,1.1425,1.1432,1.1564,1.2104,1.1881,1.1779,1.2549,1.274,1.2818,1.3252,1.3803,1.4163,1.399,1.3968,1.4101,1.4538,0.0,1.4654,1.5911,1.6154,1.6436,1.7112,1.782,1.8267,1.8267,1.8306,0.0,0.0,1.8775,1.8519,1.8434,1.9074,1.942,1.9473,1.9368,1.942,1.9604,1.9473,1.9512,1.9759,1.9617,1.9914,2.051,1.9965,2.0105,2.0709,2.0245,2.0118,2.0131,2.0131,2.0182,2.0233,2.0233,2.0233,2.0283,-2.8012,-2.7815,-2.7665,-2.753,-2.7515,-2.7399,-2.7144,-2.6322,-2.5632,-2.5412,-2.516,-2.4765,-2.4208,-2.4694,-2.5021,-2.498,-2.4751,-2.4189,-2.3173,-2.2944,-2.2261,-2.0933,-2.1049,-1.9995,-1.7649,-1.5514,-1.3916,-1.2846,-1.2228,-1.1329,-1.0142,-0.8965,-0.7538,-0.5986,-0.4737,-0.3409,-0.2008,-0.087,0.0602,0.2341,0.3143,0.4278,0.5415,0.5745,0.64,0.7321,0.8345,0.9116,0.9831,1.0667,1.0933,1.1052,1.1841,1.202,1.2012,1.2793,1.2862,1.2687,1.2512,1.2573,1.2696,1.2696,1.3114,1.3476,1.3312,1.3614,1.3923,1.3812,1.3761,1.3821,1.3881,1.4688,1.4974,1.3838,1.4877,1.5473,1.455,0.0,1.5857,1.6278,1.7093,1.7667,1.7929,1.8483,1.8881,1.8999,1.9044,1.8931,1.8718,1.914,1.9218,1.8759,1.928,1.9604,1.9759,1.9708,1.9759,1.9747,2.0207,2.0409,2.0459,2.0409,2.0696,2.1224,2.0696,2.0746,2.1272,2.1321,2.1077,2.0709,2.0795,2.0673,2.0461,2.0461,2.0511,2.0649,-2.8996,-2.8622,-2.8192,-2.7864,-2.7799,-2.7665,-2.7203,-2.6901,-2.6558,-2.6176,-2.5809,-2.5577,-2.5481,-2.5217,-2.5273,-2.5823,-2.5605,-2.5161,-2.4469,-2.3479,-2.2262,-2.0771,-2.0437,-1.9236,-1.6976,-1.4602,-1.3113,-1.2586,-1.1315,-1.0009,-0.8737,-0.7882,-0.6506,-0.4734,-0.3671,-0.2272,-0.067,0.0,0.1472,0.3413,0.3877,0.5067,0.6588,0.7055,0.7642,0.835,0.9244,0.9824,1.0332,1.1469,1.1911,1.2158,1.294,1.3174,1.3226,1.3879,1.3657,1.3252,1.3554,1.3674,1.3734,1.4103,1.4231,1.4341,1.446,1.435,1.43,1.4647,1.4815,1.4923,1.5216,1.5786,1.5976,1.524,1.5608,0.0,0.0,1.5807,1.6385,1.7283,1.7741,1.8159,1.8536,1.8987,1.921,1.9182,1.9275,1.927,1.9154,1.9428,1.9492,1.9333,1.957,1.9862,2.0207,2.0156,2.0295,2.0683,2.0845,2.0944,2.1042,2.114,2.1382,2.1827,2.1355,2.1452,2.1894,2.1724,2.1547,2.1417,2.1465,2.1417,2.1348,2.1348,2.1264,2.1131,-2.9924,-2.9422,-2.8857,-2.8304,-2.8321,-2.8176,-2.756,-2.75,-2.7419,-2.6886,-2.6424,-2.6304,-2.6692,-2.6011,-2.5889,-2.6782,-2.6558,-2.6226,-2.5943,-2.4503,-2.2975,-2.1374,-2.0166,-1.897,-1.7632,-1.4581,-1.3063,-1.3339,-1.0698,-0.8597,-0.7028,-0.6375,-0.4923,-0.2869,-0.2134,-0.0867,0.0669,0.1138,0.2473,0.4342,0.4866,0.6113,0.7692,0.835,0.8865,0.9372,1.0192,1.0571,1.0947,1.2381,1.294,1.3252,1.4034,1.4323,1.4551,1.5196,1.4827,1.4296,1.4728,1.4904,1.508,1.543,1.5362,1.5274,1.5748,1.5284,1.4991,1.569,1.5958,1.6177,1.6472,1.6933,1.7049,1.6515,0.0,0.0,0.0,1.6629,1.7014,1.8259,1.8354,1.8483,1.8999,1.921,1.9328,1.9328,1.9368,1.9512,1.9656,1.9656,1.9759,2.0003,2.0003,2.0245,2.0795,2.066,2.0894,2.1417,2.1417,2.1479,2.1575,2.1718,2.1969,2.237,2.2021,2.21,2.2512,2.2239,2.2114,2.2081,2.2128,2.2128,2.2081,2.2081,2.186,2.1589,-3.0267,-3.0123,-2.9821,-2.9289,-2.9512,-2.9553,-2.8965,-2.7905,-2.7244,-2.7143,-2.6649,-2.64,-2.6761,-2.7115,-2.7485,-2.7932,-2.765,-2.7297,-2.7012,-2.652,-2.5631,-2.4332,-2.199,-2.0889,-2.1374,-1.6237,-1.4364,-1.6036,-1.084,-0.7519,-0.591,-0.423,-0.232,-0.0265,0.0466,0.1537,0.2744,0.3413,0.4339,0.5325,0.6828,0.7822,0.8484,0.9296,0.9748,1.0078,1.1363,1.1851,1.2104,1.3408,1.3906,1.4025,1.4874,1.5371,1.5803,1.6595,1.7034,1.718,1.6754,1.6968,1.7191,1.6616,1.6832,1.7157,1.709,1.709,1.7146,1.709,1.7246,1.7413,1.7324,1.7929,1.7974,1.6793,0.0,0.0,1.7341,1.7697,1.8271,1.8879,1.891,1.8999,1.917,1.9223,1.9328,1.9565,1.9565,1.9656,1.9798,1.9798,2.0003,2.051,2.056,2.0795,2.1321,2.1321,2.1369,2.1417,2.1874,2.2123,2.2123,2.2123,2.2463,2.2992,2.2466,2.2649,2.3231,2.3319,2.3083,2.2649,2.2799,2.2512,2.2081,2.2081,2.2081,2.2035,-3.0925,-3.0861,-3.0601,-3.0064,-3.0117,-3.0015,-2.9387,-2.8963,-2.8545,-2.8194,-2.8048,-2.8,-2.8,-2.8242,-2.8576,-2.9011,-2.8872,-2.8779,-2.867,-2.8093,-2.693,-2.511,-2.3482,-2.1857,-2.0266,-1.6014,-1.3168,-1.1922,-0.7887,-0.5353,-0.4295,-0.3454,-0.1865,0.0267,0.153,0.2861,0.4138,0.5064,0.6179,0.7284,0.7673,0.8709,1.0129,1.0627,1.1315,1.2066,1.2785,1.3322,1.3811,1.4601,1.5187,1.5641,1.6234,1.68,1.7346,1.8038,1.8375,1.8429,1.8213,1.7863,1.7523,1.7257,1.7368,1.7523,1.7468,1.7468,1.7523,1.7468,1.7852,1.8135,1.8081,1.8483,1.8596,1.7958,0.0,1.8474,1.8013,1.8482,1.8887,1.9093,1.9251,1.9356,1.9328,1.9473,1.9565,1.9617,2.0016,2.0258,2.0308,2.0597,2.1028,2.1589,2.1589,2.1684,2.1874,2.1874,2.2016,2.2356,2.2601,2.2752,2.2752,2.2918,2.3098,2.3231,2.3157,2.3246,2.3422,2.3523,2.3436,2.3275,2.3334,2.3187,2.3054,2.3054,2.283,2.2649,-3.1562,-3.1487,-3.1295,-3.0714,-3.0737,-3.0575,-2.9843,-2.9859,-2.9729,-2.9284,-2.9268,-2.9342,-2.9432,-2.9532,-2.9778,-3.0227,-3.0236,-3.0062,-2.979,-2.9036,-2.7689,-2.5604,-2.5003,-2.3157,-1.9838,-1.6197,-1.3597,-1.2069,-0.7016,-0.4725,-0.4948,-0.28,-0.0601,0.1605,0.2797,0.4191,0.5595,0.6379,0.7548,0.8907,0.9082,1.009,1.1673,1.2181,1.2923,1.3777,1.4186,1.4601,1.508,1.5766,1.628,1.6789,1.7302,1.7875,1.8483,1.9081,1.9239,1.9239,1.9239,1.8792,1.8232,1.8015,1.8124,1.8232,1.819,1.819,1.8232,1.819,1.8566,1.8898,1.8845,1.9028,1.9129,1.8878,1.8927,1.8931,1.87,1.8979,1.9275,1.9275,1.942,1.9565,1.972,1.9862,2.0055,2.0156,2.0597,2.0845,2.0845,2.1382,2.1827,2.2184,2.2324,2.2495,2.2663,2.254,2.2661,2.2947,2.3127,2.3171,2.3171,2.3334,2.3494,2.3566,2.3566,2.3625,2.3754,2.3653,2.3595,2.3595,2.3595,2.3595,2.3595,2.3595,2.3377,2.3201,-3.2179,-3.2109,-3.1806,-3.1227,-3.1487,-3.1466,-3.046,-3.0468,-3.0575,-3.0452,-3.0194,-3.0261,-3.0909,-3.0954,-3.1125,-3.1662,-3.1595,-3.1145,-3.0281,-2.9325,-2.7971,-2.6092,-2.6585,-2.5004,-2.093,-1.7237,-1.6336,-1.8286,-0.931,-0.6106,-0.8373,-0.2338,0.1802,0.4353,0.4628,0.5686,0.7199,0.7372,0.8323,0.9857,1.126,1.2289,1.2978,1.3888,1.4501,1.4963,1.5439,1.5613,1.5776,1.6856,1.7202,1.7313,1.7929,1.8536,1.9093,1.9643,1.9798,1.9811,1.9798,1.9798,1.9643,1.8963,1.9239,1.9565,1.942,1.9512,1.9565,1.942,1.9617,1.9759,1.9604,1.9617,1.9565,1.942,1.942,1.9368,1.9223,1.9328,1.942,1.942,1.942,1.9668,2.0321,2.0422,2.066,2.1369,2.1417,2.1417,2.1417,2.1921,2.2231,2.2231,2.2646,2.3187,2.3694,2.3319,2.3127,2.3127,2.3246,2.3319,2.3319,2.3319,2.361,2.4078,2.3668,2.3797,2.4261,2.3824,2.3595,2.3595,2.3595,2.3595,2.3595,2.3595,2.3595,2.3595,-3.2422,-3.2454,-3.2419,-3.2179,-3.2283,-3.2249,-3.1825,-3.1537,-3.1353,-3.1257,-3.1164,-3.1223,-3.1524,-3.1738,-3.2022,-3.2364,-3.2362,-3.1886,-3.0779,-3.0296,-2.9625,-2.8633,-2.8773,-2.7272,-2.3892,-2.1666,-1.9598,-1.7617,-1.3884,-1.0153,-0.6406,-0.4652,-0.0666,0.4875,0.547,0.6772,0.8645,0.9029,1.0236,1.1943,1.2679,1.3459,1.4227,1.4796,1.5718,1.6655,1.6834,1.7346,1.8027,1.8178,1.8501,1.9004,1.9761,2.0131,2.0308,2.0359,2.0359,2.0258,1.9901,1.9798,1.9747,1.954,1.9592,1.9759,1.9708,1.9708,1.9759,1.9708,1.9759,1.9798,1.9759,1.9759,1.9759,1.9708,1.9617,1.9512,1.946,1.9512,1.9668,2.0067,2.0169,2.0459,2.1042,2.1091,2.1175,2.1369,2.1766,2.2123,2.2449,2.2692,2.2949,2.326,2.3493,2.3837,2.4323,2.3794,2.3709,2.4131,2.4241,2.4116,2.3852,2.4256,2.4354,2.4261,2.4395,2.4395,2.4302,2.4135,2.3909,2.3595,2.3595,2.3595,2.3595,2.3595,2.3595,2.3595,-3.2884,-3.293,-3.2943,-3.2862,-3.283,-3.2716,-3.2417,-3.2229,-3.2057,-3.1951,-3.2126,-3.2311,-3.2459,-3.2782,-3.3033,-3.3223,-3.2752,-3.221,-3.1591,-3.0912,-3.0371,-2.9986,-3.0056,-2.8369,-2.4671,-2.3665,-2.2118,-1.9921,-1.7232,-1.3439,-0.8591,-0.6456,-0.1457,0.572,0.6572,0.7991,0.985,1.0537,1.1835,1.358,1.4058,1.4777,1.5661,1.6177,1.6912,1.7677,1.7841,1.834,1.891,1.8939,1.9515,2.0245,2.0917,2.1161,2.1113,2.1042,2.0845,2.061,2.0207,2.0105,2.0105,2.0105,1.9952,1.9798,1.9798,1.9798,1.9798,1.9798,1.9798,1.9798,1.9798,1.9759,1.9708,1.9708,1.9656,1.9617,1.9617,1.9811,2.0118,2.0459,2.0759,2.114,2.167,2.1718,2.1813,2.2049,2.2512,2.2934,2.326,2.3566,2.3809,2.4032,2.4116,2.4405,2.4902,2.4552,2.4471,2.4648,2.4728,2.4648,2.4436,2.4744,2.4863,2.4799,2.4863,2.4863,2.4759,2.4599,2.4287,2.3867,2.3867,2.3767,2.3595,2.3595,2.3739,2.3909,-3.3422,-3.3452,-3.3433,-3.3291,-3.3243,-3.3057,-3.2512,-3.2709,-3.2809,-3.2565,-3.3039,-3.3458,-3.3561,-3.3862,-3.4061,-3.4091,-3.2906,-3.231,-3.2632,-3.1236,-3.0432,-3.0447,-3.0614,-2.8734,-2.4511,-2.442,-2.4468,-2.4526,-2.0279,-1.6796,-1.3891,-0.8354,-0.1573,0.6005,0.7584,0.9273,1.0996,1.1766,1.3142,1.4838,1.5352,1.6177,1.7224,1.7754,1.8135,1.8363,1.8715,1.8874,1.902,1.9515,2.0283,2.1175,2.1615,2.1758,2.1758,2.1704,2.1334,2.0894,2.0709,2.066,2.066,2.066,2.0295,1.9952,1.9901,1.9901,1.9901,1.9798,1.9901,1.9952,1.9901,1.9811,1.9759,1.9759,1.9759,1.9759,1.9759,2.0308,2.0709,2.0759,2.1175,2.167,2.2217,2.2324,2.2586,2.3201,2.358,2.3822,2.3964,2.4379,2.4623,2.4664,2.4664,2.4942,2.546,2.546,2.5253,2.4847,2.4942,2.4981,2.4942,2.4981,2.5198,2.5465,2.5176,2.5214,2.5465,2.5082,2.4719,2.4343,2.4302,2.4036,2.3724,2.3681,2.3952,2.4343,-3.3698,-3.3831,-3.3968,-3.3716,-3.368,-3.3634,-3.3486,-3.3643,-3.3725,-3.3652,-3.3858,-3.4099,-3.4333,-3.4336,-3.4465,-3.4824,-3.3458,-3.2708,-3.3053,-3.149,-3.0595,-3.0702,-3.0765,-3.0286,-2.9236,-2.9252,-2.9296,-2.9294,-2.8307,-2.4973,-1.9409,-1.253,-0.5785,0.0839,0.6642,1.0454,1.2591,1.2643,1.4087,1.627,1.68,1.7468,1.8221,1.8447,1.919,2.0042,1.9773,2.0283,2.1028,2.1403,2.1738,2.2035,2.2267,2.2314,2.2267,2.2109,2.1983,2.1779,2.1334,2.1224,2.1224,2.1224,2.1126,2.093,2.051,2.0746,2.0832,1.9952,2.0484,2.093,2.0497,2.0746,2.1028,2.1028,2.1028,2.1028,2.1028,2.1126,2.1382,2.1779,2.1983,2.2217,2.2706,2.3113,2.3608,2.4214,2.4379,2.442,2.4461,2.4608,2.4847,2.5214,2.5275,2.5535,2.6007,2.6043,2.597,2.5881,2.5881,2.5717,2.5389,2.5754,2.5791,2.5503,2.5791,2.5738,2.5503,2.5427,2.5121,2.4759,2.4426,2.4451,2.4583,2.4245,2.4395,2.4759,-3.4141,-3.4232,-3.4255,-3.413,-3.4124,-3.4124,-3.4099,-3.4148,-3.4173,-3.4099,-3.4315,-3.4542,-3.468,-3.4829,-3.5051,-3.535,-3.3891,-3.3031,-3.3225,-3.162,-3.0681,-3.0755,-3.075,-3.0753,-3.0755,-3.0777,-3.0795,-3.0795,-3.0798,-2.7478,-2.0945,-1.3857,-0.6673,0.0637,0.7978,1.2453,1.4489,1.4936,1.611,1.7677,1.8112,1.865,1.9178,1.9787,2.0294,2.0756,2.1099,2.1513,2.2049,2.2651,2.2862,2.2951,2.3492,2.3507,2.3319,2.3098,2.2694,2.2249,2.186,2.1779,2.1779,2.1779,2.1969,2.1908,2.1126,2.1175,2.1224,2.0683,2.1077,2.1369,2.1042,2.1272,2.1465,2.1417,2.1417,2.1417,2.1417,2.1623,2.1874,2.2184,2.2526,2.2979,2.3538,2.3921,2.4282,2.4608,2.4863,2.502,2.5044,2.5291,2.5551,2.5791,2.5828,2.5937,2.622,2.622,2.622,2.622,2.622,2.6079,2.5848,2.6079,2.6079,2.5848,2.6079,2.6079,2.5811,2.5811,2.5572,2.516,2.4942,2.4863,2.4863,2.4679,2.4823,2.5198,-3.4612,-3.4567,-3.452,-3.452,-3.452,-3.452,-3.4476,-3.4502,-3.4483,-3.4375,-3.4699,-3.4923,-3.4936,-3.5328,-3.5637,-3.5748,-3.42,-3.3264,-3.3313,-3.1697,-3.0724,-3.0724,-3.073,-3.0753,-3.0793,-3.0801,-3.0797,-3.08,-3.0762,-2.7923,-2.2356,-1.433,-0.6695,0.0701,0.9194,1.4295,1.6469,1.7379,1.8282,1.9125,1.9426,1.9851,2.032,2.1113,2.1424,2.1465,2.2193,2.2498,2.2665,2.3606,2.3861,2.3888,2.4632,2.4639,2.4328,2.3964,2.3348,2.2694,2.2526,2.2402,2.2417,2.254,2.2768,2.2783,2.2035,2.1752,2.1623,2.1417,2.1609,2.1752,2.1575,2.1704,2.1799,2.1752,2.1738,2.1738,2.1738,2.2189,2.2495,2.2434,2.3143,2.3837,2.441,2.4639,2.4823,2.4965,2.5329,2.5572,2.5631,2.599,2.622,2.622,2.622,2.622,2.622,2.622,2.622,2.622,2.6256,2.6239,2.622,2.622,2.622,2.622,2.6168,2.6168,2.622,2.6168,2.5954,2.5631,2.554,2.5368,2.5114,2.5114,2.5329,2.5668,-3.4728,-3.4793,-3.487,-3.4694,-3.4653,-3.4693,-3.4733,-3.4887,-3.5021,-3.5073,-3.5257,-3.5441,-3.5562,-3.5794,-3.5933,-3.5955,-3.4371,-3.3385,-3.3383,-3.1804,-3.0866,-3.0866,-3.0866,-3.0849,-3.0794,-3.0799,-3.08,-3.0796,-3.0637,-3.0047,-2.8831,-1.604,-0.8659,-0.5609,0.7028,1.4696,1.8183,1.8301,1.9238,2.0594,2.0644,2.1178,2.1862,2.1663,2.2211,2.3084,2.2665,2.2921,2.3649,2.4471,2.4823,2.4879,2.4768,2.4672,2.4567,2.4048,2.3794,2.3694,2.3666,2.3348,2.3157,2.3824,2.3681,2.3377,2.361,2.3127,2.2449,2.1561,2.2109,2.2601,2.217,2.2463,2.2814,2.3098,2.3128,2.3128,2.3128,2.3465,2.3696,2.3522,2.4074,2.4664,2.5176,2.5269,2.5497,2.5954,2.6043,2.6096,2.6079,2.6168,2.622,2.622,2.622,2.622,2.622,2.622,2.622,2.622,2.645,2.6415,2.622,2.622,2.622,2.6168,2.6023,2.6043,2.6184,2.6007,2.6007,2.6079,2.5684,2.5721,2.6007,2.6007,2.6043,2.6132,-3.513,-3.513,-3.5114,-3.4944,-3.4977,-3.5059,-3.5076,-3.5206,-3.5329,-3.5361,-3.5502,-3.5616,-3.563,-3.5828,-3.5953,-3.5994,-3.4412,-3.3371,-3.336,-3.1748,-3.0778,-3.0794,-3.0782,-3.0798,-3.079,-3.0795,-3.0795,-3.0808,-3.0707,-2.8164,-2.314,-1.3369,-0.5362,0.1264,1.1425,1.7342,1.9661,2.0638,2.1395,2.2034,2.2521,2.2908,2.3256,2.3387,2.3701,2.4164,2.4028,2.421,2.4552,2.5137,2.5346,2.5346,2.5497,2.5368,2.5105,2.4808,2.4567,2.4364,2.4297,2.4131,2.4021,2.4395,2.4256,2.4131,2.4271,2.4105,2.3666,2.2995,2.3246,2.348,2.326,2.3392,2.361,2.3696,2.3824,2.3894,2.3894,2.4147,2.4354,2.4461,2.4823,2.5214,2.5642,2.5791,2.597,2.6168,2.622,2.6291,2.6415,2.6415,2.6503,2.6657,2.6657,2.6657,2.6657,2.6657,2.6657,2.6657,2.6606,2.645,2.622,2.6345,2.6345,2.622,2.6096,2.6132,2.6168,2.6096,2.6203,2.6399,2.6189,2.6225,2.6415,2.6415,2.6415,2.6415]}]]